     2              OBSERVATION DATA    G (GPS)             RINEX VERSION / TYPE
ASRINEXO V2.9.9 LH AIUB 01-FEB- 1 16:14                     PGM / RUN BY / DATE
BERN ASHTECH Z-12                                           COMMENT
BIT 2 OF LLI (+4) FLAGS DATA COLLECTED UNDER "AS" CONDITION COMMENT
USNB                                                        MARKER NAME
                                                            OBSERVER / AGENCY
? ASHTECH Z-XII3 1D15                                       REC # / TYPE / VERS
? CHOKE RING                                                ANT # / TYPE
  1112167.7200 -4842880.2500  3985516.9800                  APPROX POSITION XYZ
        0.0000        0.0000        0.0000                  ANTENNA: DELTA H/E/N
     1     1                                                WAVELENGTH FACT L1/2
     5    C1    L1    L2    P1    P2                        # / TYPES OF OBSERV
  2000     3    20     0     0   30.000000                  TIME OF FIRST OBS
                                                            END OF HEADER
 00  3 20  0  0 30.0000000  0  8 13 05 26 06 04 24 10 30
  21869867.297   -15710967.677 9 -12012763.24347  21869868.870    21869877.1724
  24488644.714    -2708372.338 7  -2092142.97845  24488650.048    24488667.6304
  23116660.457    -8974541.396 8  -6964357.07346  23116663.827    23116677.7384
  21964571.711   -16221151.416 9 -12608847.70047  21964574.702    21964584.5244
  23911535.190    -4598975.740 7  -3292638.93445  23911540.784    23911555.7584
  21103477.612   -19257338.733 9 -14965152.47747  21103478.729    21103488.4044
  20229893.350   -25241510.020 9 -19640838.17748  20229894.529    20229903.5014
  23693217.636    -5658545.742 8  -4174257.59045  23693218.112    23693229.1264
 00  3 20  0  1  0.0000000  0  8 13 05 26 06 04 24 10 30
  21872988.669   -15694544.404 9 -11999965.86047  21872994.186    21873002.3914
  24504770.008    -2623662.725 7  -2026135.62245  24504770.885    24504788.5254
  23094993.872    -9088413.514 8  -7053088.34446  23094994.602    23095008.5974
  21951090.066   -16291997.104 9 -12664052.05847  21951093.218    21951103.2324
  23926083.284    -4522527.783 7  -3233069.26645  23926090.539    23926105.1604
  21109646.698   -19224911.907 9 -14939884.81747  21109648.812    21109659.4444
  20233385.442   -25223160.382 9 -19626539.74048  20233386.334    20233395.2694
  23704801.943    -5597674.246 8  -4126825.30945  23704800.750    23704812.0314
 00  3 20  0  1 30.0000000  0  8 13 05 26 06 04 24 10 30
  21876237.814   -15677498.477 9 -11986683.29547  21876238.506    21876246.0054
  24520894.243    -2538940.450 8  -1960118.40045  24520892.554    24520911.3184
  23073343.119    -9202140.936 8  -7141706.85346  23073351.382    23073366.5524
  21937691.636   -16362416.554 9 -12718924.29747  21937692.429    21937702.6304
  23940664.190    -4445992.640 8  -3173431.54045  23940655.141    23940666.1964
  21115863.796   -19192227.039 9 -14914416.08947  21115868.817    21115879.0194
  20236954.441   -25204400.055 9 -19611921.27348  20236955.907    20236965.2704
  23716448.677    -5536464.833 8  -4079129.73245  23716448.015    23716462.3044
 00  3 20  0  2  0.0000000  0  8 13 05 26 06 04 24 10 30
  21879596.621   -15659834.396 9 -11972919.05347  21879599.548    21879607.5224
  24537014.348    -2454203.071 8  -1894089.41345  24537018.828    24537034.8944
  23051731.089    -9315720.980 8  -7230210.52246  23051738.560    23051752.3714
  21924366.496   -16432418.129 8 -12773470.91747  21924370.610    21924382.1034
  23955237.007    -4369367.331 7  -3113723.55845  23955235.679    23955250.1004
  21122131.810   -19159294.142 9 -14888754.09247  21122135.868    21122145.3984
  20240602.349   -25185237.869 9 -19596989.67448  20240602.748    20240611.9274
  23728151.671    -5474925.760 8  -4031177.28945  23728158.298    23728172.2774
 00  3 20  0  2 30.0000000  0  8 13 05 26 06 04 24 10 30
  21883074.072   -15641557.842 9 -11958677.55047  21883077.089    21883085.0254
  24553143.321    -2369443.019 7  -1828042.76845  24553146.483    24553163.4084
  23030149.592    -9429135.385 8  -7318585.14046  23030156.640    23030170.4864
  21911123.029   -16502020.927 8 -12827706.79047  21911126.098    21911137.4934
  23969828.615    -4292646.961 7  -3053941.55445  23969834.257    23969847.0274
  21128444.260   -19126129.901 9 -14862911.82847  21128446.697    21128456.1414
  20244327.305   -25165662.397 9 -19581736.03048  20244327.384    20244336.7464
  23739926.434    -5413080.866 8  -3982986.56145  23739926.799    23739941.7044
 00  3 20  0  3  0.0000000  0  8 13 05 26 06 04 24 10 30
  21886666.732   -15622694.973 9 -11943979.18547  21886666.649    21886674.4954
  24569279.228    -2284656.411 7  -1761975.41345  24569282.253    24569299.0034
  23008615.138    -9542377.787 8  -7406825.71246  23008607.067    23008620.4764
  21897952.632   -16571240.416 9 -12881643.97047  21897954.411    21897964.6914
  23984451.236    -4215830.322 8  -2994084.56145  23984454.056    23984466.2374
  21134796.840   -19092747.512 9 -14836899.56747  21134798.726    21134808.8934
  20248128.670   -25145675.736 9 -19566161.99248  20248130.593    20248139.8384
  23751751.128    -5350943.671 8  -3934568.01246  23751752.198    23751766.3314
 00  3 20  0  3 30.0000000  0  8 13 05 26 06 04 24 10 30
  21890362.332   -15603261.649 9 -11928836.31047  21890365.043    21890372.4744
  24585422.819    -2199825.360 7  -1695873.43345  24585424.410    24585441.8034
  22987092.759    -9655452.587 8  -7494935.67846  22987089.160    22987102.8944
  21884849.894   -16640085.431 8 -12935289.35947  21884853.268    21884862.9784
  23999085.918    -4138902.289 7  -2934140.73445  23999092.713    23999104.6824
  21141187.591   -19059155.653 9 -14810724.09147  21141191.356    21141201.2344
  20252009.742   -25125281.554 9 -19550270.40748  20252011.600    20252021.2734
  23763631.207    -5288516.901 8  -3885923.83745  23763632.033    23763644.5944
 00  3 20  0  4  0.0000000  0  8 13 05 26 06 04 24 10 30
  21894165.653   -15583265.304 9 -11913254.72247  21894170.235    21894178.1604
  24601573.684    -2114952.036 7  -1629738.49945  24601575.622    24601592.3884
  22965601.031    -9768348.623 8  -7582906.34246  22965605.855    22965619.7944
  21871819.973   -16708557.423 8 -12988644.09947  21871823.343    21871832.8874
  24013750.690    -4061862.930 7  -2874110.14145  24013750.591    24013762.2864
  21147617.192   -19025357.698 9 -14784388.01747  21147622.579    21147632.9564
  20255968.529   -25104485.271 9 -19534065.49748  20255969.126    20255978.2814
  23775563.146    -5225795.988 8  -3837050.44545  23775565.561    23775578.4814
 00  3 20  0  4 30.0000000  0  8 13 05 26 06 04 24 10 30
  21898080.459   -15562696.102 9 -11897226.75547  21898084.448    21898092.6634
  24617726.904    -2030040.450 7  -1563573.73945  24617734.267    24617751.6724
  22944151.197    -9881053.906 8  -7670728.38446  22944159.061    22944172.3884
  21858864.095   -16776652.651 9 -13041705.23947  21858865.558    21858874.8924
  24028433.187    -3984723.854 7  -2814001.83745  24028431.823    24028443.6994
  21154094.049   -18991348.381 9 -14757887.24947  21154094.226    21154104.5014
  20260001.676   -25083286.668 9 -19517547.08448  20260002.987    20260012.3894
  23787555.205    -5162781.772 8  -3787948.53945  23787557.898    23787571.2734
 00  3 20  0  5  0.0000000  0  8 13 05 26 06 04 24 10 30
  21902105.002   -15541538.959 9 -11880740.64047  21902109.907    21902118.6994
  24633893.132    -1945128.184 8  -1497408.50145  24633893.518    24633909.8434
  22922739.534    -9993579.521 8  -7758410.43546  22922745.793    22922759.4254
  21845982.191   -16844351.863 9 -13094457.78747  21845983.062    21845992.6524
  24043128.106    -3907481.558 7  -2753813.09245  24043129.347    24043143.6954
  21160603.769   -18957126.574 9 -14731220.89547  21160606.838    21160616.7524
  20264107.758   -25061707.795 9 -19500732.36548  20264109.208    20264118.5914
  23799607.213    -5099462.980 8  -3738609.24345  23799608.259    23799620.1944
 00  3 20  0  5 30.0000000  0  8 13 05 26 06 04 24 10 30
  21906248.658   -15519770.787 9 -11863778.39547  21906252.357    21906260.3964
  24650042.700    -1860245.981 7  -1431266.64445  24650044.358    24650063.3984
  22901359.974   -10105922.277 8  -7845949.94046  22901366.288    22901380.3214
  21833173.243   -16911647.076 9 -13146895.55447  21833176.754    21833186.2204
  24057836.305    -3830132.104 7  -2693540.87645  24057848.003    24057863.2074
  21167159.090   -18922689.485 9 -14704386.80247  21167160.160    21167170.1094
  20268283.760   -25039755.794 9 -19483626.88848  20268286.687    20268295.7634
  23811713.507    -5035836.480 8  -3689030.21745  23811715.259    23811728.9024
 00  3 20  0  6  0.0000000  0  8 13 05 26 06 04 24 10 30
  21910508.361   -15497385.254 9 -11846335.09447  21910512.635    21910520.2164
  24666187.292    -1775425.188 7  -1365172.65045  24666185.472    24666202.9744
  22880023.528   -10218075.026 8  -7933341.41346  22880024.694    22880038.3094
  21820445.925   -16978525.822 8 -13199008.78647  21820449.385    21820460.4794
  24072590.688    -3752674.499 7  -2633184.36445  24072588.194    24072602.6474
  21173752.510   -18888026.459 9 -14677376.64547  21173755.907    21173766.3224
  20272533.331   -25017437.087 9 -19466235.66848  20272533.807    20272542.7524
  23823884.277    -4971895.608 8  -3639206.22545  23823883.543    23823896.9814
 00  3 20  0  6 30.0000000  0  8 13 05 26 06 04 24 10 30
  21914884.796   -15474393.381 9 -11828419.32347  21914887.331    21914895.9844
  24682321.797    -1690681.309 7  -1299138.63745  24682311.670    24682329.9674
  22858712.338   -10330053.412 8  -8020597.04246  22858716.075    22858728.4734
  21807806.162   -17044974.120 8 -13250786.61747  21807804.989    21807815.0984
  24087335.878    -3675106.226 7  -2572741.67745  24087349.120    24087361.0334
  21180394.345   -18853134.278 9 -14650187.92347  21180395.959    21180406.1864
  20276849.019   -24994749.062 9 -19448556.67848  20276850.707    20276860.2594
  23836105.697    -4907645.601 8  -3589141.38345  23836109.183    23836122.5214
 00  3 20  0  7  0.0000000  0  7 13 26 06 04 24 10 30
  21919372.694   -15450813.022 9 -11810044.98947  21919374.602    21919382.8994
  22837434.694   -10441870.150 8  -8107726.69746  22837437.246    22837450.5554
  21795244.333   -17110974.455 9 -13302215.37947  21795245.479    21795256.4384
  24102131.621    -3597423.442 7  -2512209.73245  24102130.623    24102146.8464
  21187075.697   -18818018.292 9 -14622824.81447  21187078.533    21187088.1914
  20281236.902   -24971696.320 9 -19430593.49848  20281237.980    20281247.1194
  23848395.302    -4843079.141 8  -3538829.94445  23848396.847    23848409.0854
 00  3 20  0  7 30.0000000  0  7 13 26 06 04 24 10 30
  21923967.248   -15426662.994 9 -11791226.76447  21923970.359    21923978.5534
  22816190.765   -10553513.170 8  -8194721.01346  22816192.018    22816205.4294
  21782766.564   -17176533.628 9 -13353300.38547  21782770.343    21782780.1714
  24116935.795    -3519630.923 8  -2451592.23745  24116935.999    24116947.7564
  21193800.234   -18782678.444 9 -14595287.26147  21193803.349    21193813.3004
  20285694.097   -24948268.468 9 -19412338.01948  20285695.644    20285705.3824
  23860738.254    -4778197.448 8  -3488272.84345  23860743.162    23860755.9224
 00  3 20  0  8  0.0000000  0  7 13 26 06 04 24 10 30
  21928668.558   -15401949.531 9 -11771969.50947  21928672.742    21928681.1144
  22794969.890   -10664993.544 8  -8281588.55446  22794977.893    22794991.3574
  21770380.220   -17241644.095 9 -13404035.74147  21770380.351    21770390.0254
  24131752.713    -3441736.925 7  -2390895.66345  24131759.200    24131770.5274
  21200565.864   -18747116.925 9 -14567576.97747  21200570.731    21200580.2414
  20290226.853   -24924460.817 9 -19393786.59448  20290226.850    20290235.6974
  23873143.877    -4713013.084 8  -3437479.89345  23873146.245    23873159.6214
 00  3 20  0  8 30.0000000  0  7 13 26 06 04 24 10 30
  21933480.053   -15376667.904 9 -11752269.51447  21933483.499    21933492.0694
  22773798.050   -10776306.499 8  -8368325.65946  22773796.565    22773809.0404
  21758075.687   -17306306.920 9 -13454422.27147  21758074.992    21758085.0594
  24146588.056    -3363749.687 7  -2330126.44245  24146596.469    24146612.1304
  21207374.532   -18711342.633 9 -14539700.89847  21207378.276    21207387.6384
  20294828.603   -24900265.332 9 -19374932.95548  20294830.883    20294840.0604
  23885605.457    -4647534.343 8  -3386457.58245  23885607.095    23885621.0194
 00  3 20  0  9  0.0000000  0  7 13 26 06 04 24 10 30
  21938403.009   -15350797.979 9 -11732111.10647  21938406.539    21938415.0604
  22752656.853   -10887427.699 8  -8454913.38346  22752650.796    22752662.5924
  21745847.875   -17370546.284 9 -13504478.85547  21745850.712    21745860.1214
  24161455.189    -3285670.225 7  -2269285.44745  24161455.173    24161471.0474
  21214223.157   -18675355.692 9 -14511659.11847  21214226.124    21214236.0494
  20299507.127   -24875684.365 9 -19355778.94048  20299508.479    20299517.5414
  23898124.905    -4581758.410 8  -3335203.68345  23898123.586    23898137.9004
 00  3 20  0  9 30.0000000  0  7 13 26 06 04 24 10 30
  21943443.455   -15324323.989 9 -11711482.00547  21943444.923    21943452.4974
  22731539.065   -10998345.654 8  -8541342.74246  22731543.296    22731556.0754
  21733701.621   -17434387.409 9 -13554225.12747  21733701.934    21733712.1174
  24176323.952    -3207497.459 7  -2208371.67545  24176331.915    24176345.5604
  21221112.804   -18639146.374 9 -14483444.06347  21221116.442    21221126.0484
  20304258.919   -24850719.462 9 -19336325.75048  20304259.249    20304267.8824
  23910697.594    -4515691.177 8  -3283722.81645  23910696.109    23910710.6104
 00  3 20  0 10  0.0000000  0  7 13 26 06 04 24 10 30
  21948596.934   -15297235.829 9 -11690374.33847  21948599.552    21948607.6864
  22710466.698   -11109051.857 8  -8627607.10546  22710475.523    22710488.6244
  21721628.707   -17497828.484 9 -13603659.66847  21721629.479    21721639.6314
  24191224.741    -3129236.163 7  -2147388.90745  24191224.394    24191237.8804
  21228046.044   -18602712.409 9 -14455053.95147  21228049.821    21228059.2994
  20309081.037   -24825373.863 9 -19316575.91348  20309082.235    20309091.1434
  23923315.963    -4449341.122 8  -3232021.58645  23923322.860    23923335.7794
 00  3 20  0 10 30.0000000  0  7 13 26 06 04 24 10 30
  21953866.171   -15269550.045 9 -11668800.98847  21953867.887    21953875.7624
  22689454.319   -11219527.308 8  -8713691.63846  22689453.644    22689466.3804
  21709628.497   -17560879.850 8 -13652790.54347  21709630.849    21709640.8644
  24206140.592    -3050881.527 7  -2086333.41445  24206136.491    24206149.3094
  21235024.116   -18566052.982 9 -14426488.15947  21235026.013    21235035.6274
  20313974.400   -24799657.286 9 -19296537.00648  20313975.919    20313984.9154
  23936003.773    -4382695.698 8  -3180090.16945  23936005.572    23936017.8604
 00  3 20  0 11  0.0000000  0  7 13 26 06 04 24 10 30
  21959244.752   -15241275.343 9 -11646768.74347  21959247.899    21959256.3824
  22668470.896   -11329776.497 8  -8799599.89146  22668473.774    22668485.9554
  21697706.149   -17623535.258 9 -13701612.87947  21697708.002    21697718.1804
  24221064.498    -2972422.450 7  -2025196.57045  24221066.235    24221080.0564
  21242044.877   -18529158.131 9 -14397738.91647  21242046.974    21242056.3774
  20318935.818   -24773588.541 9 -19276223.67748  20318936.653    20318945.4534
  23948744.404    -4315766.292 8  -3127937.44745  23948740.921    23948754.8224
 00  3 20  0 11 30.0000000  0  7 13 26 06 04 24 10 30
  21964732.576   -15212421.773 9 -11624285.41847  21964737.786    21964746.6294
  22647533.447   -11439805.183 8  -8885336.31946  22647536.041    22647547.6794
  21685865.186   -17685752.400 9 -13750093.70347  21685868.350    21685878.3014
  24236017.751    -2893858.697 7  -1963978.17745  24236016.135    24236028.7804
  21249110.331   -18492028.924 9 -14368807.05847  21249112.754    21249121.6264
  20323962.015   -24747168.556 9 -19255636.65048  20323963.973    20323973.2594
  23961524.621    -4248569.808 8  -3075576.63345  23961526.963    23961541.7844
 00  3 20  0 12  0.0000000  0  7 13 26 06 04 24 10 30
  21970336.313   -15182998.566 9 -11601358.21647  21970337.708    21970345.6114
  22626639.598   -11549615.250 8  -8970902.41446  22626639.207    22626651.8274
  21674113.995   -17747499.483 9 -13798208.25447  21674118.521    21674128.0254
  24250981.782    -2815193.462 7  -1902680.70745  24250986.099    24250998.7614
  21256218.419   -18454675.720 9 -14339700.65647  21256220.235    21256229.4684
  20329059.142   -24720386.141 9 -19234767.22948  20329060.552    20329069.7184
  23974349.311    -4181111.176 8  -3023011.57445  23974363.196    23974379.3234
 00  3 20  0 12 30.0000000  0  7 13 26 06 04 24 10 30
  21976042.836   -15153014.007 9 -11577993.62547  21976043.600    21976051.6864
  22605787.420   -11659211.310 8  -9056301.74346  22605783.817    22605794.1314
  21662457.793   -17808767.233 9 -13845949.29547  21662459.664    21662469.1144
  24265972.627    -2736424.260 7  -1841302.18045  24265974.284    24265987.5624
  21263368.179   -18417090.727 9 -14310413.64847  21263372.701    21263381.8554
  20334224.523   -24693239.795 9 -19213614.21448  20334226.194    20334235.4364
  23987253.737    -4113385.354 8  -2970238.32246  23987253.942    23987267.2114
 00  3 20  0 13  0.0000000  0  7 13 26 06 04 24 10 30
  21981855.561   -15122453.916 9 -11554180.55047  21981858.736    21981866.7084
  22584963.177   -11768599.124 8  -9141538.82646  22584968.462    22584979.8854
  21650894.861   -17869541.621 9 -13893305.91047  21650894.794    21650904.2134
  24280981.361    -2657557.184 7  -1779847.41445  24280983.052    24280994.6044
  21270565.938   -18379265.217 9 -14280939.22647  21270570.169    21270580.1564
  20339461.988   -24665720.394 9 -19192170.51748  20339463.170    20339472.3564
  24000188.337    -4045399.470 8  -2917262.37146  24000191.191    24000204.3654
 00  3 20  0 13 30.0000000  0  7 13 26 06 04 24 10 30
  21987780.695   -15091330.134 9 -11529928.23447  21987781.766    21987789.5224
  22564188.482   -11877763.261 8  -9226601.60246  22564195.151    22564205.8094
  21639416.024   -17929832.964 8 -13940286.11347  21639420.761    21639430.9064
  24296007.689    -2578612.579 8  -1718332.20845  24296008.735    24296018.3754
  21277813.352   -18341200.545 9 -14251278.45647  21277813.922    21277823.8214
  20344771.524   -24637813.010 9 -19170424.49448  20344773.852    20344782.8264
  24013183.812    -3977135.006 8  -2864069.36645  24013180.672    24013194.3814
 00  3 20  0 14  0.0000000  0  7 13 26 06 04 24 10 30
  21993807.759   -15059655.486 9 -11505246.68247  21993809.480    21993817.5074
  22543468.820   -11986694.097 8  -9311482.56746  22543465.700    22543477.0204
  21628033.833   -17989671.036 9 -13986913.12947  21628034.553    21628043.9874
  24311036.161    -2499588.101 7  -1656754.76245  24311044.839    24311057.9124
  21285100.171   -18302897.464 9 -14221431.91147  21285102.483    21285112.6414
  20350157.199   -24609518.117 9 -19148376.51248  20350158.423    20350167.0764
  24026222.286    -3908590.756 8  -2810658.33945  24026224.577    24026237.0264
 00  3 20  0 14 30.0000000  0  7 13 26 06 04 24 10 30
  21999940.974   -15027424.197 9 -11480131.37547  21999942.606    21999950.9964
  22522777.399   -12095387.993 8  -9396178.90946  22522781.665    22522792.7534
  21616728.955   -18049075.354 9 -14033202.14147  21616730.640    21616740.1174
  24326096.838    -2420475.349 7  -1595108.58445  24326096.521    24326112.2324
  21292435.832   -18264344.771 9 -14191390.86147  21292439.269    21292449.2954
  20355609.477   -24580857.344 9 -19126043.43148  20355612.200    20355620.9564
  24039315.323    -3839771.537 8  -2757033.07145  24039320.121    24039334.3894
 00  3 20  0 15  0.0000000  0  7 13 26 06 04 24 10 30
  22006182.628   -14994624.908 9 -11454573.47647  22006183.976    22006192.2984
  22502143.185   -12203838.864 8  -9480685.89346  22502143.597    22502154.7304
  21605504.326   -18108049.201 9 -14079155.72947  21605507.856    21605517.2944
  24341167.332    -2341264.127 7  -1533385.69745  24341172.694    24341185.2004
  21299818.696   -18225555.614 9 -14161165.54247  21299820.158    21299830.2724
  20361130.767   -24551841.994 9 -19103434.04948  20361133.547    20361142.5734
  24052462.014    -3770688.957 8  -2703202.60645  24052466.811    24052479.6264
 00  3 20  0 15 30.0000000  0  7 13 26 06 04 24 10 30
  22012533.037   -14961255.874 9 -11428571.62547  22012533.902    22012542.6664
  22481553.652   -12312039.912 8  -9564998.20146  22481554.099    22481564.4504
  21594362.719   -18166590.975 9 -14124772.64047  21594367.600    21594377.1644
  24356258.511    -2261940.192 7  -1471574.91145  24356265.829    24356281.6794
  21307239.357   -18186547.209 9 -14130769.38947  21307243.308    21307253.7714
  20366721.078   -24522480.157 9 -19080554.67348  20366720.992    20366730.0444
  24065660.091    -3701364.558 8  -2649183.69845  24065658.032    24065670.3394
 00  3 20  0 16  0.0000000  0  7 13 26 06 04 24 10 30
  22018991.736   -14927295.550 8 -11402109.03047  22018996.187    22019004.2374
  22461003.347   -12420007.093 8  -9649128.26946  22461007.930    22461019.2974
  21583309.558   -18224692.891 9 -14170046.81347  21583310.919    21583320.6954
  24371386.539    -2182479.680 7  -1409657.70245  24371388.642    24371399.8024
  21314704.839   -18147319.205 9 -14100202.12247  21314708.305    21314717.5894
  20372372.531   -24492775.934 9 -19057408.50048  20372373.544    20372382.4664
  24078891.006    -3631818.011 8  -2594991.65245  24078893.097    24078907.1454
 00  3 20  0 16 30.0000000  0  7 13 26 06 04 24 10 30
  22025570.601   -14892730.663 8 -11375175.34647  22025573.152    22025581.8664
  22440488.717   -12527745.864 8  -9733080.33846  22440505.399    22440517.2444
  21572339.137   -18282337.095 9 -14214964.30847  21572342.367    21572350.9874
  24386540.513    -2102886.955 7  -1347637.46445  24386534.788    24386548.9394
  21322213.710   -18107860.473 9 -14069455.06347  21322216.830    21322226.3474
  20378087.591   -24462727.669 9 -19033994.25548  20378091.450    20378100.5154
  24092167.925    -3562048.950 8  -2540626.19845  24092169.553    24092183.4634
 00  3 20  0 17  0.0000000  0  7 13 26 06 04 24 10 30
  22032264.647   -14857567.803 9 -11347775.72047  22032264.208    22032273.1564
  22420049.045   -12635248.339 8  -9816848.27346  22420048.604    22420059.7134
  21561459.537   -18339512.840 9 -14259516.77747  21561462.022    21561471.1184
  24401692.354    -2023167.141 7  -1285518.26245  24401704.988    24401716.9114
  21329766.575   -18068177.720 9 -14038533.44647  21329768.371    21329778.2744
  20383877.241   -24432321.293 9 -19010300.97348  20383877.547    20383886.5494
  24105482.137    -3492062.533 8  -2486091.44545  24105486.259    24105500.3944
 00  3 20  0 17 30.0000000  0  7 13 26 06 04 24 10 30
  22039064.987   -14821820.084 9 -11319920.34147  22039067.324    22039076.3044
  22399636.368   -12742514.050 8  -9900431.72046  22399636.234    22399647.8234
  21550671.813   -18396217.111 9 -14303701.86547  21550672.093    21550680.7594
  24416894.386    -1943329.628 7  -1223307.35845  24416896.992    24416910.4424
  21337359.621   -18028253.388 9 -14007423.59547  21337365.768    21337375.8864
  20389733.946   -24401545.990 9 -18986320.21248  20389733.856    20389742.7554
  24118848.700    -3421858.377 8  -2431387.03945  24118845.636    24118859.8524
 00  3 20  0 18  0.0000000  0  7 13 26 06 04 24 10 30
  22045977.630   -14785496.756 9 -11291616.44347  22045979.463    22045988.4084
  22379264.880   -12849534.906 8  -9983824.38646  22379271.871    22379282.5334
  21539970.036   -18452444.798 9 -14347515.57147  21539971.340    21539980.9334
  24432111.243    -1863390.110 7  -1161016.92145  24432111.058    24432121.2004
  21345011.363   -17988070.273 9 -13976112.07347  21345012.214    21345022.1704
  20395657.540   -24370404.104 9 -18962053.79348  20395659.770    20395668.7304
  24132245.588    -3351422.306 8  -2376501.92645  24132250.102    24132263.9804
 00  3 20  0 18 30.0000000  0  7 13 26 06 04 24 10 30
  22052996.904   -14748614.841 9 -11262877.28847  22052997.848    22053006.5054
  22358954.655   -12956289.069 8 -10067009.23246  22358956.705    22358967.2394
  21529360.563   -18508188.292 9 -14390952.00947  21529363.587    21529372.9234
  24447337.356    -1783363.590 7  -1098658.66145  24447337.617    24447350.4714
  21352703.906   -17947634.909 9 -13944604.01347  21352706.976    21352717.0934
  20401650.627   -24338911.762 9 -18937514.28948  20401652.443    20401661.7614
  24145690.352    -3280750.391 8  -2321432.95345  24145699.001    24145712.9154
 00  3 20  0 19  0.0000000  0  7 13 26 06 04 24 10 30
  22060118.231   -14711183.763 9 -11233710.20747  22060120.122    22060128.8664
  22338692.895   -13062773.237 8 -10149983.69746  22338691.916    22338703.5414
  21518845.457   -18563451.215 9 -14434013.95247  21518847.351    21518856.7084
  24462583.197    -1703247.504 7  -1036230.62845  24462584.106    24462598.6584
  21360444.397   -17906959.627 9 -13912908.99547  21360446.903    21360457.3084
  20407710.815   -24307081.420 9 -18912711.41248  20407709.499    20407718.4614
  24159187.434    -3209836.967 8  -2266175.83745  24159192.184    24159207.4764
 00  3 20  0 19 30.0000000  0  7 13 26 06 04 24 10 30
  22067347.281   -14673203.529 9 -11204115.21847  22067348.493    22067356.8914
  22318479.917   -13168981.622 8 -10232743.23546  22318482.147    22318492.7614
  21508420.958   -18618230.870 9 -14476699.33247  21508423.923    21508432.3404
  24477842.227    -1623050.491 7   -973739.59745  24477843.844    24477859.2984
  21368231.078   -17866040.043 9 -13881023.62147  21368234.023    21368243.6664
  20413828.946   -24274920.649 9 -18887651.06548  20413829.461    20413838.4944
  24172732.031    -3138688.905 8  -2210735.90545  24172731.550    24172745.3744
 00  3 20  0 20  0.0000000  0  7 13 26 06 04 24 10 30
  22074677.570   -14634670.856 9 -11174089.76847  22074681.253    22074688.4874
  22298322.378   -13274908.360 8 -10315283.31046  22298324.249    22298335.9524
  21498087.358   -18672533.611 9 -14519013.09847  21498090.106    21498098.9974
  24493117.072    -1542768.747 7   -911182.53445  24493123.417    24493135.7744
  21376061.798   -17824890.458 9 -13848959.01847  21376064.440    21376074.4384
  20420009.126   -24242439.941 9 -18862341.41148  20420010.821    20420019.6244
  24186314.548    -3067304.935 8  -2155112.14845  24186315.417    24186330.4264
 00  3 20  0 20 30.0000000  0  7 13 26 06 04 24 10 30
  22082119.227   -14595583.562 9 -11143632.12247  22082118.546    22082127.1254
  22278220.085   -13380554.196 8 -10397604.51746  22278220.638    22278231.9144
  21487842.250   -18726369.049 9 -14560962.72947  21487844.969    21487854.8274
  24508413.596    -1462395.364 8   -848553.97345  24508417.140    24508429.3174
  21383931.797   -17783527.438 9 -13816728.10047  21383935.338    21383945.8604
  20426251.196   -24209634.321 9 -18836778.58148  20426253.235    20426262.1044
  24199940.362    -2995689.509 8  -2099308.00645  24199944.410    24199958.0364
 00  3 20  0 21  0.0000000  0  7 13 26 06 04 24 10 30
  22089661.325   -14555942.323 9 -11112742.85447  22089662.481    22089670.4054
  22258163.747   -13485921.130 8 -10479708.40946  22258169.865    22258180.4204
  21477689.308   -18779732.725 9 -14602544.74247  21477690.506    21477700.0364
  24523733.884    -1381927.259 7   -785851.62345  24523728.868    24523743.6324
  21391849.041   -17741937.490 9 -13784320.37247  21391849.644    21391860.1024
  20432556.841   -24176489.653 9 -18810951.55848  20432560.294    20432569.4534
  24213611.629    -2923848.723 8  -2043328.26645  24213614.792    24213628.7714
 00  3 20  0 21 30.0000000  0  7 13 26 06 04 24 10 30
  22097305.877   -14515752.348 9 -11081425.98347  22097310.255    22097318.6994
  22238171.355   -13591000.355 8 -10561588.12046  22238173.766    22238184.7094
  21467622.303   -18832617.677 9 -14643753.71947  21467626.235    21467636.2764
  24539048.570    -1301364.789 7   -723075.80445  24539058.933    24539074.3744
  21399802.963   -17700117.409 9 -13751733.30847  21399807.787    21399817.9234
  20438932.973   -24142998.437 9 -18784854.49348  20438933.688    20438942.5084
  24227328.171    -2851796.599 8  -1987183.84345  24227325.650    24227340.5084
 00  3 20  0 22  0.0000000  0  7 13 26 06 04 24 10 30
  22105061.807   -14475017.521 9 -11049684.55747  22105061.600    22105070.5154
  22218231.576   -13695795.634 8 -10643246.55846  22218231.604    22218242.2164
  21457651.890   -18885020.530 9 -14684587.05447  21457654.497    21457663.8554
  24554403.819    -1220701.276 7   -660221.25945  24554405.215    24554424.3404
  21407806.582   -17658071.422 9 -13718970.20747  21407809.477    21407818.8894
  20445371.594   -24109161.913 9 -18758488.35948  20445372.630    20445381.6104
  24241078.679    -2779530.244 8  -1930872.49245  24241078.356    24241091.8904
 00  3 20  0 22 30.0000000  0  7 13 26 06 04 24 10 30
  22112914.188   -14433742.343 9 -11017522.07147  22112916.259    22112924.5384
  22198338.437   -13800313.973 8 -10724689.22746  22198342.020    22198353.1144
  21447777.119   -18936916.909 9 -14725025.72747  21447779.153    21447788.4424
  24569774.338    -1139938.399 7   -597289.26945  24569778.458    24569793.8684
  21415852.072   -17615788.141 9 -13686022.20147  21415855.209    21415864.7344
  20451877.262   -24074978.217 9 -18731851.70948  20451877.691    20451886.6084
  24254863.240    -2707064.566 7  -1874405.80845  24254866.707    24254882.4014
 00  3 20  0 23  0.0000000  0  8 13 17 26 06 04 24 10 30
  22120870.776   -14391924.296 9 -10984936.57147  22120874.183    22120882.6654
  24647600.310     -280863.50117   -197297.73654  24647593.053    24647607.3604
  22178499.140   -13904553.562 8 -10805914.66446  22178506.149    22178517.1214
  21438001.880   -18988296.655 9 -14765061.82847  21438001.459    21438010.8964
  24585156.607    -1059079.681 7   -534282.55745  24585165.810    24585178.3014
  21423947.601   -17573250.409 9 -13652875.92947  21423950.205    21423959.5474
  20458446.298   -24040447.024 9 -18704944.26048  20458448.269    20458457.7284
  24268689.659    -2634406.408 8  -1817789.20745  24268694.026    24268709.3264
 00  3 20  0 23 30.0000000  0  8 13 17 26 06 04 24 10 30
  22128932.813   -14349553.871 8 -10951920.64847  22128936.493    22128945.1734
  24630815.313     -369014.463 7   -265986.63245  24630820.360    24630834.6134
  22158722.666   -14008515.018 8 -10886923.43246  22158722.894    22158732.6224
  21428315.982   -19039174.028 9 -14804706.47747  21428319.792    21428329.6164
  24600572.081     -978128.404 7   -471203.74844  24600567.154    24600582.1274
  21432088.099   -17530471.105 9 -13619541.41347  21432090.460    21432100.2414
  20465084.163   -24005568.707 9 -18677766.33748  20465085.428    20465094.9354
  24282560.817    -2561558.595 8  -1761024.73745  24282557.026    24282571.8704
 00  3 20  0 24  0.0000000  0  7 13 17 26 06 24 10 30
  22137100.836   -14306625.761 9 -10918470.18547  22137105.586    22137114.5634
  24614022.854     -457210.470 7   -334710.68145  24614035.267    24614050.3164
  22138991.584   -14112200.245 8 -10967716.96146  22138992.937    22139002.9534
  21418731.293   -19089552.380 9 -14843962.28247  21418732.743    21418742.3964
  21440274.060   -17487450.930 9 -13586019.20147  21440277.075    21440286.7434
  20471783.646   -23970354.534 9 -18650326.71348  20471786.227    20471796.0334
  24296445.421    -2488518.083 8  -1704110.13845  24296456.938    24296470.7044
 00  3 20  0 24 30.0000000  0  7 13 17 26 06 24 10 30
  22145373.766   -14263143.576 8 -10884587.96347  22145379.533    22145388.3814
  24597250.855     -545441.018 7   -403461.53945  24597247.233    24597261.8834
  22119313.846   -14215598.141 8 -11048286.58746  22119316.519    22119326.6324
  21409239.060   -19139427.432 9 -14882825.90747  21409242.166    21409251.7944
  21448505.190   -17444190.492 9 -13552309.78847  21448509.494    21448519.2704
  20478552.810   -23934799.251 9 -18622621.30248  20478552.828    20478561.7874
  24310394.097    -2415284.273 7  -1647044.92445  24310391.220    24310404.9024
 00  3 20  0 25  0.0000000  0  7 13 17 26 06 24 10 30
  22153756.447   -14219106.196 9 -10850273.11947  22153760.045    22153768.5214
  24580446.764     -633699.329 7   -472234.06145  24580449.764    24580465.5354
  22099693.497   -14318691.645 8 -11128619.00446  22099697.834    22099708.6724
  21399840.704   -19188822.614 9 -14921315.60347  21399842.742    21399852.1974
  21456783.332   -17400701.098 9 -13518421.96347  21456785.133    21456795.1134
  20485382.425   -23898911.234 9 -18594656.61248  20485381.876    20485390.9694
  24324362.539    -2341847.021 7  -1589821.19145  24324365.109    24324380.3334
 00  3 20  0 25 30.0000000  0  7 13 17 26 06 24 10 30
  22162238.975   -14174530.659 9 -10815538.92847  22162242.568    22162250.4564
  24563644.224     -721964.526 7   -541011.91545  24563654.488    24563667.6144
  22080136.946   -14421476.792 8 -11208711.18546  22080138.178    22080148.3064
  21390531.672   -19237736.792 9 -14959430.49147  21390534.234    21390544.1774
  21465100.398   -17356987.583 9 -13484359.50647  21465103.268    21465113.5764
  20492269.251   -23862709.218 9 -18566447.24048  20492270.814    20492279.8304
  24338374.601    -2268213.871 7  -1532444.82445  24338378.857    24338392.8814
 00  3 20  0 26  0.0000000  0  7 13 17 26 06 24 10 30
  22170826.544   -14129418.118 9 -10780386.29847  22170827.383    22170835.8024
  24546858.380     -810248.241 7   -609804.24545  24546856.908    24546870.2534
  22060639.005   -14523943.910 8 -11288555.54246  22060639.655    22060649.0234
  21381319.677   -19286145.435 9 -14997151.46547  21381322.384    21381332.2244
  21473463.281   -17313051.326 9 -13450123.48547  21473464.246    21473474.2524
  20499216.397   -23826203.854 9 -18538001.48248  20499217.412    20499226.5074
  24352426.209    -2194395.713 8  -1474924.27945  24352425.935    24352440.4734
 00  3 20  0 26 30.0000000  0  7 13 17 26 06 24 10 30
  22179511.917   -14083760.080 9 -10744808.61447  22179515.928    22179523.8334
  24530042.124     -898579.188 7   -678633.33845  24530045.946    24530060.1194
  22041200.369   -14626085.148 8 -11368145.98646  22041202.326    22041212.9524
  21372204.757   -19334048.355 9 -15034478.34547  21372206.682    21372216.4304
  21481866.139   -17268886.659 9 -13415709.47847  21481868.646    21481878.2604
  20506223.221   -23789393.736 9 -18509318.26248  20506222.324    20506231.2824
  24366504.193    -2120402.454 8  -1417267.29645  24366505.764    24366520.3934
 00  3 20  0 27  0.0000000  0  7 13 17 26 06 24 10 30
  22188307.660   -14037550.366 9 -10708801.03847  22188309.462    22188317.3164
  24513224.236     -986977.831 7   -747515.18645  24513223.102    24513237.7334
  22021823.272   -14727911.645 8 -11447491.17346  22021825.269    22021835.7604
  21363180.750   -19381452.025 9 -15071416.23047  21363185.373    21363195.5424
  21490313.709   -17224479.655 9 -13381106.63647  21490318.744    21490329.0454
  20513281.308   -23752290.060 9 -18480406.30848  20513282.709    20513292.0094
  24380609.244    -2046240.410 7  -1359478.82745  24380617.897    24380634.1864
 00  3 20  0 27 30.0000000  0  7 13 17 26 06 24 10 30
  22197202.668   -13990788.539 9 -10672363.24947  22197207.941    22197215.6344
  24496383.921    -1075460.376 7   -816462.39945  24496385.385    24496401.2584
  22002499.868   -14829428.938 8 -11526595.42446  22002507.059    22002517.7074
  21354263.103   -19428339.273 9 -15107951.69947  21354263.490    21354273.5894
  21498815.790   -17179820.374 9 -13346307.21647  21498817.553    21498827.1594
  20520397.942   -23714884.222 9 -18451258.90948  20520400.908    20520410.1424
  24394768.925    -1971922.485 7  -1301568.84045  24394761.748    24394775.8264
 00  3 20  0 28  0.0000000  0  7 13 17 26 06 24 10 30
  22206211.639   -13943460.174 9 -10635484.00747  22206213.302    22206222.1614
  24479537.017    -1164030.854 7   -885478.19645  24479533.614    24479545.5124
  21983245.343   -14930635.989 8 -11605457.93547  21983248.136    21983258.9774
  21345435.691   -19474712.872 9 -15144086.92947  21345438.981    21345448.5034
  21507357.900   -17134907.229 9 -13311309.97547  21507363.864    21507373.6294
  20527576.338   -23677166.587 9 -18421868.53848  20527578.202    20527587.5674
  24408937.857    -1897446.575 8  -1243535.72645  24408934.965    24408949.2734
 00  3 20  0 28 30.0000000  0  7 13 17 26 06 24 10 30
  22215319.139   -13895587.545 9 -10598180.66647  22215323.406    22215331.5604
  24462658.590    -1252661.685 7   -954540.90245  24462665.851    24462680.5584
  21964045.754   -15031540.466 8 -11684084.65747  21964046.014    21964056.8574
  21336706.254   -19520587.341 9 -15179833.22447  21336709.202    21336719.2674
  21515958.409   -17089726.015 9 -13276103.85147  21515962.044    21515971.5184
  20534816.158   -23639132.294 9 -18392231.40748  20534816.549    20534825.3664
  24423134.213    -1822801.836 8  -1185371.09645  24423138.342    24423152.5824
 00  3 20  0 29  0.0000000  0  7 13 17 26 06 24 10 30
  22224531.062   -13847192.700 9 -10560470.41947  22224533.121    22224540.8314
  24445782.517    -1341328.329 7  -1023631.56245  24445790.609    24445807.4464
  21944897.271   -15132143.358 8 -11762476.38947  21944901.810    21944912.8934
  21328074.558   -19565946.613 9 -15215178.06847  21328077.825    21328087.5514
  21524608.776   -17044281.291 9 -13240692.40047  21524609.824    21524619.3304
  20542112.364   -23600780.240 9 -18362346.66548  20542114.215    20542123.4164
  24437369.086    -1747991.827 7  -1127077.71345  24437373.944    24437387.9234
 00  3 20  0 29 30.0000000  0  7 13 17 26 06 24 10 30
  22233834.391   -13798280.789 8 -10522357.23247  22233840.563    22233848.6814
  24428918.336    -1430001.715 7  -1092727.53445  24428919.653    24428930.8544
  21925819.147   -15232420.761 8 -11840614.46747  21925819.939    21925830.7414
  21319541.904   -19610787.471 9 -15250118.94747  21319544.724    21319554.3414
  21533301.549   -16998592.567 9 -13205090.82347  21533303.608    21533313.7174
  20549471.312   -23562117.773 9 -18332220.06948  20549471.663    20549480.9134
  24451644.097    -1673020.515 7  -1068658.61245  24451641.051    24451654.6734
 00  3 20  0 30  0.0000000  0  7 13 17 26 06 24 10 30
  22243245.263   -13748849.730 9 -10483839.53747  22243247.506    22243255.5374
  24412042.434    -1518654.203 7  -1161807.21745  24412047.133    24412061.7674
  21906798.748   -15332361.820 8 -11918490.50247  21906801.683    21906811.9574
  21311108.991   -19655115.255 9 -15284660.02647  21311109.804    21311119.4544
  21542039.404   -16952665.452 9 -13169303.48647  21542043.143    21542053.2494
  20556884.165   -23523150.366 9 -18301855.86548  20556886.701    20556895.9174
  24465934.703    -1597881.357 7  -1010108.72845  24465937.979    24465953.6464
 00  3 20  0 30 30.0000000  0  7 13 17 26 06 24 10 30
  22252748.846   -13698910.175 9 -10444925.60247  22252749.833    22252759.1384
  24395177.197    -1607281.372 7  -1230867.17445  24395183.992    24395196.4834
  21887847.567   -15431957.137 8 -11996097.10947  21887848.491    21887859.5414
  21302772.355   -19698921.984 9 -15318795.10347  21302773.435    21302782.9934
  21550825.512   -16906504.282 9 -13133333.77247  21550827.492    21550837.5644
  20564358.761   -23483878.585 9 -18271254.49248  20564359.880    20564369.2484
  24480255.126    -1522573.075 7   -951427.04745  24480266.359    24480284.7454
 00  3 20  0 31  0.0000000  0  7 13 17 26 06 24 10 30
  22262348.561   -13648444.291 9 -10405601.53247  22262353.979    22262362.5854
  24378320.730    -1695887.731 7  -1299910.84045  24378321.998    24378334.4794
  21868957.755   -15531201.565 8 -12073430.28947  21868962.726    21868974.0734
  21294534.300   -19742210.816 9 -15352526.61847  21294535.464    21294545.2164
  21559649.945   -16860119.087 9 -13097189.47947  21559654.610    21559664.1704
  20571888.440   -23444308.327 9 -18240420.51648  20571889.833    20571898.7564
  24494630.823    -1447106.404 7   -892621.99345  24494632.265    24494645.8944
 00  3 20  0 31 30.0000000  0  7 13 17 26 06 24 10 30
  22272057.986   -13597441.894 9 -10365859.41547  22272059.662    22272067.5024
  24361458.107    -1784473.674 7  -1368938.66845  24361464.501    24361477.5704
  21850144.537   -15630094.884 8 -12150489.88347  21850144.862    21850154.8394
  21286391.626   -19784997.003 9 -15385866.46347  21286393.040    21286403.2524
  21568519.882   -16813503.611 9 -13060865.74147  21568525.215    21568534.6434
  20579476.155   -23404430.608 9 -18209346.96248  20579478.469    20579487.3704
  24509027.056    -1371473.941 8   -833687.70245  24509025.504    24509038.7054
 00  3 20  0 32  0.0000000  0  7 13 17 26 06 24 10 30
  22281861.778   -13545916.953 9 -10325710.11047  22281864.171    22281872.0754
  24344600.759    -1873067.681 7  -1437972.76345  24344606.528    24344618.4264
  21831386.122   -15728653.186 8 -12227288.41847  21831389.219    21831399.5394
  21278343.520   -19827273.380 9 -15418809.05547  21278348.985    21278358.3144
  21577441.585   -16766643.183 9 -13024351.15647  21577442.901    21577452.9114
  20587127.734   -23364230.735 9 -18178022.37848  20587128.180    20587137.1004
  24523449.885    -1295670.565 7   -774620.22345  24523448.230    24523462.6064
 00  3 20  0 32 30.0000000  0  7 13 17 26 06 24 10 30
  22291761.723   -13493887.004 8 -10285167.29547  22291764.811    22291773.5574
  24327741.095    -1961701.029 8  -1507037.49845  24327739.668    24327751.7324
  21812693.077   -15826890.190 8 -12303836.60947  21812695.307    21812705.3124
  21270400.650   -19869035.152 9 -15451350.65247  21270402.297    21270411.6064
  21586400.909   -16719535.324 9 -12987643.74447  21586406.855    21586416.7144
  20594834.816   -23323712.625 9 -18146449.81548  20594838.252    20594847.4264
  24537901.460    -1219702.664 7   -715424.53945  24537904.630    24537918.4804
 00  3 20  0 33  0.0000000  0  7 13 17 26 06 24 10 30
  22301762.887   -13441346.598 8 -10244226.72047  22301762.388    22301771.5604
  24310856.865    -2050390.495 8  -1576146.00545  24310862.966    24310876.0844
  21794059.403   -15924798.216 8 -12380128.42347  21794063.292    21794074.3254
  21262552.059   -19910272.204 9 -15483483.37447  21262554.410    21262564.5144
  21595418.290   -16672175.223 9 -12950739.80547  21595419.292    21595428.6804
  20602610.077   -23282876.133 9 -18114629.16848  20602609.452    20602618.3694
  24552389.277    -1143569.040 8   -656099.75745  24552392.302    24552407.5584
 00  3 20  0 33 30.0000000  0  7 13 17 26 06 24 10 30
  22311852.962   -13388308.627 8 -10202898.45547  22311855.614    22311864.3054
  24293975.803    -2139139.961 8  -1645301.27345  24293975.573    24293986.8234
  21775493.824   -16022367.726 8 -12456156.44847  21775496.931    21775507.9674
  21254808.706   -19950967.466 9 -15515193.92947  21254810.242    21254820.3694
  21604477.793   -16624552.924 9 -12913631.52947  21604481.904    21604491.9024
  20610441.370   -23241718.970 9 -18082558.64748  20610441.346    20610450.0514
  24566913.361    -1067272.044 8   -596647.64345  24566911.841    24566926.4174
 00  3 20  0 34  0.0000000  0  7 13 17 26 06 24 10 30
  22322038.485   -13334780.453 8 -10161188.19847  22322041.771    22322050.1504
  24277071.893    -2227949.790 7  -1714503.54645  24277074.536    24277085.4214
  21756992.840   -16119600.861 8 -12531922.36947  21756993.667    21757005.2594
  21247167.446   -19991111.642 9 -15546475.04847  21247170.661    21247181.0224
  21613587.966   -16576681.654 9 -12876329.26047  21613590.731    21613601.0314
  20618329.235   -23200256.824 9 -18050250.47648  20618331.303    20618340.1464
  24581457.034     -990830.957 7   -537083.29345  24581458.668    24581472.9974
 00  3 20  0 34 30.0000000  0  7 13 17 26 06 24 10 30
  22332321.929   -13280745.405 9 -10119082.96947  22332325.004    22332332.2204
  24260166.686    -2316780.839 7  -1783722.41345  24260169.766    24260181.3614
  21738555.548   -16216480.614 8 -12607412.91747  21738558.114    21738569.8074
  21239636.321   -20030699.451 9 -15577322.64647  21239637.885    21239648.0844
  21622742.348   -16528566.704 9 -12838837.12647  21622746.916    21622756.9174
  20626274.340   -23158503.447 9 -18017715.38148  20626276.827    20626285.8574
  24596031.882     -914263.346 7   -477420.28745  24596028.198    24596043.2044
 00  3 20  0 35  0.0000000  0  7 13 17 26 06 24 10 30
  22342702.091   -13226193.903 8 -10076575.30847  22342705.043    22342713.3154
  24243262.817    -2405607.703 7  -1852937.97445  24243266.040    24243279.5524
  21720189.768   -16312986.236 8 -12682611.95247  21720193.708    21720204.3144
  21232206.967   -20069731.515 9 -15607737.20147  21232210.588    21232220.0034
  21631948.745   -16480202.978 9 -12801151.13947  21631950.532    21631960.9404
  20634273.641   -23116459.602 9 -17984953.94048  20634277.559    20634286.4314
  24610612.527     -837582.663 8   -417669.23645  24610621.104    24610635.6184
 00  3 20  0 35 30.0000000  0  7 13 17 26 06 24 10 30
  22353184.952   -13171134.799 9 -10033672.11247  22353182.775    22353190.5434
  24226357.973    -2494421.825 7  -1922143.61545  24226364.263    24226377.5364
  21701898.502   -16409130.403 8 -12757529.34347  21701897.860    21701908.2184
  21224885.187   -20108226.043 9 -15637732.89147  21224885.317    21224894.2064
  21641197.320   -16431597.341 9 -12763276.64647  21641199.626    21641209.6974
  20642329.542   -23074137.748 9 -17951975.87248  20642331.109    20642340.0594
  24625228.711     -760810.144 8   -357846.61145  24625229.272    24625244.0294
 00  3 20  0 36  0.0000000  0  7 13 17 26 06 24 10 30
  22363757.663   -13115564.755 8  -9990370.76947  22363756.841    22363765.2964
  24209466.838    -2583229.962 7  -1991344.61945  24209466.169    24209478.6224
  21683668.272   -16504903.624 8 -12832157.70247  21683672.713    21683683.0214
  21217657.803   -20146188.655 9 -15667314.10247  21217661.055    21217670.2904
  21650489.986   -16382758.796 9 -12725220.66147  21650493.092    21650503.6294
  20650431.490   -23031548.236 9 -17918789.24548  20650435.409    20650444.6454
  24639847.075     -683945.760 7   -297952.37845  24639855.209    24639871.4184
 00  3 20  0 36 30.0000000  0  7 13 17 26 06 24 10 30
  22374426.664   -13059484.738 9  -9946672.07147  22374429.385    22374437.2884
  24192564.753    -2672049.211 7  -2060554.29145  24192564.869    24192574.9974
  21665519.369   -16600280.224 8 -12906476.99347  21665523.090    21665534.1864
  21210535.175   -20183622.771 9 -15696483.49147  21210537.330    21210546.7704
  21659834.624   -16333671.166 9 -12686970.58847  21659834.655    21659845.2554
  20658589.742   -22988686.966 9 -17885390.86048  20658591.445    20658600.6344
  24654501.727     -606975.341 7   -237975.57245  24654502.638    24654519.0444
 00  3 20  0 37  0.0000000  0  7 13 17 26 06 24 10 30
  22385192.845   -13002910.797 9  -9902588.47647  22385194.360    22385202.6664
  24175646.087    -2760920.621 7  -2129804.63245  24175652.356    24175664.3484
  21647444.421   -16695270.001 8 -12980494.87347  21647447.211    21647457.4774
  21203509.655   -20220539.635 9 -15725249.83047  21203512.255    21203521.8564
  21669221.747   -16284332.070 9 -12648524.57847  21669223.458    21669233.6234
  20666800.053   -22945548.224 9 -17851776.24648  20666800.527    20666809.5814
  24669175.479     -529882.945 7   -177903.63845  24669173.240    24669189.0624
 00  3 20  0 37 30.0000000  0  7 13 17 26 06 24 10 30
  22396049.111   -12945852.495 9  -9858127.48447  22396052.776    22396060.7684
  24158722.427    -2849854.031 7  -2199103.25445  24158727.250    24158740.8144
  21629437.591   -16789883.112 8 -13054219.24347  21629442.524    21629453.2704
  21196586.477   -20256939.940 9 -15753613.66747  21196586.128    21196595.3324
  21678658.913   -16234749.020 9 -12609888.46347  21678658.514    21678668.8134
  20675060.359   -22902131.522 9 -17817945.05248  20675062.588    20675071.5654
  24683870.761     -452662.475 8   -117731.95345  24683870.027    24683884.7184
 00  3 20  0 38  0.0000000  0  7 13 17 26 06 24 10 30
  22407002.276   -12888299.277 8  -9813280.82747  22407004.159    22407012.8614
  24141790.760    -2938848.013 7  -2268449.10945  24141792.071    24141805.4314
  21611507.744   -16884111.036 8 -13127643.46847  21611511.512    21611521.9624
  21189757.504   -20292817.699 9 -15781570.31747  21189758.841    21189768.2254
  21688139.405   -16184918.007 9 -12571059.13447  21688141.671    21688151.4984
  20683377.438   -22858422.852 9 -17783886.36248  20683380.297    20683389.1464
  24698580.815     -375303.605 7    -57452.44845  24698589.612    24698605.9774
 00  3 20  0 38 30.0000000  0  7 13 17 26 06 24 10 30
  22418047.297   -12830248.112 8  -9768046.16447  22418051.227    22418059.5724
  24124848.705    -3027895.792 7  -2337836.90545  24124847.532    24124859.7794
  21593652.226   -16977960.281 9 -13200772.61047  21593653.446    21593663.0934
  21183029.239   -20328163.597 9 -15809112.53447  21183032.221    21183041.6444
  21697667.119   -16134839.518 9 -12532036.95947  21697670.561    21697680.4594
  20691751.635   -22814418.331 9 -17749597.11548  20691753.923    20691763.3124
  24713332.641     -297809.430 7      2932.55345  24713335.574    24713353.3314
 00  3 20  0 39  0.0000000  0  7 13 17 26 06 24 10 30
  22429189.060   -12771698.829 8  -9722423.36247  22429192.662    22429200.8634
  24107893.125    -3116975.515 8  -2407249.56945  24107896.452    24107907.9464
  21575861.791   -17071446.927 9 -13273619.20247  21575863.099    21575872.9494
  21176409.407   -20362962.710 9 -15836228.68647  21176410.569    21176419.1634
  21707241.975   -16084525.974 9 -12492831.62747  21707244.972    21707255.4684
  20700184.084   -22770119.413 9 -17715078.46448  20700183.586    20700192.9684
  24728109.558     -220206.926 7     63401.90945  24728104.252    24728119.2834
 00  3 20  0 39 30.0000000  0  6 13 17 26 06 24 10
  22440428.505   -12712634.669 8  -9676399.35046  22440431.761    22440439.9244
  24090947.961    -3206062.032 8  -2476667.54345  24090945.269    24090956.0624
  21558141.640   -17164549.005 8 -13346166.14547  21558145.388    21558155.8514
  21169892.730   -20397204.887 9 -15862910.86047  21169894.803    21169903.0354
  21716861.175   -16033979.918 9 -12453445.12347  21716863.742    21716874.1064
  20708669.225   -22725527.416 9 -17680331.43148  20708669.394    20708678.1424
 00  3 20  0 40  0.0000000  0  6 13 17 26 06 24 10
  22451769.368   -12653054.598 9  -9629973.32547  22451770.160    22451778.0184
  24073989.277    -3295148.708 7  -2546085.66745  24073989.631    24074003.0884
  21540500.291   -17257246.528 8 -13418397.85647  21540506.045    21540515.9114
  21163484.364   -20430882.705 9 -15889153.26947  21163485.306    21163494.3184
  21726524.881   -15983203.723 9 -12413879.29347  21726526.566    21726536.5174
  20717209.840   -22680653.010 9 -17645364.35948  20717208.792    20717217.6494
 00  3 20  0 40 30.0000000  0  6 13 17 26 06 24 10
  22463199.027   -12592981.596 8  -9583163.20046  22463201.607    22463209.5544
  24057035.783    -3384223.431 7  -2615494.42545  24057039.619    24057053.0694
  21522940.238   -17349543.887 9 -13490317.75747  21522942.836    21522952.5864
  21157184.541   -20463983.790 9 -15914946.28247  21157186.524    21157195.0874
  21736229.341   -15932194.897 9 -12374132.18047  21736233.149    21736242.4604
  20725797.993   -22635506.360 9 -17610185.15548  20725799.872    20725808.5884
 00  3 20  0 41  0.0000000  0  6 13 17 26 06 24 10
  22474723.987   -12532418.592 9  -9535971.27046  22474726.522    22474734.6764
  24040091.587    -3473273.641 8  -2684884.13045  24040093.711    24040108.2294
  21505451.610   -17441442.117 9 -13561926.65947  21505454.633    21505464.4954
  21150993.251   -20496521.091 9 -15940299.97447  21150994.648    21151003.8864
  21745986.613   -15880934.459 9 -12334189.00147  21745987.521    21745997.6344
  20734440.929   -22590092.587 9 -17574797.79948  20734441.286    20734450.5544
 00  3 20  0 41 30.0000000  0  6 13 17 26 06 24 10
  22486341.728   -12471368.563 8  -9488399.81646  22486343.798    22486351.7464
  24023150.636    -3562299.356 8  -2754254.74145  24023153.771    24023166.9764
  21488040.817   -17532937.783 9 -13633221.88347  21488043.919    21488053.2694
  21144903.704   -20528508.095 9 -15965224.88047  21144907.386    21144916.8484
  21755785.455   -15829415.382 9 -12294044.29847  21755791.488    21755801.2964
  20743134.149   -22544418.834 9 -17539207.87448  20743132.886    20743142.2164
 00  3 20  0 42  0.0000000  0  6 13 17 26 06 24 10
  22498046.922   -12409852.395 8  -9440465.14946  22498049.707    22498058.5794
  24006213.798    -3651308.022 8  -2823612.06745  24006216.537    24006229.1624
  21470705.170   -17624058.661 9 -13704225.05947  21470703.560    21470713.7904
  21138924.320   -20559938.271 9 -15989715.88947  21138926.425    21138935.7064
  21765644.006   -15777635.852 9 -12253696.64347  21765645.139    21765655.1144
  20751871.659   -22498489.452 9 -17503418.75348  20751873.242    20751882.1744
 00  3 20  0 42 30.0000000  0  6 13 17 26 06 24 10
  22509843.999   -12347861.456 8  -9392160.54546  22509846.954    22509854.0384
  23989279.983    -3740306.095 8  -2892961.14145  23989280.552    23989293.1434
  21453428.247   -17714815.182 9 -13774944.33647  21453433.155    21453442.8704
  21133047.893   -20590814.821 9 -16013775.50347  21133050.796    21133060.1904
  21775545.757   -15725581.659 8 -12213134.97647  21775550.410    21775561.3184
  20760661.151   -22452291.445 9 -17467420.30448  20760664.272    20760673.5404
 00  3 20  0 43  0.0000000  0  6 13 17 26 06 24 10
  22521731.643   -12285388.793 8  -9343480.55646  22521733.934    22521742.3844
  23972344.901    -3829309.942 8  -2962314.68845  23972344.137    23972356.1924
  21436234.678   -17805190.207 8 -13845366.35547  21436234.930    21436244.8084
  21127277.580   -20621140.889 9 -16037406.17947  21127280.628    21127289.0574
  21785502.667   -15673258.192 8 -12172363.48047  21785506.970    21785517.6054
  20769503.741   -22405823.744 9 -17431211.71048  20769506.798    20769516.3064
 00  3 20  0 43 30.0000000  0  6 13 17 26 06 24 10
  22533711.535   -12222445.569 8  -9294433.92146  22533712.237    22533721.0484
  23955397.897    -3918345.569 8  -3031693.02445  23955400.881    23955413.7864
  21419106.935   -17895175.948 8 -13915485.00047  21419111.100    21419121.5474
  21121615.148   -20650904.293 9 -16060598.41047  21121616.764    21121625.9704
  21795505.352   -15620688.375 9 -12131400.02547  21795511.168    21795520.8674
  20778399.417   -22359087.983 9 -17394794.23848  20778400.419    20778409.6684
 00  3 20  0 44  0.0000000  0  6 13 17 26 06 24 10
  22545775.242   -12159035.399 8  -9245023.41246  22545778.676    22545786.8754
  23938452.372    -4007423.471 8  -3101104.30546  23938450.286    23938462.2804
  21402064.842   -17984751.023 9 -13985283.67447  21402066.120    21402075.4894
  21116061.037   -20680099.801 9 -16083348.12147  21116060.987    21116069.7194
  21805562.900   -15567864.568 9 -12090238.64447  21805563.277    21805572.5164
  20787345.413   -22312076.301 9 -17358161.75848  20787346.598    20787355.0044
 00  3 20  0 44 30.0000000  0  6 13 17 26 06 24 10
  22557931.878   -12095159.536 8  -9195250.05146  22557933.748    22557941.8004
  23921486.645    -4096537.637 8  -3170543.81246  23921492.860    23921505.6624
  21385101.971   -18073887.995 9 -14054740.96447  21385103.741    21385112.9044
  21110610.462   -20708728.196 9 -16105655.92147  21110612.991    21110622.1104
  21815657.314   -15514790.159 8 -12048882.00047  21815662.741    21815673.1334
  20796342.024   -22264799.168 9 -17321322.42748  20796343.162    20796351.5974
 00  3 20  0 45  0.0000000  0  6 13 17 26 06 24 10
  22570168.571   -12030829.133 8  -9145122.48146  22570175.524    22570183.7034
  23904528.116    -4185686.493 8  -3240010.33345  23904527.138    23904539.0144
  21368226.707   -18162577.922 9 -14123849.89347  21368226.351    21368236.3554
  21105270.158   -20736789.782 9 -16127522.05947  21105272.703    21105281.9074
  21825803.760   -15461479.812 8 -12007341.51347  21825806.943    21825818.2884
  20805385.932   -22217270.808 9 -17284287.34748  20805387.410    20805396.2474
 00  3 20  0 45 30.0000000  0  6 13 17 26 06 24 10
  22582502.071   -11966041.537 8  -9094638.66146  22582504.311    22582512.3494
  23887554.316    -4274862.713 8  -3309498.17745  23887556.733    23887569.4014
  21351430.465   -18250815.902 9 -14192606.65447  21351435.341    21351445.4104
  21100036.339   -20764278.587 9 -16148941.88347  21100041.237    21100051.0524
  21835993.335   -15407932.812 8 -11965616.61447  21835996.722    21836007.5314
  20814474.620   -22169502.310 9 -17247065.15448  20814477.272    20814486.5374
 00  3 20  0 46  0.0000000  0  6 13 17 26 06 24 10
  22594923.207   -11900793.093 8  -9043795.71946  22594920.873    22594928.8534
  23870582.875    -4364043.907 8  -3378989.88345  23870585.554    23870599.3304
  21334727.532   -18338603.611 9 -14261012.57147  21334730.028    21334739.4444
  21094921.197   -20791186.225 9 -16169908.85347  21094921.272    21094930.5844
  21846228.216   -15354143.972 8 -11923703.26847  21846232.080    21846242.8814
  20823611.755   -22121496.038 9 -17209657.67648  20823612.960    20823621.8644
 00  3 20  0 46 30.0000000  0  6 13 17 26 06 24 10
  22607422.091   -11835078.421 8  -8992589.50146  22607425.148    22607433.8824
  23853606.188    -4453220.656 8  -3448478.14745  23853614.678    23853630.1714
  21318104.815   -18425957.683 9 -14329080.58147  21318106.554    21318116.1754
  21089908.386   -20817510.488 9 -16190421.23847  21089911.855    21089920.8824
  21856511.066   -15300119.375 8 -11881606.19947  21856512.759    21856523.3384
  20832788.978   -22073267.470 9 -17172076.97748  20832790.113    20832799.6964
 00  3 20  0 47  0.0000000  0  6 13 17 26 06 24 10
  22620013.931   -11768889.033 8  -8941013.38846  22620020.736    22620029.6504
  23836649.491    -4542395.067 8  -3517964.58945  23836647.557    23836659.4754
  21301567.111   -18512877.988 9 -14396810.59847  21301566.242    21301576.5424
  21085009.758   -20843256.077 9 -16210482.71747  21085012.795    21085021.8494
  21866837.152   -15245844.398 8 -11839314.05447  21866841.047    21866851.4884
  20842011.876   -22024810.076 9 -17134317.98148  20842011.186    20842020.5484
 00  3 20  0 47 30.0000000  0  6 13 17 26 06 24 10
  22632705.773   -11702229.175 8  -8889070.66646  22632705.518    22632714.0684
  23819678.240    -4631563.486 8  -3587446.27745  23819678.846    23819691.0274
  21285104.326   -18599368.113 9 -14464205.39847  21285108.129    21285117.5334
  21080223.664   -20868418.269 9 -16230089.58947  21080224.503    21080233.4634
  21877216.918   -15191303.029 8 -11796814.31447  21877220.054    21877230.4284
  20851276.106   -21976114.951 9 -17096373.73848  20851277.079    20851286.8504
 00  3 20  0 48  0.0000000  0  6 13 17 26 06 24 10
  22645476.401   -11635102.350 8  -8836764.07346  22645479.494    22645489.0114
  23802711.688    -4720728.218 8  -3656925.16145  23802711.253    23802722.8014
  21268723.953   -18685434.911 9 -14531270.33847  21268729.974    21268739.3664
  21075539.890   -20893013.411 9 -16249254.60547  21075543.728    21075553.1864
  21887644.951   -15136492.480 8 -11754104.83647  21887649.721    21887661.3374
  20860588.005   -21927167.555 9 -17058232.91347  20860591.890    20860600.7104
 00  3 20  0 48 30.0000000  0  6 13 17 26 06 24 10
  22658340.696   -11567512.892 8  -8784096.99646  22658342.257    22658350.4774
  23785736.013    -4809894.679 8  -3726405.41145  23785742.653    23785755.4644
  21252434.357   -18771064.367 9 -14597994.50547  21252434.762    21252443.5084
  21070966.992   -20917054.483 9 -16267987.88047  21070969.697    21070978.6944
  21898126.636   -15081408.213 8 -11711182.06447  21898132.635    21898142.7834
  20869953.763   -21877961.401 9 -17019890.44647  20869955.693    20869964.7234
 00  3 20  0 49  0.0000000  0  6 13 17 26 06 24 10
  22671283.521   -11499476.140 8  -8731081.35046  22671288.744    22671297.2194
  23768768.349    -4899065.527 8  -3795889.07346  23768774.080    23768787.2994
  21236222.656   -18856247.902 9 -14664371.18547  21236224.948    21236234.4484
  21066498.524   -20940541.891 9 -16286289.72847  21066499.828    21066509.5704
  21908660.642   -15026061.730 8 -11668054.97147  21908665.094    21908675.2764
  20879369.077   -21828478.637 9 -16981332.43347  20879371.624    20879381.1414
 00  3 20  0 49 30.0000000  0  6 13 17 26 06 24 10
  22684319.508   -11431002.918 8  -8677725.62746  22684319.820    22684328.1034
  23751804.195    -4988240.435 8  -3865375.87245  23751803.831    23751816.7804
  21220099.740   -18940992.307 9 -14730405.68447  21220098.842    21220108.3804
  21062133.747   -20963471.512 9 -16304156.95147  21062136.709    21062145.9874
  21919242.066   -14970478.545 9 -11624743.42647  21919242.258    21919252.0164
  20888837.581   -21778710.790 9 -16942552.28847  20888841.941    20888851.0684
 00  3 20  0 50  0.0000000  0  6 13 17 26 06 24 10
  22697428.254   -11362097.912 8  -8624033.43646  22697430.766    22697439.0604
  23734833.784    -5077411.894 8  -3934859.98745  23734835.994    23734847.4084
  21204051.187   -19025289.666 9 -14796091.83547  21204057.145    21204066.6824
  21057878.582   -20985833.306 9 -16321581.69247  21057881.709    21057890.2264
  21929858.839   -14914670.693 9 -11581256.82947  21929862.036    21929871.7374
  20898364.040   -21728672.666 9 -16903561.53647  20898364.468    20898373.3184
 00  3 20  0 50 30.0000000  0  6 13 17 26 06 24 10
  22710622.254   -11292765.898 8  -8570008.50246  22710624.755    22710632.4204
  23717869.114    -5166562.431 8  -4004327.81446  23717870.984    23717882.4584
  21188100.523   -19109142.556 9 -14861431.63147  21188100.484    21188109.5254
  21053737.970   -21007610.990 9 -16338551.29247  21053737.666    21053745.8084
  21940526.079   -14858631.397 9 -11537589.87147  21940526.537    21940535.3204
  20907936.644   -21678373.299 9 -16864367.22848  20907936.466    20907945.1954
 00  3 20  0 51  0.0000000  0  6 13 17 26 06 24 10
  22723895.701   -11223018.228 8  -8515659.68146  22723897.100    22723905.2324
  23700902.189    -5255700.484 8  -4073785.92346  23700909.057    23700920.6224
  21172226.087   -19192564.059 9 -14926435.30647  21172225.979    21172234.8844
  21049701.330   -21028802.710 9 -16355064.29647  21049704.566    21049713.5784
  21951230.144   -14802366.655 8 -11493747.25047  21951232.358    21951242.6714
  20917552.770   -21627823.914 9 -16824978.09547  20917555.510    20917564.2064
 00  3 20  0 51 30.0000000  0  6 13 17 26 06 24 10
  22737243.329   -11152855.366 8  -8460987.33846  22737248.673    22737257.3864
  23683946.726    -5344825.437 8  -4143233.79746  23683948.827    23683961.0404
  21156432.108   -19275548.288 9 -14991098.21647  21156435.038    21156443.1904
  21045781.002   -21049402.948 9 -16371116.40447  21045784.597    21045793.2674
  21961985.269   -14745854.101 8 -11449711.53047  21961987.275    21961996.8114
  20927215.567   -21577050.555 9 -16785414.42947  20927217.112    20927226.3114
 00  3 20  0 52  0.0000000  0  6 13 17 26 06 24 10
  22750677.110   -11082278.133 8  -8405992.10946  22750679.118    22750688.5834
  23666992.674    -5433932.286 8  -4212667.54646  23666992.704    23667004.6144
  21140727.534   -19358082.271 9 -15055410.32947  21140728.677    21140737.5814
  21041975.895   -21069412.525 9 -16386708.25147  21041977.306    21041985.7604
  21972787.479   -14689067.109 8 -11405461.95147  21972793.035    21972803.3894
  20936917.484   -21526067.517 9 -16745687.38347  20936919.235    20936927.9424
 00  3 20  0 52 30.0000000  0  6 13 17 26 06 24 10
  22764180.884   -11011288.841 8  -8350675.79446  22764187.944    22764196.9714
  23650039.506    -5523033.844 8  -4282097.20246  23650037.447    23650048.6304
  21125104.534   -19440161.095 9 -15119367.74847  21125109.417    21125118.6294
  21038276.733   -21088850.887 9 -16401854.99947  21038278.343    21038286.8634
  21983649.608   -14632003.618 8 -11360996.92547  21983651.747    21983662.2864
  20946659.963   -21474868.097 9 -16705791.73047  20946661.766    20946670.8474
 00  3 20  0 53  0.0000000  0  6 13 17 26 06 24 10
  22777768.549   -10939888.563 8  -8295039.22846  22777774.773    22777784.3954
  23633078.380    -5612143.125 8  -4351532.88446  23633079.843    23633092.0474
  21109576.055   -19521772.557 9 -15182961.00747  21109578.808    21109588.2314
  21034684.776   -21107721.378 9 -16416559.24747  21034686.673    21034695.7274
  21994559.208   -14574666.922 8 -11316319.02847  21994562.355    21994573.0694
  20956445.755   -21423452.416 9 -16665727.56247  20956445.711    20956454.7134
 00  3 20  0 53 30.0000000  0  6 13 17 26 06 24 10
  22791440.085   -10868060.275 8  -8239069.15246  22791444.520    22791452.6884
  23616123.267    -5701237.346 8  -4420956.79346  23616125.853    23616137.3014
  21094138.063   -19602904.301 9 -15246180.43947  21094140.189    21094149.2414
  21031202.173   -21126015.302 9 -16430814.22347  21031205.629    21031214.0464
  22005521.128   -14517056.071 8 -11271427.49747  22005525.907    22005535.6434
  20966270.420   -21371809.045 9 -16625485.96847  20966272.738    20966282.2744
 00  3 20  0 54  0.0000000  0  6 13 17 26 06 24 10
  22805193.980   -10795797.997 8  -8182760.88746  22805194.177    22805203.3754
  23599167.003    -5790318.021 8  -4490370.16446  23599173.993    23599186.6204
  21078792.180   -19683562.023 9 -15309030.51847  21078791.849    21078800.5474
  21027831.808   -21143736.575 9 -16444622.96947  21027833.494    21027841.8514
  22016532.712   -14459197.256 8 -11226342.74547  22016535.868    22016545.9684
  20976145.914   -21319921.380 9 -16585054.02747  20976146.865    20976156.1644
 00  3 20  0 54 30.0000000  0  6 13 17 26 06 24 10
  22819026.217   -10723099.891 8  -8126113.04746  22819028.311    22819037.3194
  23582215.776    -5879393.156 8  -4559779.22546  23582222.685    23582234.8014
  21063526.954   -19763757.030 9 -15371520.04047  21063530.541    21063539.9714
  21024569.113   -21160879.558 9 -16457981.10847  21024570.839    21024579.4644
  22027585.595   -14401107.149 8 -11181077.76147  22027589.916    22027600.8794
  20986066.457   -21267788.820 9 -16544431.25147  20986067.742    20986076.4114
 00  3 20  0 55  0.0000000  0  6 13 17 26 06 24 10
  22832948.411   -10649957.640 8  -8069119.09446  22832947.068    22832955.5034
  23565273.295    -5968459.931 8  -4629181.76046  23565274.513    23565286.3244
  21048355.554   -19843489.909 9 -15433649.46247  21048358.447    21048367.3864
  21021418.386   -21177432.516 9 -16470879.49147  21021421.136    21021429.9824
  22038682.090   -14342790.591 8 -11135636.32547  22038687.150    22038698.7934
  20996033.107   -21215417.242 9 -16503622.21647  20996033.934    20996042.2434
 00  3 20  0 55 30.0000000  0  6 13 17 26 06 24 10
  22846942.168   -10576366.275 8  -8011775.19846  22846950.962    22846959.1834
  23548320.229    -6057525.546 8  -4698583.39746  23548324.492    23548337.1994
  21033272.155   -19922754.546 9 -15495414.02347  21033274.473    21033283.6544
  21018381.250   -21193392.797 9 -16483316.05247  21018384.311    21018393.0484
  22049825.311   -14284252.739 8 -11090022.45647  22049826.522    22049837.3054
  21006039.728   -21162816.446 9 -16462634.58647  21006043.192    21006052.1154
 00  3 20  0 56  0.0000000  0  6 13 17 26 06 24 10
  22861039.222   -10502335.115 8  -7954088.58246  22861039.145    22861047.2324
  23531369.183    -6146612.654 8  -4768001.81046  23531372.768    23531383.4164
  21018278.359   -20001553.151 9 -15556815.44447  21018279.456    21018288.5434
  21015456.654   -21208766.199 9 -16495295.29647  21015459.010    21015467.4124
  22061008.147   -14225473.893 8 -11044220.80347  22061012.670    22061023.1134
  21016092.638   -21109994.139 9 -16421474.35247  21016094.787    21016103.4384
 00  3 20  0 56 30.0000000  0  6 13 17 26 06 24 10
  22875206.402   -10427867.566 8  -7896061.93946  22875209.421    22875218.2854
  23514414.409    -6235717.112 8  -4837433.74646  23514417.020    23514427.5254
  21003371.409   -20079876.027 9 -15617846.16747  21003375.260    21003384.6514
  21012642.494   -21223555.260 9 -16506819.20747  21012644.793    21012652.8514
  22072245.968   -14166424.036 8 -10998207.97147  22072248.466    22072259.8804
  21026186.583   -21056961.163 9 -16380149.96447  21026187.288    21026196.1154
 00  3 20  0 57  0.0000000  0  6 13 17 26 06 24 10
  22889459.250   -10352974.014 8  -7837703.34646  22889461.069    22889470.2234
  23497455.302    -6324824.528 8  -4906867.95646  23497460.878    23497471.8394
  20988560.107   -20157712.027 9 -15678497.50947  20988563.554    20988572.6184
  21009938.204   -21237764.137 9 -16517891.03347  21009940.583    21009948.7994
  22083534.929   -14107089.598 8 -10951973.40447  22083540.138    22083550.2484
  21036318.317   -21003712.459 9 -16338657.47647  21036319.894    21036329.0804
 00  3 20  0 57 30.0000000  0  6 13 17 26 06 24 10
  22903787.074   -10277672.932 8  -7779027.21046  22903790.058    22903798.9684
  23480505.981    -6413922.884 8  -4976295.11646  23480504.890    23480516.2764
  20973839.824   -20235064.903 9 -15738772.39447  20973843.260    20973852.7384
  21007346.243   -21251388.259 9 -16528507.20547  21007347.782    21007356.3144
  22094882.203   -14047460.479 8 -10905509.19447  22094887.176    22094897.3344
  21046492.597   -20950240.063 9 -16296990.69247  21046495.030    21046504.3954
 00  3 20  0 58  0.0000000  0  6 13 17 26 06 24 10
  22918194.175   -10201984.368 8  -7720049.13646  22918193.096    22918202.1494
  23463552.177    -6502992.626 8  -5045699.99246  23463555.504    23463567.2884
  20959210.031   -20311940.400 9 -15798675.29747  20959214.662    20959223.6274
  21004865.357   -21264427.047 9 -16538667.28247  21004866.415    21004875.1474
  22106288.715   -13987536.614 8 -10858815.30847  22106290.891    22106300.5264
  21056711.144   -20896542.247 9 -16255148.25947  21056713.371    21056722.4964
 00  3 20  0 58 30.0000000  0  6 13 17 26 06 24 10
  22932666.100   -10125919.683 8  -7660777.98846  22932667.760    22932676.4944
  23446612.840    -6592014.820 8  -5115067.81846  23446615.302    23446626.6084
  20944678.478   -20388330.764 9 -15858200.15947  20944677.780    20944686.6204
  21002495.099   -21276875.566 9 -16548367.40347  21002497.847    21002506.5034
  22117742.421   -13927346.594 8 -10811914.04847  22117743.998    22117754.1964
  21066973.521   -20842614.802 9 -16213126.88847  21066975.266    21066984.1434
 00  3 20  0 59  0.0000000  0  6 13 17 26 06 24 10
  22947211.506   -10049488.386 8  -7601221.17346  22947212.713    22947220.2634
  23429681.770    -6680987.770 8  -5184397.30546  23429684.763    23429696.0224
  20930230.404   -20464235.909 9 -15917346.93847  20930233.660    20930242.4024
  21000242.118   -21288718.109 9 -16557595.33247  21000244.120    21000252.5104
  22129239.051   -13866922.996 8 -10764830.78446  22129242.070    22129252.4654
  21077281.737   -20788451.102 9 -16170921.42747  21077282.916    21077291.3594
 00  3 20  0 59 30.0000000  0  6 13 17 26 06 24 10
  22961826.721    -9972681.768 8  -7541371.88046  22961829.128    22961835.5244
  23412761.072    -6769918.779 8  -5253694.08746  23412761.903    23412772.9054
  20915881.168   -20539651.516 9 -15976112.27347  20915882.428    20915891.1524
  20998102.422   -21299958.358 9 -16566353.94747  20998105.080    20998113.7114
  22140776.794   -13806282.166 8 -10717578.23946  22140781.612    22140792.5254
  21087629.493   -20734063.966 9 -16128541.84947  21087632.514    21087641.1664
 00  3 20  1  0  0.0000000  0  6 13 17 26 06 24 10
  22976511.427    -9895494.585 8  -7481226.04646  22976516.535    22976524.7294
  23395840.631    -6858812.753 8  -5322962.02446  23395845.385    23395856.7014
  20901624.755   -20614569.883 9 -16034490.13547  20901626.120    20901634.7984
  20996077.510   -21310608.278 9 -16574652.57147  20996078.596    20996086.7734
  22152360.105   -13745421.302 8 -10670154.25546  22152363.456    22152373.4334
  21098023.401   -20679451.641 9 -16085986.80547  21098024.748    21098033.4844
 00  3 20  1  0 30.0000000  0  6 13 17 26 06 24 10
  22991279.161    -9817912.354 8  -7420772.41946  22991279.906    22991288.3014
  23378935.142    -6947676.363 8  -5392206.29246  23378935.391    23378947.0354
  20887462.295   -20688984.206 9 -16092475.23047  20887465.304    20887474.2984
  20994161.900   -21320676.722 9 -16582498.09147  20994162.822    20994170.7724
  22163986.716   -13684335.405 8 -10622554.91346  22163987.110    22163998.4584
  21108455.503   -20624607.154 9 -16043250.86247  21108460.891    21108470.0444
 00  3 20  1  1  0.0000000  0  6 13 17 26 06 24 10
  23006121.408    -9739925.431 8  -7360003.38946  23006120.404    23006128.9334
  23362030.749    -7036517.697 8  -5461433.20346  23362029.680    23362040.7804
  20873398.373   -20762891.445 9 -16150065.19047  20873401.104    20873410.0874
  20992354.072   -21330166.318 9 -16589892.55747  20992356.730    20992364.9964
  22175652.004   -13623006.795 8 -10574766.45346  22175657.895    22175668.5334
  21118937.294   -20569542.508 9 -16000343.36247  21118939.689    21118948.5884
 00  3 20  1  1 30.0000000  0  6 13 17 26 06 24 10
  23021033.783    -9661534.046 8  -7298919.23446  23021037.394    23021047.5824
  23345128.505    -7125338.919 8  -5530644.45746  23345127.456    23345137.9504
  20859433.919   -20836285.151 9 -16207255.00847  20859434.754    20859443.4264
  20990658.059   -21339081.444 9 -16596839.38647  20990660.169    20990668.9194
  22187381.676   -13561409.627 8 -10526768.70446  22187380.794    22187390.1214
  21129456.798   -20514265.427 9 -15957270.32947  21129458.360    21129467.3124
 00  3 20  1  2  0.0000000  0  6 13 17 26 06 24 10
  23036025.674    -9582746.671 8  -7237526.52346  23036030.775    23036040.5374
  23328228.313    -7214146.173 8  -5599844.82946  23328227.935    23328237.9814
  20845560.919   -20909164.831 9 -16264044.28747  20845566.170    20845574.6674
  20989075.708   -21347397.616 9 -16603319.49747  20989077.816    20989086.7034
  22199150.149   -13499547.114 8 -10478564.19046  22199152.118    22199162.4004
  21140020.239   -20458773.002 9 -15914029.48247  21140018.436    21140027.2404
 00  3 20  1  2 30.0000000  0  6 13 17 26 06 24 10
  23051091.986    -9503563.377 8  -7175825.29146  23051099.411    23051107.7714
  23311323.993    -7302945.889 8  -5669039.31346  23311329.559    23311339.9554
  20831792.706   -20981534.589 9 -16320436.22647  20831794.739    20831803.4864
  20987612.372   -21355087.900 9 -16609311.90947  20987613.925    20987623.0724
  22210969.990   -13437434.497 8 -10430164.81446  22210971.649    22210982.1334
  21150615.487   -20403080.979 9 -15870633.11647  21150616.125    21150625.4844
 00  3 20  1  3  0.0000000  0  6 13 17 26 06 24 10
  23066228.424    -9424005.195 8  -7113831.92446  23066238.573    23066247.0184
  23294435.795    -7391734.311 8  -5738224.96846  23294432.691    23294444.7524
  20818116.626   -21053399.560 9 -16376434.83447  20818119.059    20818127.8994
  20986269.296   -21362136.073 9 -16614803.97447  20986272.585    20986281.1804
  22222838.534   -13375076.140 8 -10381573.95646  22222838.819    22222848.5094
  21161245.727   -20347205.167 9 -15827093.53647  21161248.851    21161258.1534
 00  3 20  1  3 30.0000000  0  6 13 17 26 06 24 10
  23081447.204    -9344082.045 8  -7051554.18046  23081447.155    23081456.4284
  23277542.285    -7480508.921 8  -5807399.88846  23277539.948    23277550.5284
  20804535.993   -21124764.281 9 -16432043.62747  20804538.304    20804547.1094
  20985052.084   -21368544.625 9 -16619797.62447  20985053.411    20985061.4494
  22234751.482   -13312479.251 8 -10332797.21146  22234749.557    22234759.3244
  21171913.193   -20291149.682 9 -15783413.94847  21171915.904    21171924.8524
 00  3 20  1  4  0.0000000  0  6 13 17 26 06 24 10
  23096725.987    -9263787.363 8  -6988986.92546  23096726.956    23096735.5284
  23260648.994    -7569259.180 8  -5876555.83946  23260652.036    23260661.5184
  20791048.396   -21195639.924 9 -16487271.32247  20791051.125    20791059.8224
  20983948.975   -21374332.317 9 -16624307.48447  20983951.810    20983960.7744
  22246703.749   -13249642.571 8 -10283833.61446  22246706.871    22246717.1124
  21182617.694   -20234914.685 9 -15739594.46647  21182617.334    21182626.0384
 00  3 20  1  4 30.0000000  0  6 13 17 26 06 24 10
  23112075.873    -9183122.818 8  -6926131.45846  23112076.414    23112084.6344
  23243773.217    -7657960.712 8  -5945673.81746  23243772.075    23243781.6314
  20777655.251   -21266017.437 9 -16542110.85447  20777658.788    20777667.8094
  20982960.811   -21379533.760 9 -16628360.53747  20982962.104    20982971.2254
  22258715.007   -13186536.069 8 -10234659.79046  22258716.298    22258726.2614
  21193352.094   -20178503.867 9 -15695637.98647  21193352.039    21193360.8304
 00  3 20  1  5  0.0000000  0  6 13 17 26 06 24 10
  23127498.190    -9102081.060 8  -6862982.07846  23127497.948    23127506.6244
  23226900.990    -7746598.552 8  -6014742.15046  23226905.098    23226914.6174
  20764359.542   -21335882.501 9 -16596551.09547  20764363.570    20764373.0434
  20982075.394   -21384177.895 9 -16631979.32647  20982078.412    20982087.1824
  22270775.406   -13123149.763 8 -10185267.93346  22270778.169    22270787.7754
  21204119.265   -20121910.378 9 -15651539.17447  21204121.062    21204130.1844
 00  3 20  1  5 30.0000000  0  6 13 17 26 06 24 10
  23142990.370    -9020643.241 8  -6799524.06846  23142995.620    23143004.5804
  23210042.074    -7835176.863 8  -6083764.11446  23210048.617    23210058.1424
  20751168.980   -21405221.377 9 -16650581.30547  20751169.326    20751178.0324
  20981298.378   -21388269.881 9 -16635167.86647  20981299.951    20981308.1464
  22282887.738   -13059481.613 8 -10135656.45446  22282893.724    22282903.9184
  21214924.821   -20065120.766 9 -15607287.54447  21214927.561    21214936.6504
 00  3 20  1  6  0.0000000  0  6 13 17 26 06 24 10
  23158560.803    -8938812.518 8  -6735759.90746  23158567.408    23158576.4784
  23193203.437    -7923690.272 8  -6152735.49246  23193204.669    23193215.1784
  20738074.350   -21474021.536 9 -16704191.74847  20738076.727    20738085.4554
  20980623.099   -21391800.615 9 -16637919.06847  20980627.952    20980636.1384
  22295059.458   -12995528.487 8 -10085822.90846  22295064.293    22295073.2784
  21225771.371   -20008122.992 9 -15562873.70847  21225774.006    21225783.3744
 00  3 20  1  6 30.0000000  0  6 13 17 26 06 24 10
  23174208.130    -8856606.785 8  -6671703.51946  23174211.010    23174219.1774
  23176372.388    -8012146.822 8  -6221662.58846  23176372.057    23176381.6184
  20725087.976   -21542261.120 9 -16757365.37848  20725091.394    20725100.1154
  20980065.495   -21394750.065 9 -16640217.32047  20980066.790    20980074.8524
  22307281.618   -12931312.859 8 -10035784.80746  22307283.939    22307294.4394
  21236658.263   -19950908.176 9 -15518290.74847  21236661.644    21236670.4484
 00  3 20  1  7  0.0000000  0  7 13 17 26 06 24 08 10
  23189917.699    -8774043.878 8  -6607368.83346  23189921.817    23189930.8814
  23159538.036    -8100571.947 8  -6290565.18846  23159544.571    23159554.5184
  20712208.240   -21609953.499 9 -16810112.61148  20712209.708    20712218.6074
  20979616.042   -21397093.572 9 -16642043.40947  20979620.274    20979628.8894
  22319541.795   -12866864.978 8  -9985565.73546  22319547.472    22319558.7564
  24396808.073    -3138439.25017  -2430537.20855  24396813.422    24396824.4494
  21247589.125   -19893476.977 9 -15473539.16747  21247590.810    21247599.4024
 00  3 20  1  7 30.0000000  0  7 13 17 26 06 24 08 10
  23205696.068    -8691156.342 8  -6542781.17946  23205695.336    23205703.4884
  23142717.503    -8188977.789 8  -6359452.73046  23142721.228    23142733.8744
  20699427.463   -21677103.376 9 -16862437.10948  20699431.478    20699440.1824
  20979290.899   -21398828.109 9 -16643394.98647  20979290.754    20979298.9964
  22331853.920   -12802184.004 8  -9935165.03446  22331856.474    22331867.3524
  24391623.606    -3165694.254 7  -2451774.78645  24391626.071    24391637.6124
  21258559.311   -19835840.240 9 -15428627.41347  21258558.846    21258567.8464
 00  3 20  1  8  0.0000000  0  7 13 17 26 06 24 08 10
  23221521.777    -8607961.652 8  -6477954.17346  23221526.456    23221534.1054
  23125895.189    -8277357.363 8  -6428319.80846  23125902.725    23125915.9524
  20686755.189   -21743709.247 9 -16914337.69948  20686756.783    20686765.8284
  20979073.727   -21399960.538 9 -16644277.37947  20979075.406    20979083.8894
  22344209.387   -12737269.346 8  -9884582.25146  22344209.071    22344219.7854
  24386524.887    -3192498.722 7  -2472661.26545  24386524.513    24386536.9424
  21269562.100   -19778001.266 9 -15383558.09147  21269564.885    21269574.5044
 00  3 20  1  8 30.0000000  0  7 13 17 26 06 24 08 10
  23237414.284    -8524458.837 8  -6412887.08246  23237417.164    23237424.9234
  23109084.905    -8365714.346 8  -6497169.28046  23109089.550    23109101.3374
  20674180.712   -21809781.819 9 -16965822.73848  20674183.602    20674192.1284
  20978971.973   -21400494.635 9 -16644693.54247  20978973.683    20978981.9264
  22356605.265   -12672120.759 8  -9833817.17246  22356606.755    22356617.4104
  24381509.249    -3218851.808 7  -2493196.09645  24381510.814    24381521.2664
  21280604.328   -19719975.823 9 -15338343.47047  21280606.992    21280615.8054
 00  3 20  1  9  0.0000000  0  7 13 17 26 06 24 08 10
  23253359.674    -8440634.339 8  -6347569.32846  23253368.194    23253376.1264
  23092279.113    -8454041.137 8  -6565995.24646  23092281.770    23092292.2594
  20661706.604   -21875334.742 9 -17016902.85448  20661709.680    20661717.7364
  20978979.657   -21400439.249 9 -16644650.37147  20978983.827    20978992.6594
  22369050.500   -12606720.602 8  -9782856.07746  22369051.702    22369063.2184
  24376581.434    -3244752.034 7  -2513378.02145  24376582.168    24376593.2974
  21291681.979   -19661778.276 9 -15292994.74147  21291681.581    21291690.6224
 00  3 20  1  9 30.0000000  0  7 13 17 26 06 24 08 10
  23269381.359    -8356459.712 8  -6281978.74546  23269385.481    23269394.3164
  23075482.470    -8542319.149 8  -6634783.20646  23075483.339    23075493.8024
  20649333.623   -21940354.215 9 -17067567.31147  20649336.265    20649344.6834
  20979104.443   -21399796.878 9 -16644149.81647  20979105.961    20979114.6404
  22381545.668   -12541050.503 8  -9731684.64446  22381548.134    22381558.9264
  24371747.796    -3270182.119 7  -2533193.58745  24371743.071    24371754.5604
  21302789.348   -19603402.016 9 -15247506.75947  21302790.270    21302799.4434
 00  3 20  1 10  0.0000000  0  7 13 17 26 06 24 08 10
  23285471.968    -8271911.177 8  -6216096.80246  23285474.909    23285483.8444
  23058694.513    -8630540.644 8  -6703527.11046  23058696.222    23058705.7614
  20637060.575   -22004835.249 9 -17117812.19847  20637065.793    20637074.1104
  20979343.900   -21398549.686 9 -16643177.97147  20979343.685    20979351.6114
  22394095.223   -12475115.200 8  -9680306.55246  22394095.939    22394106.4114
  24366991.385    -3295127.989 7  -2552631.84145  24366994.171    24367007.2684
  21313931.928   -19544841.288 9 -15201875.03347  21313933.868    21313943.1964
 00  3 20  1 10 30.0000000  0  7 13 17 26 06 24 08 10
  23301630.797    -8186990.150 8  -6149924.61546  23301634.997    23301643.8204
  23041916.362    -8718710.126 8  -6772230.48446  23041916.964    23041928.1974
  20624892.453   -22068794.437 9 -17167650.45947  20624894.922    20624903.3184
  20979696.001   -21396682.655 9 -16641723.12447  20979699.066    20979707.5414
  22406687.444   -12408918.091 8  -9628724.44646  22406692.338    22406702.3434
  24362340.747    -3319580.234 7  -2571685.51045  24362342.932    24362353.4664
  21325111.010   -19486103.887 9 -15156105.63247  21325111.323    21325120.6074
 00  3 20  1 11  0.0000000  0  7 13 17 26 06 24 08 10
  23317868.399    -8101708.103 8  -6083471.13746  23317864.322    23317873.2234
  23025147.443    -8806829.852 8  -6840895.08046  23025148.540    23025159.6804
  20612822.521   -22132223.513 9 -17217075.63548  20612824.998    20612833.2434
  20980169.766   -21394198.747 9 -16639787.60547  20980171.470    20980180.5764
  22419336.638   -12342473.833 8  -9576949.75446  22419336.481    22419347.1544
  24357776.168    -3343519.939 7  -2590339.73145  24357786.897    24357799.0424
  21336320.311   -19427189.150 9 -15110198.05447  21336322.660    21336331.5814
 00  3 20  1 11 30.0000000  0  7 13 17 26 06 24 08 10
  23334156.650    -8016092.981 8  -6016758.08846  23334156.309    23334165.0674
  23008383.941    -8894908.782 8  -6909527.88246  23008387.277    23008398.3804
  20600853.873   -22195113.057 9 -17266080.40448  20600857.087    20600865.6324
  20980760.378   -21391097.556 9 -16637371.08647  20980761.619    20980770.2044
  22432020.367   -12275798.921 8  -9524995.33146  22432023.707    22432035.1044
  24353337.940    -3366931.553 7  -2608582.48145  24353332.940    24353342.7864
  21347565.953   -19368102.232 9 -15064156.30247  21347566.158    21347575.3714
 00  3 20  1 12  0.0000000  0  7 13 17 26 06 24 08 10
  23350498.941    -7930172.332 8  -5949806.96946  23350505.994    23350515.0024
  22991631.258    -8982947.853 8  -6978129.62846  22991634.253    22991643.8984
  20588988.822   -22257469.451 9 -17314669.72348  20588991.311    20588999.4664
  20981466.477   -21387382.873 9 -16634476.51847  20981468.615    20981476.8504
  22444751.947   -12208901.359 8  -9472867.43846  22444754.527    22444765.8854
  24348977.703    -3389826.095 7  -2626422.34345  24348976.050    24348986.5194
  21358839.872   -19308849.278 9 -15017985.17447  21358841.663    21358850.8844
 00  3 20  1 12 30.0000000  0  7 13 17 26 06 24 08 10
  23366908.089    -7843952.343 8  -5882622.58946  23366912.649    23366922.1174
  22974885.860    -9070947.924 8  -7046701.00546  22974888.298    22974898.3044
  20577220.725   -22319298.543 9 -17362848.16648  20577225.082    20577233.9394
  20982286.634   -21383072.521 9 -16631117.79847  20982288.605    20982297.3584
  22457525.334   -12141783.261 8  -9420567.67646  22457527.150    22457537.1984
  24344721.581    -3412210.086 7  -2643864.34645  24344715.217    24344727.0694
  21370146.238   -19249428.245 9 -14971683.07647  21370149.182    21370158.3034
 00  3 20  1 13  0.0000000  0  7 13 17 26 06 24 08 10
  23383373.570    -7757429.504 8  -5815202.22946  23383377.723    23383386.4744
  22958147.258    -9158902.434 8  -7115236.84446  22958150.710    22958161.1114
  20565560.355   -22380581.072 9 -17410600.71948  20565563.329    20565572.0614
  20983216.491   -21378180.996 9 -16627306.20847  20983219.559    20983228.0074
  22470337.881   -12074436.989 8  -9368090.15046  22470342.435    22470352.9564
  24340548.481    -3434094.356 7  -2660916.96745  24340551.205    24340562.8334
  21381488.060   -19189842.059 9 -14925252.28147  21381488.310    21381497.0424
 00  3 20  1 13 30.0000000  0  8 13 23 17 26 06 24 08 10
  23399897.628    -7670588.471 8  -5747533.91746  23399903.196    23399912.1634
  24833932.760     -931199.67917   -677010.84355  24833936.052    24833951.3404
  22941422.801    -9246802.627 8  -7183730.37846  22941424.137    22941433.7824
  20554003.608   -22441314.800 9 -17457925.63648  20554006.394    20554014.7434
  20984260.333   -21372694.470 9 -16623030.98147  20984263.333    20984272.0514
  22483204.567   -12006832.287 8  -9315411.21246  22483207.051    22483217.4144
  24336475.714    -3455506.791 7  -2677601.90745  24336475.005    24336486.8724
  21392859.311   -19130071.194 9 -14878677.58047  21392861.938    21392870.9304
 00  3 20  1 14  0.0000000  0  8 13 23 17 26 06 24 08 10
  23416490.813    -7583401.007 8  -5679595.68646  23416495.096    23416502.9004
  24819425.451    -1007473.804 7   -736445.03245  24819422.633    24819435.6574
  22924706.009    -9334639.341 8  -7252174.46946  22924709.202    22924717.6574
  20542550.424   -22501498.301 9 -17504821.81548  20542553.894    20542561.8984
  20985418.482   -21366609.964 9 -16618289.80247  20985421.275    20985430.2324
  22496124.839   -11938951.675 8  -9262517.30046  22496123.853    22496134.8544
  24332477.761    -3476460.451 7  -2693929.34845  24332489.641    24332499.6274
  21404270.247   -19070103.066 9 -14831949.17647  21404273.049    21404282.6384
 00  3 20  1 14 30.0000000  0  8 13 23 17 26 06 24 08 10
  23433156.692    -7495873.141 8  -5611392.20046  23433151.476    23433158.4974
  24804927.790    -1083631.802 7   -795788.71844  24804931.252    24804942.3784
  22908005.937    -9422416.711 8  -7320572.30846  22908005.642    22908015.1124
  20531206.159   -22561115.466 9 -17551276.68848  20531209.230    20531217.6144
  20986691.323   -21359920.466 9 -16613077.19647  20986694.164    20986703.0914
  22509091.713   -11870796.921 8  -9209409.77746  22509093.388    22509104.9674
  24328595.803    -3496949.211 7  -2709894.59245  24328589.749    24328601.0604
  21415720.287   -19009941.986 9 -14785070.41747  21415721.437    21415731.2304
 00  3 20  1 15  0.0000000  0  8 13 23 17 26 06 24 08 10
  23449868.434    -7408010.504 8  -5542927.82746  23449871.205    23449878.4634
  24790460.328    -1159673.569 7   -855041.88445  24790458.976    24790472.9654
  22891310.991    -9510126.306 8  -7388917.33946  22891313.914    22891324.6074
  20519971.829   -22620148.427 9 -17597276.33148  20519975.062    20519983.7054
  20988082.354   -21352618.228 9 -16607387.13947  20988083.803    20988092.2484
  22522112.946   -11802360.935 8  -9156083.09846  22522116.523    22522128.3934
  24324781.448    -3516960.413 7  -2725487.65545  24324781.818    24324793.4054
  21427203.791   -18949588.940 9 -14738042.07547  21427206.162    21427215.6794
 00  3 20  1 15 30.0000000  0  8 13 23 17 26 06 24 08 10
  23466648.422    -7319808.921 8  -5474199.37146  23466654.551    23466662.8824
  24776012.593    -1235593.556 7   -914200.17245  24776010.805    24776027.4814
  22874632.271    -9597769.228 8  -7457210.40146  22874637.023    22874646.7804
  20508850.323   -22678593.341 9 -17642817.75548  20508853.140    20508862.3014
  20989587.606   -21344707.484 9 -16601222.91747  20989589.273    20989598.3364
  22535188.868   -11733650.212 8  -9102542.36046  22535191.219    22535202.6804
  24321068.368    -3536475.786 7  -2740694.34045  24321068.540    24321078.7324
  21438724.764   -18889041.166 9 -14690862.00447  21438728.001    21438737.3674
 00  3 20  1 16  0.0000000  0  8 13 23 17 26 06 24 08 10
  23483497.530    -7231287.236 8  -5405221.47546  23483499.488    23483507.9764
  24761584.228    -1311392.484 7   -973264.11045  24761587.925    24761602.2624
  22857968.841    -9685347.121 8  -7525452.79846  22857971.030    22857981.5394
  20497842.139   -22736437.547 9 -17687891.09348  20497846.156    20497854.2934
  20991203.570   -21336209.129 9 -16594600.82047  20991206.182    20991215.5224
  22548315.007   -11664686.023 8  -9048804.11046  22548316.089    22548326.2834
  24317459.037    -3555467.775 7  -2755493.25845  24317454.009    24317464.8084
  21450280.345   -18828327.306 9 -14643552.51047  21450282.038    21450291.0894
 00  3 20  1 16 30.0000000  0  8 13 23 17 26 06 24 08 10
  23500398.597    -7142461.814 8  -5336006.89945  23500402.020    23500410.4884
  24747181.828    -1387066.921 7  -1032231.02745  24747187.063    24747202.0284
  22841314.187    -9772856.512 8  -7593641.83646  22841317.848    22841327.6304
  20486950.203   -22793684.622 9 -17732499.14048  20486951.784    20486960.3944
  20992931.756   -21327127.091 9 -16587523.91647  20992934.862    20992943.1364
  22561482.987   -11595479.823 8  -8994877.25646  22561485.450    22561496.5154
  24313937.426    -3573930.121 7  -2769879.38545  24313941.085    24313952.3434
  21461865.271   -18767455.499 9 -14596119.94347  21461865.758    21461874.3824
 00  3 20  1 17  0.0000000  0  8 13 23 17 26 06 24 08 10
  23517366.383    -7053316.732 8  -5266543.23445  23517365.537    23517373.8374
  24732815.918    -1462605.468 7  -1091092.05545  24732812.807    24732827.0404
  22824675.031    -9860293.950 8  -7661774.79246  22824678.930    22824689.6144
  20476166.726   -22850347.836 9 -17776652.24048  20476169.529    20476178.0884
  20994767.378   -21317477.034 9 -16580004.37647  20994771.284    20994779.1114
  22574699.190   -11526027.913 8  -8940758.95046  22574701.696    22574712.5894
  24310519.385    -3591867.609 7  -2783856.56445  24310525.565    24310539.8174
  21473476.252   -18706427.608 9 -14548565.75447  21473478.834    21473488.1284
 00  3 20  1 17 30.0000000  0  8 13 23 17 26 06 24 08 10
  23534387.427    -6963860.064 8  -5196836.76946  23534389.334    23534397.4934
  24718456.495    -1538016.428 7  -1149853.64845  24718462.167    24718478.0164
  22808044.312    -9947670.527 8  -7729860.33846  22808051.333    22808063.1474
  20465492.359   -22906442.041 9 -17820361.94648  20465495.114    20465503.3744
  20996713.767   -21307253.780 9 -16572038.19247  20996716.559    20996724.7974
  22587961.144   -11456327.562 8  -8886447.07046  22587965.914    22587975.8334
  24307212.184    -3609291.112 7  -2797433.24045  24307211.502    24307223.7414
  21485117.003   -18645252.220 9 -14500896.63747  21485119.436    21485129.4724
 00  3 20  1 18  0.0000000  0  8 13 23 17 26 06 24 08 10
  23551461.623    -6874112.748 8  -5126903.81646  23551467.759    23551475.6764
  24704136.313    -1613304.363 7  -1208519.35245  24704135.307    24704149.2894
  22791432.435   -10034982.198 8  -7797895.31346  22791436.287    22791448.6864
  20454924.653   -22961982.958 9 -17863640.51248  20454925.970    20454934.2124
  20998770.010   -21296440.879 9 -16563612.55847  20998773.820    20998782.3174
  22601273.976   -11386378.624 8  -8831941.47546  22601275.985    22601286.9974
  24303993.279    -3626208.973 7  -2810615.87945  24303991.509    24304004.1494
  21496783.463   -18583932.624 9 -14453115.14847  21496788.119    21496798.2204
 00  3 20  1 18 30.0000000  0  8 13 23 17 26 06 24 08 10
  23568604.110    -6784068.936 8  -5056739.84346  23568602.749    23568611.3624
  24689835.068    -1688453.151 7  -1267076.71045  24689836.054    24689849.4434
  22774831.321   -10122223.720 8  -7865875.62046  22774834.209    22774846.8064
  20444455.387   -23016985.691 9 -17906499.71648  20444458.979    20444467.4854
  21000945.584   -21285027.306 9 -16554718.86647  21000946.200    21000954.1774
  22614633.024   -11316177.334 8  -8777239.23846  22614634.023    22614645.3804
  24300864.714    -3642630.200 7  -2823411.54745  24300866.102    24300879.1444
  21508486.973   -18522459.726 9 -14405214.21447  21508486.379    21508496.0194
 00  3 20  1 19  0.0000000  0  8 13 23 17 26 06 24 08 10
  23585787.598    -6693731.054 8  -4986346.72646  23585792.988    23585801.7984
  24675557.268    -1763468.468 7  -1325529.96445  24675561.417    24675573.0484
  22758241.456   -10209396.011 8  -7933801.99346  22758245.636    22758257.6244
  20434095.506   -23071444.411 9 -17948935.00548  20434096.147    20434104.2094
  21003230.052   -21273012.835 9 -16545356.93447  21003232.654    21003240.8144
  22628044.424   -11245709.441 8  -8722329.26046  22628044.445    22628054.8554
  24297830.698    -3658552.668 7  -2835818.56945  24297837.854    24297849.5704
  21520213.630   -18460826.242 9 -14357188.13847  21520214.920    21520224.2924
 00  3 20  1 19 30.0000000  0  8 13 23 17 26 06 24 08 10
  23603038.943    -6603117.458 8  -4915738.77946  23603036.232    23603044.6104
  24661304.188    -1838352.595 7  -1383881.02545  24661309.391    24661323.8904
  22741666.793   -10296495.943 8  -8001671.97646  22741671.035    22741683.6394
  20423835.864   -23125357.358 9 -17990945.03648  20423836.816    20423844.4794
  21005633.617   -21260384.591 9 -16535516.74647  21005635.256    21005643.7434
  22641502.718   -11174987.355 8  -8667221.20646  22641502.806    22641513.9144
  24294905.321    -3673961.734 7  -2847825.57645  24294905.940    24294916.2594
  21531972.578   -18399030.703 9 -14309035.79947  21531974.490    21531984.0214
 00  3 20  1 20  0.0000000  0  8 13 23 17 26 06 24 08 10
  23620326.053    -6512226.432 8  -4844914.61946  23620332.460    23620340.8644
  24647087.387    -1913093.971 7  -1442120.86045  24647086.237    24647101.3094
  22725111.102   -10383511.546 8  -8069476.22846  22725113.446    22725124.8814
  20413681.569   -23178708.969 9 -18032517.65648  20413684.223    20413692.3794
  21008152.564   -21247154.003 9 -16525207.19447  21008152.851    21008160.9394
  22655005.898   -11104022.527 8  -8611924.00346  22655006.637    22655017.7974
  24292072.811    -3688853.992 7  -2859429.84845  24292071.552    24292082.2074
  21543765.101   -18337062.908 9 -14260749.23347  21543766.008    21543776.1114
 00  3 20  1 20 30.0000000  0  8 13 23 17 26 06 24 08 10
  23637677.333    -6421050.191 8  -4773868.24245  23637682.113    23637691.2534
  24632890.857    -1987695.003 7  -1500251.33445  24632889.930    24632903.1734
  22708567.849   -10470442.639 8  -8137214.66046  22708571.002    22708581.8504
  20403640.599   -23231477.712 9 -18073636.10948  20403642.642    20403650.7794
  21010780.280   -21233332.641 9 -16514437.30947  21010783.099    21010791.1924
  22668554.532   -11032815.419 8  -8556438.02646  22668556.719    22668568.3504
  24289332.617    -3703227.726 7  -2870630.08345  24289335.541    24289346.7344
  21555592.632   -18274912.231 9 -14212320.15547  21555593.152    21555602.5864
 00  3 20  1 21  0.0000000  0  8 13 23 17 26 06 24 08 10
  23655072.008    -6329600.911 8  -4702609.08245  23655084.841    23655093.5154
  24618710.296    -2062180.163 7  -1558291.52645  24618717.420    24618728.9154
  22692043.376   -10557294.934 8  -8204891.67146  22692043.915    22692054.0904
  20393711.746   -23283666.161 9 -18114302.37748  20393711.568    20393719.4524
  21013522.720   -21218919.817 9 -16503206.53047  21013525.968    21013534.2814
  22682145.301   -10961379.511 8  -8500773.77546  22682150.492    22682162.7144
  24286689.516    -3717078.686 7  -2881422.97545  24286700.139    24286710.6474
  21567456.069   -18212583.764 9 -14163752.53547  21567454.395    21567463.7414
 00  3 20  1 21 30.0000000  0  8 13 23 17 26 06 24 08 10
  23672531.921    -6237883.564 8  -4631141.03946  23672538.133    23672547.8204
  24604567.691    -2136540.995 7  -1616234.81945  24604564.024    24604577.3874
  22675525.467   -10644063.577 8  -8272503.52546  22675531.660    22675542.9794
  20383891.400   -23335267.674 9 -18154511.28648  20383892.055    20383900.0094
  21016380.523   -21203912.638 9 -16491512.63147  21016381.494    21016390.5594
  22695780.195   -10889728.127 8  -8444941.61546  22695785.719    22695797.0784
  24284164.538    -3730399.181 7  -2891802.51445  24284165.642    24284176.1334
  21579341.077   -18150099.229 9 -14115063.30647  21579344.800    21579353.9954
 00  3 20  1 22  0.0000000  0  8 13 23 17 26 06 24 08 10
  23690048.233    -6145887.533 8  -4559455.87146  23690044.296    23690053.9194
  24590434.333    -2210787.956 7  -1674089.36945  24590435.731    24590450.1334
  22659035.217   -10730748.242 8  -8340049.91346  22659036.497    22659047.6804
  20374183.623   -23386274.251 9 -18194256.61148  20374185.645    20374193.8394
  21019346.908   -21188320.402 9 -16479362.84147  21019348.396    21019357.3874
  22709461.090   -10817845.129 8  -8388928.97446  22709464.846    22709475.3834
  24281719.334    -3743201.387 7  -2901778.17245  24281728.445    24281739.6634
  21591263.859   -18087458.899 9 -14066252.67247  21591264.760    21591273.8954
 00  3 20  1 22 30.0000000  0  8 13 23 17 26 06 24 08 10
  23707601.069    -6053618.469 8  -4487557.92746  23707602.531    23707611.7494
  24576324.797    -2284933.265 7  -1731864.67845  24576323.893    24576339.6504
  22642553.941   -10817357.521 8  -8407537.56746  22642554.414    22642565.9724
  20364586.278   -23436704.124 9 -18233552.55848  20364589.236    20364597.2694
  21022426.103   -21172130.455 9 -16466747.30047  21022429.486    21022437.8754
  22723186.549   -10745727.013 8  -8332733.11046  22723188.763    22723199.3864
  24279388.157    -3755482.061 7  -2911347.47045  24279393.297    24279402.6824
  21603206.391   -18024679.274 9 -14017333.50247  21603210.937    21603219.9254
 00  3 20  1 23  0.0000000  0  8 13 23 17 26 06 24 08 10
  23725211.330    -5961083.751 8  -4415452.96945  23725211.023    23725219.9114
  24562233.358    -2358974.249 7  -1789558.74545  24562236.406    24562250.3714
  22626085.238   -10903887.481 8  -8474963.42846  22626089.243    22626099.7464
  20355098.585   -23486565.380 9 -18272405.42548  20355101.265    20355109.1174
  21025621.851   -21155342.242 9 -16453665.57547  21025624.406    21025632.7794
  22736956.666   -10673366.148 8  -8276348.10346  22736959.272    22736970.0304
  24277154.984    -3767238.579 8  -2920508.35145  24277155.567    24277166.2304
  21615179.936   -17961780.552 9 -13968321.52247  21615180.268    21615189.2704
 00  3 20  1 23 30.0000000  0  8 13 23 17 26 06 24 08 10
  23742871.977    -5868273.149 8  -4343133.03745  23742872.245    23742881.3264
  24548164.683    -2432901.582 7  -1847164.28145  24548169.211    24548182.7814
  22609636.134   -10990337.216 8  -8542326.77446  22609637.580    22609648.4374
  20345723.277   -23535834.163 9 -18310796.62848  20345725.332    20345733.6924
  21028931.469   -21137956.223 9 -16440118.03347  21028932.892    21028941.3274
  22750776.081   -10600747.224 8  -8219762.00846  22750777.560    22750789.0114
  24275014.174    -3778482.078 7  -2929269.45445  24275016.168    24275025.6514
  21627172.420   -17898750.992 9 -13919207.60147  21627174.598    21627183.3314
 00  3 20  1 24  0.0000000  0  8 13 23 17 26 06 24 08 10
  23760583.127    -5775186.897 8  -4270598.32146  23760586.897    23760595.1134
  24534119.750    -2506723.085 7  -1904687.29845  24534120.747    24534135.2444
  22593198.047   -11076712.196 8  -8609631.89046  22593201.272    22593211.9454
  20336459.234   -23584517.440 9 -18348731.58648  20336460.990    20336469.0224
  21032349.523   -21119978.168 9 -16426109.16447  21032353.804    21032362.1534
  22764643.993   -10527863.248 8  -8162969.39146  22764647.259    22764658.7124
  24272972.540    -3789220.916 7  -2937637.31145  24272971.176    24272982.6504
  21639198.357   -17835578.995 9 -13869982.67947  21639196.039    21639204.9244
 00  3 20  1 24 30.0000000  0  8 13 23 17 26 06 24 08 10
  23778353.939    -5681841.201 8  -4197861.45245  23778349.155    23778358.2794
  24520096.796    -2580426.164 8  -1962118.04445  24520094.309    24520109.3594
  22576777.455   -11163003.268 8  -8676871.56746  22576780.821    22576791.0784
  20327306.955   -23632612.442 9 -18386208.15348  20327308.914    20327317.0464
  21035885.899   -21101402.220 9 -16411634.40047  21035888.613    21035897.4704
  22778562.081   -10454717.974 8  -8105973.16246  22778565.588    22778577.1734
  24271025.507    -3799444.692 7  -2945603.81945  24271025.895    24271036.9164
  21651240.081   -17772266.213 9 -13820648.05847  21651244.154    21651253.0144
 00  3 20  1 25  0.0000000  0  8 13 23 17 26 06 24 08 10
  23796158.014    -5588233.599 8  -4124920.48745  23796162.601    23796170.7254
  24506088.074    -2653993.867 7  -2019443.29145  24506095.093    24506109.1344
  22560376.492   -11249202.245 8  -8744039.55046  22560378.188    22560387.5774
  20318268.781   -23680098.477 9 -18423210.21148  20318272.658    20318280.5734
  21039531.937   -21082234.499 9 -16396698.52347  21039535.881    21039544.7594
  22792533.066   -10381309.550 8  -8048771.87146  22792535.360    22792546.8474
  24269176.426    -3809152.171 7  -2953168.06145  24269178.267    24269190.2634
  21663318.331   -17708801.271 9 -13771194.86047  21663320.848    21663329.6884
 00  3 20  1 25 30.0000000  0  8 13 23 17 26 06 24 08 10
  23814024.442    -5494360.944 8  -4051772.99845  23814026.511    23814034.4474
  24492126.263    -2727420.458 7  -2076658.62245  24492124.838    24492135.5084
  22543989.886   -11335310.918 8  -8811137.13246  22543991.745    22544002.0464
  20309350.516   -23726973.560 9 -18459736.19448  20309352.272    20309360.4954
  21043293.242   -21062468.988 9 -16381296.83247  21043297.117    21043306.2604
  22806554.014   -10307643.831 8  -7991370.10546  22806553.557    22806563.9864
  24267429.180    -3818344.682 7  -2960330.98445  24267429.228    24267441.4074
  21675428.509   -17645173.767 8 -13721615.00147  21675428.422    21675437.8694
 00  3 20  1 26  0.0000000  0  8 13 23 17 26 06 24 08 10
  23831938.230    -5400242.563 8  -3978434.02746  23831936.539    23831944.7574
  24478176.400    -2800705.914 7  -2133763.96445  24478177.475    24478190.9284
  22527620.687   -11421315.728 8  -8878153.79146  22527624.255    22527635.3844
  20300539.854   -23773261.192 9 -18495804.42448  20300544.004    20300552.4364
  21047168.912   -21042106.668 9 -16365430.09347  21047172.070    21047180.8394
  22820617.270   -10233731.412 8  -7933776.09346  22820618.260    22820629.9864
  24265781.463    -3827004.413 8  -2967078.75445  24265783.335    24265792.7624
  21687563.990   -17581396.132 9 -13671918.15947  21687564.873    21687573.8234
 00  3 20  1 26 30.0000000  0  8 13 23 17 26 06 24 08 10
  23849884.599    -5305875.467 8  -3904901.26445  23849893.388    23849902.3664
  24464251.401    -2873853.879 7  -2190762.19245  24464257.274    24464271.0914
  22511278.970   -11507209.291 8  -8945083.73746  22511280.594    22511290.1344
  20291845.837   -23818957.578 9 -18531411.94848  20291848.621    20291856.4324
  21051156.897   -21021148.812 9 -16349099.30647  21051159.922    21051168.6734
  22834722.831   -10159591.944 8  -7876005.18446  22834727.057    22834738.2724
  24264234.646    -3835119.316 7  -2973402.02145  24264237.952    24264248.5244
  21699729.721   -17517458.267 9 -13622096.45747  21699732.182    21699740.7234
 00  3 20  1 27  0.0000000  0  8 13 23 17 26 06 24 08 10
  23867902.490    -5211246.464 8  -3831164.41345  23867901.006    23867909.5684
  24450365.116    -2946867.499 8  -2247655.73445  24450363.900    24450378.1554
  22494952.262   -11592995.532 8  -9011930.07546  22494955.935    22494964.8014
  20283260.020   -23864066.861 9 -18566561.99248  20283264.164    20283272.3544
  21055257.137   -20999605.214 9 -16332312.09147  21055259.648    21055268.1184
  22848873.249   -10085236.309 8  -7818065.79846  22848876.168    22848887.6834
  24262794.841    -3842687.763 7  -2979299.43145  24262796.711    24262808.2974
  21711926.807   -17453362.517 9 -13572151.72747  21711929.138    21711938.1554
 00  3 20  1 27 30.0000000  0  8 13 23 17 26 06 24 08 10
  23885958.583    -5116361.463 8  -3757228.07745  23885956.248    23885965.6444
  24436488.745    -3019765.181 7  -2304458.93645  24436489.795    24436504.0394
  22478645.133   -11678667.766 8  -9078687.58146  22478653.074    22478662.2954
  20274785.810   -23908602.047 9 -18601264.68448  20274789.542    20274797.4844
  21059465.681   -20977484.729 9 -16315075.35147  21059469.259    21059477.7354
  22863064.316   -10010675.156 8  -7759966.27546  22863064.918    22863076.0144
  24261450.329    -3849701.386 7  -2984764.50145  24261462.655    24261471.7184
  21724150.365   -17389110.942 8 -13522085.58047  21724155.555    21724164.6734
 00  3 20  1 28  0.0000000  0  8 13 23 17 26 06 24 08 10
  23904060.617    -5021216.866 8  -3683089.47045  23904061.650    23904070.7344
  24422640.039    -3092552.637 7  -2361176.25445  24422640.878    24422653.4674
  22462369.931   -11764224.187 8  -9145354.82646  22462371.841    22462380.8034
  20266423.122   -23952560.503 9 -18635517.97348  20266424.847    20266432.5854
  21063784.460   -20954796.854 9 -16297396.50247  21063786.641    21063795.5244
  22877289.024    -9935909.982 8  -7701707.75446  22877291.997    22877302.8824
  24260229.572    -3856156.427 7  -2989794.36745  24260234.396    24260244.6834
  21736411.657   -17324702.041 9 -13471896.82747  21736412.616    21736421.4824
 00  3 20  1 28 30.0000000  0  8 13 23 17 26 06 24 08 10
  23922215.696    -4925792.276 8  -3608732.67445  23922220.874    23922229.1984
  24408808.919    -3165225.172 8  -2417804.01545  24408810.804    24408822.9684
  22446109.401   -11849675.671 8  -9211940.30946  22446111.435    22446120.4704
  20258171.133   -23995924.524 9 -18669308.06648  20258172.584    20258180.4104
  21068209.141   -20931540.611 9 -16279274.77047  21068212.041    21068220.4044
  22891561.639    -9860919.729 8  -7643273.88946  22891562.736    22891574.1524
  24259104.521    -3862064.557 7  -2994398.04445  24259109.021    24259121.4364
  21748697.926   -17260133.641 9 -13421583.80347  21748699.805    21748708.5494
 00  3 20  1 29  0.0000000  0  8 13 23 17 26 06 24 08 10
  23940431.515    -4830099.398 8  -3534166.83145  23940431.379    23940439.2864
  24394994.344    -3237774.726 8  -2474335.98645  24395005.041    24395018.5194
  22429864.074   -11935035.904 8  -9278454.66446  22429867.296    22429876.0154
  20250031.114   -24038694.560 9 -18702635.32348  20250033.848    20250041.5034
  21072747.914   -20907699.684 9 -16260697.42347  21072749.294    21072757.1564
  22905878.676    -9785672.377 8  -7584639.67246  22905882.090    22905892.4034
  24258088.231    -3867436.400 7  -2998583.83345  24258087.953    24258098.4134
  21761010.372   -17195427.996 9 -13371163.84347  21761013.276    21761021.9434
 00  3 20  1 29 30.0000000  0  8 13 23 17 26 06 24 08 10
  23958690.592    -4734148.704 8  -3459400.08645  23958690.738    23958698.5374
  24381223.367    -3310207.917 8  -2530777.23545  24381221.608    24381234.2864
  22413638.663   -12020308.773 8  -9344900.97546  22413640.958    22413649.6094
  20242008.001   -24080862.148 9 -18735493.12248  20242009.367    20242017.2604
  21077396.908   -20883259.939 9 -16241653.46347  21077399.983    21077408.2254
  22920251.960    -9710147.137 8  -7525788.92446  22920253.303    22920265.2724
  24257167.745    -3872284.513 7  -3002361.51345  24257163.269    24257176.1394
  21773351.221   -17130586.332 9 -13320637.88047  21773352.137    21773361.0134
 00  3 20  1 30  0.0000000  0  8 13 23 17 26 06 24 08 10
  23976999.335    -4637946.714 8  -3384437.52245  23976997.285    23977005.1634
  24367463.350    -3382509.360 8  -2587115.82845  24367463.136    24367475.7044
  22397426.873   -12105501.757 8  -9411285.02546  22397429.419    22397436.8754
  20234099.207   -24122413.894 9 -18767871.06248  20234102.068    20234109.8664
  21082164.474   -20858220.166 9 -16222141.95947  21082164.359    21082173.1064
  22934679.244    -9634333.466 8  -7466713.42346  22934680.452    22934692.0224
  24256332.057    -3876616.556 7  -3005737.07545  24256339.912    24256350.7674
  21785713.539   -17065624.874 9 -13270018.58247  21785713.349    21785722.8514
 00  3 20  1 30 30.0000000  0  8 13 23 17 26 06 24 08 10
  23995338.448    -4541519.307 8  -3309299.31445  23995346.055    23995354.7924
  24353728.569    -3454677.273 8  -2643350.35945  24353728.157    24353742.5294
  22381224.371   -12190625.246 8  -9477614.92346  22381229.693    22381238.7904
  20226311.869   -24163347.440 9 -18799767.29048  20226312.927    20226320.6284
  21087041.335   -20832580.141 9 -16202162.72847  21087043.727    21087052.5614
  22949157.089    -9558236.252 8  -7407416.97746  22949161.709    22949172.9734
  24255616.644    -3880430.019 7  -3008708.56445  24255613.493    24255625.9004
  21798093.114   -17000555.137 8 -13219314.91347  21798095.385    21798105.2844
 00  3 20  1 31  0.0000000  0  8 13 23 17 26 06 24 08 10
  24013727.233    -4444895.310 8  -3234007.90445  24013732.794    24013742.9044
  24340016.520    -3526709.965 8  -2699479.52445  24340022.412    24340035.0694
  22365046.320   -12275660.740 8  -9543876.24946  22365047.925    22365057.0144
  20218637.812   -24203667.988 9 -18831185.85648  20218640.155    20218648.0614
  21092032.197   -20806354.568 9 -16181727.23847  21092034.597    21092042.8044
  22963687.409    -9481879.594 8  -7347918.36546  22963691.167    22963703.1254
  24254987.294    -3883721.925 8  -3011273.62645  24254987.860    24254998.4784
  21810497.315   -16935384.143 9 -13168532.35147  21810497.379    21810506.5494
 00  3 20  1 31 30.0000000  0  8 13 23 17 26 06 24 08 10
  24032146.599    -4348086.045 8  -3158572.15845  24032153.967    24032164.4324
  24326342.514    -3598607.423 8  -2755503.29445  24326339.592    24326352.5324
  22348887.325   -12360579.630 8  -9610046.70447  22348889.049    22348898.6704
  20211081.302   -24243370.966 9 -18862123.18848  20211084.640    20211092.7184
  21097129.425   -20779573.823 9 -16160859.13147  21097131.100    21097138.8464
  22978265.185    -9405290.992 8  -7288239.03046  22978266.864    22978276.7694
  24254469.337    -3886484.755 8  -3013426.40745  24254463.342    24254473.3854
  21822917.353   -16870095.174 9 -13117657.84647  21822921.614    21822930.8524
 00  3 20  1 32  0.0000000  0  8 13 23 17 26 06 24 08 10
  24050606.289    -4251100.449 8  -3082999.01645  24050610.802    24050619.8964
  24312688.666    -3670357.257 8  -2811412.08545  24312686.223    24312698.0224
  22332750.977   -12445375.570 8  -9676121.34847  22332752.027    22332761.6154
  20203645.008   -24282454.082 9 -18892577.51648  20203647.272    20203655.5304
  21102329.670   -20752245.462 9 -16139564.31747  21102331.294    21102339.6654
  22992875.308    -9328488.759 8  -7228393.20146  22992880.153    22992890.9284
  24254038.459    -3888709.911 7  -3015160.25745  24254039.531    24254048.8714
  21835371.555   -16804675.515 9 -13066681.50747  21835370.519    21835379.2794
 00  3 20  1 32 30.0000000  0  8 13 23 17 26 06 24 08 10
  24069095.189    -4153928.440 8  -3007280.62145  24069102.740    24069111.6574
  24299057.071    -3741966.862 8  -2867211.58745  24299060.213    24299072.5894
  22316637.752   -12530036.284 8  -9742090.65847  22316642.410    22316651.8944
  20196324.164   -24320923.949 9 -18922553.98448  20196326.652    20196334.7554
  21107634.715   -20724356.623 9 -16117832.76747  21107637.904    21107646.9564
  23007530.429    -9251474.676 8  -7168382.31246  23007535.921    23007547.7734
  24253712.432    -3890398.266 7  -3016475.78445  24253716.480    24253727.3254
  21847846.035   -16739109.879 9 -13015591.41347  21847847.063    21847856.0904
 00  3 20  1 33  0.0000000  0  8 13 23 17 26 06 24 08 10
  24087639.988    -4056548.949 8  -2931400.50745  24087633.048    24087641.3884
  24285455.010    -3813434.843 7  -2922900.74645  24285459.229    24285472.2874
  22300560.686   -12614539.877 8  -9807937.49947  22300561.928    22300570.7744
  20189118.744   -24358784.841 9 -18952055.91548  20189121.957    20189129.8784
  21113051.562   -20695902.219 9 -16095660.52047  21113052.949    21113061.8324
  23022230.669    -9174240.234 8  -7108199.72546  23022232.970    23022245.4474
  24253498.441    -3891550.515 7  -3017373.57045  24253498.079    24253510.1214
  21860352.925   -16673388.622 8 -12964380.06247  21860353.208    21860362.6514
 00  3 20  1 33 30.0000000  0  8 13 23 17 26 06 24 08 10
  24106195.258    -3958939.709 8  -2855341.37445  24106207.300    24106215.5314
  24271879.058    -3884767.908 7  -2978484.73245  24271884.298    24271897.1404
  22284505.909   -12698906.468 8  -9873677.61847  22284507.453    22284516.4694
  20182033.247   -24396028.574 9 -18981076.94648  20182034.627    20182042.6814
  21118577.345   -20666868.989 9 -16073037.23147  21118577.615    21118586.2414
  23036970.256    -9096773.901 8  -7047836.45346  23036975.067    23036986.9144
  24253384.286    -3892162.159 7  -3017850.09545  24253382.057    24253393.5004
  21872888.271   -16607503.379 8 -12913040.94147  21872890.814    21872900.3384
 00  3 20  1 34  0.0000000  0  8 13 23 17 26 06 24 08 10
  24124829.814    -3861085.396 8  -2779091.25845  24124829.119    24124835.9864
  24258337.971    -3955971.268 8  -3033967.69245  24258334.951    24258347.6744
  22268473.782   -12783159.555 8  -9939329.25847  22268474.561    22268484.0764
  20175061.096   -24432662.161 9 -19009622.55148  20175063.194    20175071.1524
  21124214.797   -20637233.179 9 -16049944.40347  21124217.209    21124225.8884
  23051756.346    -9019061.211 8  -6987281.21846  23051763.895    23051775.4224
  24253367.052    -3892231.626 7  -3017904.18745  24253369.940    24253379.5374
  21885455.777   -16541480.212 8 -12861594.34447  21885454.785    21885463.9724
 00  3 20  1 34 30.0000000  0  8 13 23 17 26 06 24 08 10
  24143480.296    -3762980.146 7  -2702645.65345  24143496.286    24143506.4274
  24244806.961    -4027060.013 8  -3089361.35345  24244808.048    24244819.4614
  22252462.886   -12867301.989 8 -10004894.69847  22252462.494    22252471.8524
  20168201.951   -24468697.727 9 -19037702.16748  20168206.382    20168214.0444
  21129966.169   -20607004.705 9 -16026389.76447  21129969.258    21129978.4754
  23066590.909    -8941097.778 8  -6926530.59046  23066599.533    23066610.9304
  24253463.956    -3891753.021 7  -3017531.21545  24253458.580    24253468.5854
  21898038.985   -16475341.475 8 -12810057.69147  21898040.910    21898049.9024
 00  3 20  1 35  0.0000000  0  8 13 23 17 26 06 24 08 10
  24162206.697    -3664642.899 8  -2626019.26545  24162210.214    24162219.6024
  24231296.487    -4098045.827 8  -3144674.80345  24231298.962    24231311.4514
  22236463.703   -12951342.815 8 -10070380.95947  22236469.335    22236479.3664
  20161461.736   -24504128.382 9 -19065310.42248  20161463.979    20161471.8894
  21135829.603   -20576199.923 9 -16002386.05747  21135831.515    21135839.9634
  23081486.942    -8862886.395 8  -6865586.74746  23081482.701    23081494.5454
  24253648.192    -3890722.012 7  -3016727.76445  24253655.742    24253666.1964
  21910646.777   -16409098.563 9 -12758439.84447  21910646.734    21910655.7344
 00  3 20  1 35 30.0000000  0  8 13 23 17 26 06 24 08 10
  24180956.312    -3566090.275 8  -2549225.03645  24180964.171    24180973.4724
  24217795.812    -4168941.521 8  -3199917.99945  24217807.369    24217818.6604
  22220490.794   -13035295.052 8 -10135798.18947  22220494.532    22220504.9344
  20154834.738   -24538955.442 9 -19092448.34248  20154836.965    20154844.5824
  21141799.557   -20544828.524 9 -15977940.83547  21141801.021    21141809.8214
  23096407.040    -8784429.736 8  -6804451.80246  23096412.828    23096424.9674
  24253963.191    -3889137.191 7  -3015492.80445  24253957.063    24253968.4794
  21923268.136   -16342763.909 8 -12706750.51847  21923269.684    21923278.7884
 00  3 20  1 36  0.0000000  0  8 13 23 17 26 06 24 08 10
  24199754.843    -3467335.010 8  -2472272.89145  24199757.755    24199765.3784
  24204338.640    -4239742.832 8  -3255087.69545  24204334.586    24204346.3414
  22204536.803   -13119147.569 8 -10201137.72147  22204536.926    22204547.6434
  20148319.327   -24573194.284 9 -19119127.92048  20148321.452    20148329.1574
  21147877.018   -20512896.538 9 -15953058.78247  21147877.598    21147886.3444
  23111384.215    -8705739.320 8  -6743134.70446  23111387.128    23111398.5064
  24254364.398    -3886993.566 7  -3013822.43045  24254364.094    24254375.9204
  21935911.122   -16276334.120 8 -12654987.06047  21935910.723    21935920.1024
 00  3 20  1 36 30.0000000  0  8 13 23 17 26 06 24 08 10
  24218585.407    -3368378.012 8  -2395163.55645  24218587.481    24218596.2274
  24190879.238    -4310450.463 7  -3310184.36545  24190879.956    24190890.4874
  22188597.984   -13202884.968 8 -10266387.55547  22188602.441    22188613.0534
  20141916.197   -24606838.839 9 -19145344.41348  20141919.103    20141926.5354
  21154055.925   -20480419.424 9 -15927751.95347  21154057.707    21154066.6054
  23126403.688    -8626827.234 8  -6681644.85346  23126403.420    23126415.6274
  24254878.539    -3884293.086 7  -3011718.08145  24254877.703    24254889.5314
  21948575.227   -16209782.689 8 -12603128.82847  21948575.126    21948584.3434
 00  3 20  1 37  0.0000000  0  8 13 23 17 26 06 24 08 10
  24237455.438    -3269217.307 8  -2317895.48745  24237457.143    24237465.9984
  24177445.853    -4381055.954 8  -3365201.45645  24177443.649    24177454.7234
  22172687.672   -13286497.089 8 -10331539.76447  22172691.354    22172702.1464
  20135627.530   -24639886.397 9 -19171095.71648  20135630.336    20135637.7004
  21160341.360   -20447393.468 9 -15902017.46247  21160342.579    21160351.5154
  23141458.861    -8547692.335 8  -6619981.39546  23141463.033    23141474.3844
  24255495.982    -3881034.964 7  -3009179.26345  24255499.598    24255509.3964
  21961263.105   -16143092.947 8 -12551162.81547  21961265.194    21961274.5784
 00  3 20  1 37 30.0000000  0  8 13 23 17 26 06 24 08 10
  24256361.580    -3169850.527 8  -2240466.84845  24256366.199    24256375.0934
  24164020.372    -4451533.928 7  -3420119.17845  24164030.494    24164044.8494
  22156804.866   -13369972.125 8 -10396585.16247  22156806.334    22156816.8464
  20129451.288   -24672345.984 9 -19196388.85748  20129453.258    20129460.8214
  21166732.615   -20413807.865 9 -15875846.87847  21166733.699    21166742.5994
  23156563.788    -8468339.799 8  -6558148.32846  23156563.306    23156575.0194
  24256226.031    -3877216.587 7  -3006203.87745  24256224.803    24256236.2484
  21973986.700   -16076253.373 8 -12499080.05347  21973984.936    21973994.1664
 00  3 20  1 38  0.0000000  0  8 13 23 17 26 06 24 08 10
  24275305.583    -3070271.881 8  -2162873.12445  24275315.108    24275324.6204
  24150641.309    -4521871.193 7  -3474927.23545  24150645.502    24150659.6774
  22140946.513   -13453300.347 8 -10461516.17747  22140949.155    22140959.7824
  20123386.988   -24704207.532 9 -19221216.00148  20123390.399    20123397.7834
  21173230.791   -20379653.966 9 -15849233.47047  21173233.089    21173241.6954
  23171699.560    -8388770.991 8  -6496146.78846  23171704.557    23171716.6474
  24257056.763    -3872842.161 7  -3002795.19745  24257057.717    24257068.8774
  21986729.736   -16009256.624 8 -12446874.81147  21986734.127    21986743.2554
 00  3 20  1 38 30.0000000  0  8 13 23 17 26 06 24 08 10
  24294297.077    -2970497.251 8  -2085126.68345  24294301.358    24294311.9204
  24137289.945    -4592070.499 8  -3529627.84245  24137288.691    24137298.9174
  22125121.030   -13536466.251 8 -10526320.69847  22125123.836    22125134.0314
  20117441.607   -24735454.712 9 -19245564.42048  20117444.293    20117451.7484
  21179838.966   -20344934.505 9 -15822179.35847  21179839.955    21179848.3004
  23186887.801    -8308966.770 8  -6433961.79846  23186890.450    23186902.9594
  24257995.754    -3867921.896 7  -2998961.21145  24257993.621    24258004.0564
  21999512.033   -15942113.863 9 -12394555.78947  21999510.551    21999520.4424
 00  3 20  1 39  0.0000000  0  8 13 23 17 26 06 24 08 10
  24313321.861    -2870551.970 8  -2007247.26145  24313320.079    24313329.3814
  24123959.189    -4662121.035 8  -3584212.53045  24123957.736    24123968.9154
  22109326.836   -13619467.582 8 -10590996.98947  22109328.829    22109339.5834
  20111613.323   -24766079.642 9 -19269427.96448  20111616.223    20111623.6664
  21186554.958   -20309640.066 9 -15794677.21347  21186556.477    21186564.3054
  23202120.743    -8228915.009 8  -6371583.91646  23202123.289    23202137.1334
  24259028.997    -3862466.754 7  -2994710.41045  24259032.574    24259042.7664
  22012312.448   -15874848.024 8 -12342140.87547  22012311.019    22012320.6454
 00  3 20  1 39 30.0000000  0  8 13 23 17 26 06 24 08 10
  24332364.910    -2770439.142 8  -1929237.28645  24332371.374    24332380.1774
  24110655.429    -4732024.171 8  -3638682.35445  24110656.433    24110667.0084
  22093563.447   -13702307.911 8 -10655547.81847  22093564.969    22093575.0534
  20105905.534   -24796066.196 9 -19292794.07148  20105909.991    20105917.5654
  21193381.395   -20273767.246 9 -15766724.37447  21193382.829    21193391.2314
  23217402.387    -8148615.391 8  -6309012.90046  23217404.845    23217416.2794
  24260166.583    -3856496.181 7  -2990057.95645  24260167.564    24260178.3364
  22025128.536   -15807469.524 8 -12289638.16347  22025132.646    22025142.7944
 00  3 20  1 40  0.0000000  0  8 13 23 17 26 06 24 08 10
  24351457.072    -2670148.659 8  -1851088.88045  24351455.645    24351465.7454
  24097376.860    -4801790.917 8  -3693045.85445  24097379.085    24097390.2904
  22077831.006   -13784984.639 8 -10719971.17247  22077832.209    22077842.1554
  20100326.565   -24825396.699 9 -19315648.96648  20100328.774    20100336.2374
  21200312.764   -20237331.937 9 -15738333.24047  21200315.812    21200325.1564
  23232730.975    -8068062.219 8  -6246244.30546  23232733.950    23232745.9144
  24261410.501    -3850017.530 7  -2985009.60445  24261401.437    24261410.7434
  22037970.456   -15739985.613 8 -12237053.32347  22037974.256    22037983.7134
 00  3 20  1 40 30.0000000  0  8 13 23 17 26 06 24 08 10
  24370575.681    -2569690.533 8  -1772809.85045  24370572.882    24370581.9064
  24084125.724    -4871419.899 8  -3747302.04245  24084129.292    24084141.7304
  22062128.490   -13867495.094 8 -10784264.96347  22062131.159    22062140.6734
  20094872.236   -24854063.690 9 -19337986.84548  20094873.559    20094880.7374
  21207351.762   -20200340.845 9 -15709509.03747  21207354.729    21207363.9384
  23248108.069    -7987263.992 8  -6183284.75046  23248109.336    23248120.6644
  24262732.942    -3843032.330 7  -2979566.55645  24262732.114    24262741.3034
  22050835.750   -15672399.287 9 -12184388.66647  22050836.600    22050845.0644
 00  3 20  1 41  0.0000000  0  8 13 23 17 26 06 24 08 10
  24389723.750    -2469051.951 8  -1694390.17145  24389724.003    24389732.7884
  24070904.272    -4940906.894 8  -3801447.57345  24070906.632    24070919.2384
  22046457.249   -13949855.324 8 -10848441.69847  22046458.249    22046467.8644
  20089541.306   -24882071.931 9 -19359811.41148  20089543.158    20089550.8114
  21214496.334   -20162799.624 9 -15680256.16347  21214499.651    21214507.4884
  23263526.159    -7906237.434 8  -6120147.26846  23263527.492    23263540.0574
  24264157.732    -3835525.649 7  -2973717.18245  24264159.911    24264168.7504
  22063718.966   -15604708.640 8 -12131642.72447  22063717.464    22063726.0894
 00  3 20  1 41 30.0000000  0  8 13 23 17 26 06 24 08 10
  24408911.763    -2368214.431 8  -1615815.49345  24408913.356    24408922.1654
  24057712.488    -5010259.550 8  -3855488.42345  24057708.932    24057721.1724
  22030812.606   -14032060.389 8 -10912497.52247  22030815.791    22030825.6374
  20084334.538   -24909436.360 9 -19381134.30948  20084336.087    20084343.9704
  21221742.840   -20124718.068 9 -15650582.22547  21221746.281    21221754.5464
  23278987.266    -7824989.690 8  -6056837.45846  23278989.094    23279000.7584
  24265687.918    -3827470.378 7  -2967440.27545  24265691.724    24265702.2424
  22076617.477   -15536901.120 8 -12078805.71747  22076620.441    22076629.2804
 00  3 20  1 42  0.0000000  0  8 13 23 17 26 06 24 08 10
  24428127.834    -2267198.339 8  -1537101.68145  24428135.401    24428144.5994
  24044531.020    -5079481.804 8  -3909427.67945  24044534.926    24044548.1654
  22015198.342   -14114104.237 8 -10976427.71647  22015202.729    22015212.9154
  20079243.700   -24936177.997 9 -19401971.91648  20079247.256    20079255.0734
  21229090.021   -20086097.029 9 -15620487.92847  21229095.051    21229103.9034
  23294487.972    -7743524.339 8  -5993358.07746  23294491.333    23294503.6044
  24267332.951    -3818842.320 7  -2960717.08445  24267332.248    24267344.3134
  22089546.111   -15468975.510 8 -12025876.70047  22089546.307    22089555.5284
 00  3 20  1 42 30.0000000  0  8 13 23 17 26 06 24 08 10
  24447381.822    -2166013.945 8  -1458256.72445  24447389.962    24447399.8114
  24031380.330    -5148589.334 8  -3963277.52645  24031384.498    24031396.6524
  21999617.939   -14195993.522 8 -11040237.46947  21999619.829    21999629.2914
  20074269.396   -24962316.170 9 -19422339.28648  20074273.447    20074281.2764
  21236546.947   -20046925.571 9 -15589964.73847  21236549.244    21236557.8544
  23310033.653    -7661839.729 8  -5929707.84246  23310035.932    23310048.4624
  24269079.295    -3809630.808 7  -2953539.21745  24269084.146    24269096.3114
  22102493.061   -15400940.966 9 -11972862.79047  22102493.184    22102501.8694
 00  3 20  1 43  0.0000000  0  8 13 23 17 26 06 24 08 10
  24466676.421    -2064657.222 8  -1379277.47445  24466677.265    24466687.6894
  24018243.083    -5217591.638 8  -4017045.36945  24018254.365    24018265.4834
  21984065.353   -14277729.510 9 -11103927.79447  21984066.766    21984074.6284
  20069409.515   -24987868.807 9 -19442250.39248  20069410.669    20069418.4984
  21244105.393   -20007206.350 9 -15559014.70947  21244107.944    21244116.2954
  23325625.051    -7579926.699 8  -5865879.63346  23325623.510    23325635.9984
  24270946.652    -3799827.529 7  -2945900.24545  24270950.610    24270960.3394
  22115462.120   -15332797.277 8 -11919763.82747  22115460.059    22115469.3564
 00  3 20  1 43 30.0000000  0  8 13 23 17 26 06 24 08 10
  24485992.823    -1963131.843 8  -1300166.82345  24485997.211    24486006.6814
  24005142.842    -5286496.671 8  -4070737.44745  24005142.359    24005153.1384
  21968541.091   -14359310.559 9 -11167497.38647  21968542.418    21968550.7554
  20064656.631   -25012834.381 9 -19461704.04048  20064660.015    20064667.8874
  21251768.640   -19966931.313 9 -15527631.58147  21251770.981    21251780.7224
  23341249.437    -7497790.302 8  -5801877.33646  23341253.898    23341265.0984
  24272926.460    -3789454.372 7  -2937817.22645  24272924.078    24272936.2364
  22128442.667   -15264553.181 8 -11866586.62647  22128446.496    22128455.9894
 00  3 20  1 44  0.0000000  0  8 13 23 17 26 06 24 08 10
  24505340.746    -1861447.952 8  -1220932.66345  24505347.234    24505355.2724
  23992045.691    -5355303.956 8  -4124353.35545  23992048.332    23992060.3114
  21953041.386   -14440751.441 9 -11230957.74647  21953044.088    21953053.0634
  20060021.475   -25037198.262 9 -19480688.85748  20060023.784    20060031.2174
  21259538.298   -19926097.848 9 -15495813.33347  21259541.556    21259550.6894
  23356926.365    -7415427.637 8  -5737698.74946  23356926.010    23356938.1364
  24275000.781    -3778529.976 7  -2929304.67245  24275004.218    24275015.0324
  22141450.605   -15196215.786 8 -11813336.74947  22141450.579    22141460.3534
 00  3 20  1 44 30.0000000  0  8 13 23 17 26 06 24 08 10
  24524736.512    -1759585.660 7  -1141559.43645  24524730.985    24524739.0504
  23978975.235    -5424001.529 8  -4177883.76845  23978974.885    23978986.8554
  21937568.569   -14522060.634 8 -11294315.49647  21937571.305    21937580.0764
  20055503.235   -25060943.157 9 -19499191.33548  20055504.776    20055512.3434
  21267418.374   -19884709.837 9 -15463562.94847  21267418.010    21267426.5334
  23372639.466    -7332833.230 8  -5673339.58946  23372643.264    23372655.8754
  24277183.704    -3767063.927 7  -2920370.08445  24277187.062    24277197.6774
  22154472.411   -15127774.879 8 -11760006.21647  22154474.446    22154484.0034
 00  3 20  1 45  0.0000000  0  8 13 23 17 26 06 24 08 10
  24544139.771    -1657551.151 7  -1062052.04145  24544147.172    24544154.8554
  23965927.816    -5492564.622 8  -4231309.39545  23965929.059    23965939.3434
  21922121.504   -14603240.343 9 -11357572.31947  21922123.428    21922132.2764
  20051102.642   -25084062.104 9 -19517206.05848  20051105.663    20051113.2844
  21275397.331   -19842771.352 9 -15430883.62747  21275398.787    21275407.7604
  23388404.892    -7250015.450 8  -5608806.35146  23388403.752    23388415.3074
  24279470.117    -3755060.005 7  -2911016.32945  24279470.430    24279480.7064
  22167517.608   -15059224.682 8 -11706590.50347  22167519.150    22167528.2734
 00  3 20  1 45 30.0000000  0  8 13 23 17 26 06 24 08 10
  24563587.005    -1555347.654 7   -982412.93945  24563595.370    24563604.3194
  23952901.530    -5560993.031 8  -4284630.07746  23952907.120    23952918.2114
  21906702.150   -14684286.102 9 -11420724.80047  21906701.405    21906709.1464
  20046825.507   -25106544.203 9 -19534724.53248  20046827.461    20046835.0094
  21283482.354   -19800280.402 9 -15397773.82147  21283484.613    21283493.0954
  23404202.411    -7166975.859 8  -5544100.29646  23404206.408    23404218.8884
  24281853.902    -3742519.127 7  -2901244.16745  24281855.952    24281869.3634
  22180578.524   -14990563.702 8 -11653088.45647  22180584.337    22180594.0984
 00  3 20  1 46  0.0000000  0  8 13 23 17 26 06 24 08 10
  24583081.953    -1452978.879 8   -902645.04445  24583076.168    24583085.2194
  23939907.917    -5629283.478 8  -4337843.26346  23939910.535    23939922.5524
  21891300.752   -14765186.173 9 -11483763.76047  21891306.184    21891314.2634
  20042666.815   -25128396.499 9 -19551752.25848  20042668.916    20042676.4984
  21291672.130   -19757247.372 9 -15364241.60247  21291673.847    21291682.5464
  23420047.688    -7083696.550 8  -5479207.45246  23420053.125    23420065.7604
  24284345.182    -3729425.558 7  -2891041.32745  24284349.098    24284360.1014
  22193670.747   -14921776.201 8 -11599487.83647  22193674.558    22193684.2194
 00  3 20  1 46 30.0000000  0  8 13 23 17 26 06 24 08 10
  24602587.374    -1350450.296 7   -822752.63345  24602587.303    24602595.4674
  23926935.728    -5697448.589 8  -4390958.76245  23926939.344    23926950.1384
  21875940.359   -14845920.491 8 -11546673.55647  21875942.030    21875951.7234
  20038626.128   -25149625.326 9 -19568294.15448  20038629.224    20038636.9674
  21299959.382   -19713682.665 9 -15330295.10847  21299963.883    21299972.2994
  23435937.884    -7000194.105 8  -5414140.73246  23435942.499    23435956.1594
  24286948.543    -3715775.003 7  -2880404.48445  24286945.384    24286957.7104
  22206789.960   -14852864.080 8 -11545790.10247  22206788.658    22206797.5584
 00  3 20  1 47  0.0000000  0  8 13 23 17 26 06 24 08 10
  24622120.246    -1247783.822 7   -742752.77745  24622123.377    24622132.8834
  23913995.041    -5765501.628 8  -4443986.96746  23913990.302    23914000.3734
  21860613.008   -14926465.500 8 -11609435.82247  21860614.834    21860624.8554
  20034703.530   -25170243.046 9 -19584359.87248  20034705.709    20034713.4304
  21308351.339   -19669598.289 9 -15295943.65447  21308353.204    21308360.7854
  23451862.512    -6916481.933 8  -5348910.60346  23451872.411    23451885.1104
  24289654.228    -3701564.188 7  -2869331.06945  24289650.815    24289660.6374
  22219919.944   -14783852.185 8 -11492014.62047  22219920.668    22219929.7714
 00  3 20  1 47 30.0000000  0  8 13 23 17 26 06 24 08 10
  24641667.563    -1144985.755 7   -662650.37745  24641685.404    24641693.8614
  23901061.163    -5833460.353 8  -4496941.68346  23901059.115    23901069.0444
  21845320.947   -15006809.350 8 -11672041.36147  21845326.136    21845335.4664
  20030896.468   -25190251.590 9 -19599950.90748  20030898.315    20030905.7194
  21316835.074   -19625003.624 9 -15261194.59047  21316838.636    21316847.1354
  23467845.265    -6832552.857 8  -5283511.42146  23467845.081    23467856.4634
  24292454.817    -3686803.126 7  -2857828.91645  24292458.696    24292469.4174
  22233071.024   -14714740.720 8 -11438161.56847  22233072.513    22233082.1144
 00  3 20  1 48  0.0000000  0  8 13 23 17 26 06 24 08 10
  24661273.224    -1042062.468 7   -582450.42445  24661271.487    24661281.0624
  23888140.331    -5901317.203 8  -4549817.01646  23888144.440    23888155.1304
  21830073.687   -15086952.204 8 -11734490.28147  21830075.395    21830084.9494
  20027203.457   -25209662.906 9 -19615076.57848  20027204.662    20027211.9374
  21325417.986   -19579900.808 9 -15226049.56847  21325421.149    21325429.8004
  23483853.489    -6748412.661 8  -5217947.73646  23483856.249    23483868.2854
  24295371.846    -3671497.459 7  -2845902.37945  24295372.269    24295382.1154
  22246239.253   -14645538.486 8 -11384237.78447  22246241.483    22246251.2524
 00  3 20  1 48 30.0000000  0  8 13 23 17 26 06 24 08 10
  24680878.071     -939022.916 7   -502159.89445  24680879.539    24680888.4154
  23875246.409    -5969067.497 8  -4602609.31046  23875251.184    23875264.2524
  21814860.378   -15166897.963 8 -11796785.62347  21814861.674    21814871.0894
  20023623.017   -25228464.865 9 -19629727.42048  20023626.677    20023634.2724
  21334098.589   -19534284.301 9 -15190504.26447  21334102.207    21334110.7394
  23499897.525    -6664073.906 8  -5152229.35946  23499904.671    23499917.9384
  24298387.622    -3655652.973 7  -2833555.99345  24298386.590    24298397.8124
  22259424.827   -14576255.554 8 -11330251.10947  22259425.319    22259434.1904
 00  3 20  1 49  0.0000000  0  8 13 23 17 26 06 24 08 10
  24700505.850     -835866.260 7   -421778.05545  24700508.555    24700518.4514
  23862386.028    -6036683.855 8  -4655297.22646  23862385.784    23862397.4624
  21799679.941   -15246660.261 8 -11858937.97747  21799683.259    21799692.9734
  20020163.257   -25246653.488 9 -19643900.33448  20020165.123    20020172.9924
  21342881.221   -19488142.339 9 -15154549.51847  21342882.134    21342890.8734
  23515992.421    -6579513.021 8  -5086337.91046  23515996.700    23516009.1454
  24301498.937    -3639276.271 7  -2820794.85445  24301502.809    24301513.9154
  22272625.586   -14506889.373 8 -11276199.55947  22272625.175    22272634.2094
 00  3 20  1 49 30.0000000  0  8 13 23 17 26 06 24 08 10
  24720162.431     -732577.770 7   -341293.51645  24720164.159    24720173.0254
  23849539.996    -6104156.845 8  -4707873.47546  23849545.141    23849556.5454
  21784536.093   -15326252.749 8 -11920958.03547  21784537.736    21784547.3314
  20016820.812   -25264213.643 9 -19657583.54048  20016823.819    20016831.1384
  21351761.787   -19441462.060 9 -15118175.29947  21351764.978    21351773.4414
  23532126.791    -6494720.352 8  -5020265.81346  23532132.591    23532144.3044
  24304713.625    -3622370.564 7  -2807621.56045  24304719.490    24304730.7434
  22285842.094   -14437429.896 8 -11222075.32747  22285843.430    22285851.8804
 00  3 20  1 50  0.0000000  0  8 13 23 17 26 06 24 08 10
  24739843.936     -629155.289 7   -260704.56345  24739844.669    24739854.5794
  23836738.139    -6171475.111 8  -4760329.14046  23836734.395    23836746.4194
  21769420.045   -15405675.786 8 -11982846.04847  21769423.768    21769433.6304
  20013603.405   -25281130.808 9 -19670765.71448  20013604.737    20013612.1344
  21360747.399   -19394235.493 9 -15081375.40247  21360752.033    21360761.0424
  23548311.447    -6409706.621 8  -4954021.46646  23548310.533    23548323.0164
  24308042.895    -3604918.240 7  -2794022.25845  24308041.624    24308051.0604
  22299078.094   -14367878.098 9 -11167879.14147  22299078.901    22299087.3474
 00  3 20  1 50 30.0000000  0  8 13 23 17 26 06 24 08 10
  24759549.516     -525593.897 8   -180007.38345  24759552.107    24759560.6154
  23823951.386    -6238636.637 8  -4812662.68146  23823953.415    23823965.7714
  21754340.038   -15484924.664 9 -12044598.36447  21754342.910    21754352.1594
  20010507.039   -25297388.370 9 -19683433.90748  20010510.997    20010518.5444
  21369841.938   -19346465.277 9 -15044151.87447  21369842.600    21369852.0694
  23564529.626    -6324472.500 8  -4887605.39946  23564531.085    23564542.0964
  24311465.952    -3586906.348 7  -2779986.99845  24311468.048    24311478.3894
  22312332.555   -14298231.124 8 -11113608.79447  22312331.914    22312340.8204
 00  3 20  1 51  0.0000000  0  8 13 23 17 26 06 24 08 10
  24779284.775     -421880.502 8    -99191.77345  24779287.357    24779297.4934
  23811203.883    -6305640.031 8  -4864872.99046  23811203.872    23811215.1794
  21739290.078   -15563994.913 8 -12106211.48947  21739296.048    21739305.8684
  20007536.900   -25313002.102 9 -19695600.42148  20007539.425    20007546.8334
  21379035.168   -19298152.885 9 -15006505.89147  21379036.048    21379044.9574
  23580792.375    -6239026.237 8  -4821023.98646  23580790.004    23580801.8344
  24315009.820    -3568324.226 7  -2765507.39845  24315005.910    24315015.4034
  22325598.144   -14228489.034 8 -11059264.32946  22325602.921    22325612.3644
 00  3 20  1 51 30.0000000  0  8 13 23 17 26 06 24 08 10
  24799061.381     -318020.356 7    -18261.79345  24799051.434    24799060.8224
  23798479.086    -6372505.180 8  -4916975.60346  23798480.449    23798492.0184
  21724282.407   -15642876.026 8 -12167677.21847  21724285.664    21724295.2604
  20004687.937   -25327978.696 9 -19707270.46248  20004689.569    20004697.2244
  21388327.872   -19249311.413 9 -14968447.63447  21388331.137    21388339.5144
  23597077.630    -6153380.279 8  -4754286.99246  23597087.688    23597099.2654
  24318654.981    -3549167.179 7  -2750579.82245  24318650.778    24318660.9514
  22338890.466   -14158641.548 8 -11004837.74946  22338894.590    22338903.1754
 00  3 20  1 52  0.0000000  0  8 13 23 17 26 06 24 08 10
  24818841.775     -214017.410 7     62779.46745  24818842.389    24818852.2954
  23785776.970    -6439236.728 8  -4968974.07146  23785781.065    23785792.9784
  21709307.992   -15721569.752 9 -12228996.94447  21709310.875    21709320.1534
  20001956.713   -25342331.655 9 -19718454.55648  20001958.184    20001965.8884
  21397721.893   -19199941.751 9 -14929977.80347  21397725.534    21397734.3854
  23613423.559    -6067534.953 8  -4687394.66246  23613423.584    23613436.1364
  24322399.410    -3529440.311 7  -2735208.14645  24322404.514    24322412.8664
  22352207.898   -14088692.306 8 -10950331.87046  22352205.067    22352214.8414
 00  3 20  1 52 30.0000000  0  8 13 23 17 26 06 24 08 10
  24838646.683     -109867.289 7    143935.39645  24838661.482    24838671.6324
  23773105.034    -6505837.418 8  -5020870.60446  23773107.226    23773118.3744
  21694368.501   -15800080.729 9 -12290174.25447  21694370.597    21694379.9034
  19999340.396   -25356075.218 9 -19729163.80048  19999343.088    19999350.4914
  21407215.835   -19150049.738 9 -14891100.95047  21407219.208    21407228.1784
  23629794.988    -5981480.709 8  -4620339.53546  23629799.989    23629811.5984
  24326253.190    -3509158.234 7  -2719403.86545  24326262.879    24326272.7374
  22365527.778   -14018640.620 8 -10895746.17446  22365535.878    22365545.1384
 00  3 20  1 53  0.0000000  0  8 13 23 17 26 06 24 08 10
  24858496.093       -5583.673 7    225195.36345  24858506.176    24858515.3864
  23760455.573    -6572317.978 8  -5072673.50946  23760455.932    23760467.2854
  21679463.821   -15878403.679 9 -12351205.06547  21679466.277    21679475.5114
  19996842.556   -25369213.541 9 -19739401.42848  19996843.039    19996850.1004
  21416808.039   -19099641.694 9 -14851821.98747  21416811.848    21416820.4244
  23646209.736    -5895204.851 8  -4553111.68946  23646217.742    23646228.2104
  24330223.779    -3488330.411 7  -2703174.33445  24330226.692    24330235.6554
  22378885.245   -13948490.513 8 -10841083.79946  22378885.281    22378894.1814
 00  3 20  1 53 30.0000000  0  7 13 23 17 26 06 24 10
  24878368.020       98819.344 7    306548.39045  24878372.846    24878380.9794
  23747827.103    -6638692.598 8  -5124393.85646  23747825.447    23747837.0234
  21664595.707   -15956539.142 9 -12412089.78147  21664597.960    21664606.8114
  19994457.075   -25381734.027 9 -19749157.62348  19994460.436    19994467.6504
  21426498.042   -19048726.314 9 -14812147.69047  21426500.802    21426509.3874
  23662679.294    -5808691.015 8  -4485698.43345  23662680.074    23662692.0224
  22392250.675   -13878248.904 8 -10786350.10746  22392251.670    22392260.9804
 00  3 20  1 54  0.0000000  0  7 13 23 17 26 06 24 10
  24898252.577      203350.633 7    388001.35545  24898265.096    24898274.8114
  23735212.518    -6704966.022 8  -5176035.39646  23735214.513    23735225.1474
  21649763.238   -16034484.807 9 -12472826.62047  21649765.377    21649774.6434
  19992192.199   -25393636.898 9 -19758432.56048  19992195.148    19992202.3684
  21436282.524   -18997304.942 9 -14772079.11447  21436285.723    21436294.9604
  23679183.850    -5721946.884 8  -4418105.73145  23679185.994    23679200.4304
  22405636.089   -13807929.175 8 -10731555.54346  22405633.924    22405642.5384
 00  3 20  1 54 30.0000000  0  7 13 23 17 26 06 24 10
  24918179.568      307994.474 7    469541.96845  24918177.633    24918188.5644
  23722615.917    -6771142.270 8  -5227601.18146  23722620.631    23722631.9664
  21634969.269   -16112230.464 9 -12533407.58447  21634970.836    21634980.3284
  19990044.706   -25404915.973 9 -19767221.42548  19990048.773    19990056.2284
  21446159.369   -18945400.955 9 -14731634.49147  21446162.550    21446172.2334
  23695735.833    -5634973.235 8  -4350334.17145  23695736.652    23695751.7844
  22419029.475   -13737521.651 8 -10676692.54946  22419031.635    22419040.2354
 00  3 20  1 55  0.0000000  0  7 13 23 17 26 06 24 10
  24938109.187      412739.879 7    551161.73845  24938110.573    24938120.4404
  23710045.366    -6837230.396 8  -5279098.32146  23710045.781    23710054.8124
  21620212.692   -16189767.295 9 -12593825.83247  21620215.907    21620225.4214
  19988017.699   -25415577.575 9 -19775529.14048  19988020.193    19988027.4384
  21456126.271   -18893027.777 9 -14690824.27047  21456129.013    21456138.1174
  23712326.964    -5547779.350 8  -4282391.03145  23712330.249    23712343.8824
  22432446.833   -13667025.174 8 -10621760.26246  22432446.478    22432455.3924
 00  3 20  1 55 30.0000000  0  6 23 17 26 06 24 10
  23697481.164    -6903228.520 8  -5330525.32846  23697485.904    23697496.1844
  21605499.591   -16267094.019 9 -12654080.36747  21605501.719    21605510.3384
  19986106.782   -25425623.494 9 -19783357.10348  19986108.478    19986115.8494
  21466182.811   -18840184.060 9 -14649647.37547  21466185.005    21466194.0644
  23728955.958    -5460384.858 8  -4214291.56445  23728961.301    23728973.2184
  22445879.506   -13596426.560 8 -10566748.37746  22445880.903    22445889.3294
 00  3 20  1 56  0.0000000  0  6 23 17 26 06 24 10
  23684945.547    -6969120.121 8  -5381869.32646  23684947.061    23684957.0224
  21590825.573   -16344199.981 9 -12714162.87047  21590828.636    21590837.0444
  19984311.606   -25435050.782 9 -19790703.01448  19984314.513    19984321.7814
  21476328.483   -18786866.797 9 -14608101.48447  21476330.878    21476340.0354
  23745618.557    -5372803.151 7  -4146046.22645  23745625.949    23745639.4034
  22459334.173   -13525708.251 8 -10511643.22546  22459337.958    22459347.0944
 00  3 20  1 56 30.0000000  0  6 23 17 26 06 24 10
  23672432.212    -7034892.053 8  -5433120.05846  23672431.169    23672443.0544
  21576193.667   -16421080.265 9 -12774069.52247  21576198.396    21576207.1514
  19982635.103   -25443859.953 9 -19797567.26748  19982638.000    19982645.3084
  21486564.301   -18733074.668 9 -14566185.57347  21486567.555    21486576.5434
  23762319.325    -5285035.606 8  -4077656.07945  23762329.043    23762340.9314
  22472818.709   -13454865.621 8 -10456441.20846  22472819.184    22472828.9894
 00  3 20  1 57  0.0000000  0  6 23 17 26 06 24 10
  23659938.642    -7100539.031 8  -5484273.42846  23659939.424    23659950.3924
  21561612.010   -16497732.567 9 -12833798.52047  21561611.668    21561620.7414
  19981077.393   -25452050.727 9 -19803949.66448  19981079.265    19981086.6194
  21496894.659   -18678783.558 9 -14523880.84547  21496899.009    21496907.6944
  23779071.721    -5197089.682 8  -4009126.91745  23779065.013    23779078.1914
  22486318.004   -13383903.585 8 -10401146.15646  22486323.041    22486332.6524
 00  3 20  1 57 30.0000000  0  6 23 17 26 06 24 10
  23647472.347    -7166052.021 8  -5535322.40446  23647473.115    23647482.8704
  21547062.590   -16574164.118 9 -12893355.51247  21547067.663    21547076.6464
  19979637.819   -25459614.593 9 -19809843.57148  19979640.047    19979647.1814
  21507327.215   -18623974.709 9 -14481172.68447  21507328.842    21507337.1674
  23795828.836    -5108958.827 8  -3940453.64945  23795835.195    23795848.7274
  22499851.634   -13312826.816 8 -10345761.69046  22499848.265    22499857.9274
 00  3 20  1 58  0.0000000  0  6 23 17 26 06 24 10
  23635030.560    -7231423.701 8  -5586261.26346  23635032.414    23635042.2064
  21532562.064   -16650380.491 9 -12952744.82847  21532564.346    21532573.1934
  19978314.910   -25466557.297 9 -19815253.44948  19978318.916    19978326.4494
  21517852.785   -18568655.126 9 -14438066.55047  21517855.618    21517863.6714
  23812643.840    -5020636.923 8  -3871631.52345  23812642.249    23812656.3224
  22513389.332   -13241657.702 8 -10290305.26846  22513391.151    22513401.7624
 00  3 20  1 58 30.0000000  0  6 23 17 26 06 24 10
  23622618.781    -7296664.587 8  -5637098.20446  23622617.241    23622627.2664
  21518096.442   -16726390.647 9 -13011973.46547  21518099.604    21518108.5494
  19977114.808   -25472881.681 9 -19820181.51748  19977115.457    19977122.6494
  21528477.648   -18512822.060 9 -14394560.29647  21528479.902    21528488.7174
  23829481.544    -4932111.612 8  -3802650.91645  23829488.135    23829501.9284
  22526944.853   -13170423.272 8 -10234797.94546  22526946.854    22526956.5744
 00  3 20  1 59  0.0000000  0  6 23 17 26 06 24 10
  23610222.973    -7361771.664 8  -5687830.92846  23610228.828    23610238.9244
  21503673.796   -16802195.240 9 -13071041.92147  21503675.134    21503683.4394
  19976028.476   -25478571.350 9 -19824614.99948  19976032.400    19976040.0194
  21539200.625   -18456473.597 9 -14350652.43647  21539202.497    21539212.1074
  23846373.717    -4843364.879 8  -3733497.72145  23846376.085    23846388.7004
  22540512.303   -13099131.082 8 -10179245.62646  22540513.122    22540523.0944
 00  3 20  1 59 30.0000000  0  6 23 17 26 06 24 10
  23597867.615    -7426741.735 8  -5738456.85946  23597865.435    23597874.7624
  21489288.812   -16877784.909 9 -13129942.90547  21489290.535    21489298.7534
  19975067.203   -25483631.006 9 -19828557.56048  19975069.686    19975077.2784
  21550018.975   -18399630.561 9 -14306359.19747  21550019.753    21550029.2574
  23863312.690    -4754387.894 8  -3664165.16845  23863308.718    23863321.1844
  22554086.553   -13027794.958 8 -10123659.06046  22554088.274    22554097.7504
 00  3 20  2  0  0.0000000  0  6 23 17 26 06 24 10
  23585529.018    -7491570.491 8  -5788972.66446  23585528.076    23585538.1004
  21474948.220   -16953146.992 9 -13188666.53847  21474949.428    21474958.0604
  19974222.591   -25488061.440 9 -19832009.82248  19974226.226    19974233.7814
  21560926.757   -18342304.751 9 -14261689.77847  21560928.609    21560937.8834
  23880278.516    -4665187.582 8  -3594658.53745  23880283.584    23880295.7714
  22567675.321   -12956410.853 8 -10068035.10546  22567672.653    22567681.6184
 00  3 20  2  0 30.0000000  0  6 23 17 26 06 24 10
  23573218.576    -7556264.251 8  -5839383.26646  23573217.222    23573226.2674
  21460651.468   -17028274.383 9 -13247207.29647  21460653.174    21460661.8984
  19973498.372   -25491869.164 9 -19834976.85648  19973502.055    19973509.2994
  21571925.717   -18284491.348 9 -14216640.40947  21571929.989    21571939.3714
  23897304.224    -4575755.053 8  -3524971.00845  23897302.572    23897315.5224
  22581266.929   -12884961.641 8 -10012360.42746  22581268.969    22581278.8504
 00  3 20  2  1  0.0000000  0  6 23 17 26 06 24 10
  23560930.559    -7620827.242 8  -5889691.95846  23560931.921    23560941.4244
  21446399.511   -17103158.556 9 -13305558.53647  21446402.855    21446411.5744
  19972889.380   -25495072.984 9 -19837473.31548  19972892.200    19972899.4504
  21583017.751   -18226202.021 9 -14171220.19047  21583022.029    21583031.1064
  23914356.395    -4486097.859 8  -3455108.40545  23914362.007    23914375.7254
  22594877.341   -12813428.922 8  -9956620.67646  22594880.893    22594890.8724
 00  3 20  2  1 30.0000000  0  6 23 17 26 06 24 10
  23548664.962    -7685281.421 8  -5939915.88946  23548666.247    23548674.8224
  21432200.367   -17177800.472 9 -13363721.00847  21432199.023    21432207.4574
  19972389.338   -25497697.310 9 -19839518.21348  19972392.706    19972400.3944
  21594202.088   -18167446.317 9 -14125436.56147  21594203.471    21594212.0564
  23931457.227    -4396242.043 8  -3385091.04145  23931461.710    23931474.6234
  22608508.673   -12741802.218 8  -9900807.68346  22608511.226    22608520.7594
 00  3 20  2  2  0.0000000  0  6 23 17 26 06 24 10
  23536415.200    -7749637.757 8  -5990063.57746  23536419.635    23536428.3384
  21418037.796   -17252206.744 9 -13421699.85247  21418039.475    21418048.3604
  19972002.398   -25499737.725 9 -19841108.12048  19972004.433    19972012.1184
  21605469.188   -18108226.398 9 -14079291.19847  21605472.161    21605481.1344
  23948603.147    -4306201.585 8  -3314929.75145  23948597.334    23948608.2764
  22622160.428   -12670070.700 8  -9844913.03046  22622160.497    22622170.0104
 00  3 20  2  2 30.0000000  0  6 23 17 26 06 24 10
  23524189.390    -7813913.977 8  -6040148.84546  23524187.691    23524197.7664
  21403922.480   -17326381.696 9 -13479498.45747  21403924.664    21403933.5234
  19971723.328   -25501197.356 9 -19842245.46648  19971726.704    19971734.3934
  21616824.971   -18048547.229 8 -14032787.99347  21616828.601    21616837.7894
  23965762.498    -4215977.183 8  -3244625.18945  23965765.394    23965778.8034
  22635829.017   -12598236.072 8  -9788938.01946  22635829.582    22635839.9904
 00  3 20  2  3  0.0000000  0  6 23 17 26 06 24 10
  23511969.512    -7878110.329 8  -6090171.81246  23511971.508    23511982.2394
  21389852.864   -17400319.238 9 -13537112.07247  21389855.537    21389863.9414
  19971561.302   -25502058.877 9 -19842916.75548  19971562.648    19971570.0814
  21628270.041   -17988417.280 9 -13985933.53047  21628271.051    21628280.4404
  23982961.425    -4125585.266 8  -3174190.11045  23982966.856    23982979.1064
  22649515.181   -12526301.152 8  -9732884.88446  22649518.920    22649529.1394
 00  3 20  2  3 30.0000000  0  6 23 17 26 06 24 10
  23499767.735    -7942209.020 8  -6140118.71546  23499773.452    23499783.9594
  21375828.808   -17474023.938 9 -13594544.24847  21375829.414    21375837.9134
  19971514.805   -25502296.786 9 -19843102.12048  19971517.615    19971524.7604
  21639797.516   -17927841.306 9 -13938731.52447  21639798.449    21639807.1184
  24000198.204    -4035031.541 8  -3103628.86545  24000198.537    24000209.9944
  22663223.428   -12454279.066 8  -9676763.83046  22663224.832    22663234.9224
 00  3 20  2  4  0.0000000  0  6 23 17 26 06 24 10
  23487596.648    -8006184.788 8  -6189969.82646  23487599.156    23487608.8064
  21361846.984   -17547495.637 9 -13651794.85547  21361847.871    21361857.0254
  19971594.475   -25501891.874 9 -19842786.57848  19971594.037    19971601.8414
  21651411.147   -17866811.093 9 -13891175.54747  21651412.533    21651421.3634
  24017463.817    -3944296.975 8  -3032926.77445  24017464.698    24017478.1094
  22676941.819   -12382180.082 8  -9620582.83646  22676944.767    22676954.9254
 00  3 20  2  4 30.0000000  0  6 23 17 26 06 24 10
  23475448.140    -8070035.092 8  -6239723.17846  23475448.161    23475457.8304
  21347908.773   -17620730.409 9 -13708860.85547  21347911.782    21347920.9794
  19971790.474   -25500842.386 9 -19841968.76348  19971793.865    19971801.8644
  21663110.554   -17805314.124 8 -13843255.87647  21663114.936    21663123.8074
  24034770.513    -3853368.343 8  -2962073.46845  24034767.572    24034780.5594
  22690674.957   -12310000.695 8  -9564339.19346  22690679.925    22690689.9344
 00  3 20  2  5  0.0000000  0  6 23 17 26 06 24 10
  23463325.106    -8133742.358 8  -6289365.06446  23463325.871    23463333.9604
  21334014.955   -17693721.016 9 -13765736.60247  21334021.839    21334031.0604
  19972116.870   -25499134.984 9 -19840638.29348  19972119.130    19972126.5354
  21674905.979   -17743344.242 8 -13794967.70247  21674906.857    21674916.3024
  24052102.719    -3762246.652 7  -2891069.70945  24052107.820    24052119.8594
  22704421.848   -12237749.882 8  -9508039.89746  22704428.005    22704439.0534
 00  3 20  2  5 30.0000000  0  6 23 17 26 06 24 10
  23451231.457    -8197299.014 8  -6338889.59346  23451230.621    23451239.8644
  21320174.004   -17766475.141 9 -13822428.08247  21320177.408    21320185.9464
  19972564.100   -25496779.870 9 -19838803.11948  19972567.140    19972574.4144
  21686786.490   -17680898.252 8 -13746308.54547  21686790.189    21686799.0054
  24069481.973    -3670926.056 7  -2819910.94545  24069485.434    24069499.1684
  22718185.968   -12165437.760 8  -9451692.82946  22718189.501    22718199.2884
 00  3 20  2  6  0.0000000  0  6 23 17 26 06 24 10
  23439159.279    -8260720.853 8  -6388309.07346  23439160.212    23439171.9714
  21306379.911   -17838982.714 9 -13878927.43847  21306379.937    21306388.6354
  19973134.610   -25493791.223 9 -19836474.28148  19973135.693    19973143.3024
  21698762.957   -17617968.562 8 -13697272.46747  21698765.565    21698774.9544
  24086898.447    -3579397.605 7  -2748590.27245  24086904.537    24086917.3614
  22731964.784   -12093050.770 8  -9395287.42046  22731965.036    22731973.4944
 00  3 20  2  6 30.0000000  0  6 23 17 26 06 24 10
  23427112.348    -8324024.295 8  -6437636.28846  23427114.764    23427125.3244
  21292628.211   -17911234.028 9 -13935227.11447  21292631.079    21292639.3724
  19973819.883   -25490185.661 9 -19833664.73448  19973821.765    19973829.2234
  21710826.146   -17554571.249 8 -13647872.01347  21710830.150    21710839.0344
  24104350.991    -3487675.377 7  -2677118.62545  24104358.084    24104371.7754
  22745745.607   -12020593.436 8  -9338827.20346  22745752.409    22745762.2314
 00  3 20  2  7  0.0000000  0  6 23 17 26 06 24 10
  23415090.817    -8387203.906 8  -6486867.03346  23415093.287    23415102.3964
  21278927.727   -17983228.144 9 -13991326.37447  21278930.662    21278939.3774
  19974621.027   -25485976.315 9 -19830384.70348  19974622.715    19974630.2534
  21722978.518   -17490725.819 9 -13598122.38747  21722979.487    21722987.8054
  24121845.943    -3395767.239 7  -2605502.02545  24121847.445    24121860.9934
  22759551.055   -11948078.219 8  -9282321.87546  22759552.050    22759561.3094
 00  3 20  2  7 30.0000000  0  6 23 17 26 06 24 10
  23403085.835    -8450266.034 8  -6536006.23646  23403091.329    23403102.9784
  21265281.515   -18054960.521 9 -14047221.69347  21265280.683    21265288.8324
  19975531.789   -25481184.585 9 -19826650.86748  19975535.025    19975542.6144
  21735208.679   -17426447.554 9 -13548035.47547  21735211.131    21735219.9524
  24139375.874    -3303669.372 7  -2533737.64145  24139373.773    24139386.1614
  22773359.358   -11875493.493 8  -9225762.39346  22773364.019    22773373.7794
 00  3 20  2  8  0.0000000  0  6 23 17 26 06 24 10
  23391110.354    -8513226.484 8  -6585066.16346  23391110.602    23391121.7994
  21251679.431   -18126416.809 9 -14102901.87447  21251682.729    21251691.4144
  19976554.017   -25475819.952 9 -19822470.61348  19976556.016    19976563.4994
  21747522.559   -17361737.660 8 -13497612.22647  21747524.566    21747534.1564
  24156932.659    -3211386.006 7  -2461828.70745  24156933.921    24156949.1614
  22787190.605   -11802831.241 8  -9169142.48246  22787191.426    22787201.4804
 00  3 20  2  8 30.0000000  0  6 23 17 26 06 24 10
  23379146.877    -8576084.551 8  -6634046.36146  23379149.475    23379160.0554
  21238134.806   -18197600.569 9 -14158369.69747  21238137.059    21238144.9304
  19977681.959   -25469886.367 9 -19817847.02748  19977684.602    19977692.3154
  21759919.603   -17296598.892 9 -13446854.78747  21759920.904    21759929.3204
  24174518.473    -3118927.209 7  -2389783.10345  24174527.464    24174541.7914
  22801034.140   -11730093.615 8  -9112463.85646  22801033.174    22801042.6434
 00  3 20  2  9  0.0000000  0  6 23 17 26 06 24 10
  23367209.324    -8638831.450 8  -6682939.95046  23367209.886    23367219.5394
  21224639.190   -18268529.066 9 -14213638.61547  21224639.618    21224647.7694
  19978921.578   -25463375.483 9 -19812773.58948  19978923.696    19978930.9984
  21772401.668   -17231013.032 9 -13395748.96647  21772401.449    21772409.3784
  24192153.139    -3026284.154 7  -2317593.87345  24192157.080    24192172.0494
  22814890.394   -11657267.348 8  -9055716.14346  22814890.637    22814901.4444
 00  3 20  2  9 30.0000000  0  6 23 17 26 06 24 10
  23355287.481    -8701468.443 8  -6731747.89246  23355289.554    23355299.0024
  21211188.921   -18339204.560 9 -14268710.39347  21211190.627    21211199.0294
  19980272.301   -25456281.280 9 -19807245.62248  19980273.875    19980281.0624
  21784964.090   -17164963.547 8 -13344281.88547  21784970.076    21784978.8954
  24209814.683    -2933456.303 7  -2245260.63845  24209820.601    24209836.2654
  22828767.454   -11584341.352 8  -8998890.74846  22828767.902    22828778.5224
 00  3 20  2 10  0.0000000  0  6 23 17 26 06 24 10
  23343391.814    -8763997.043 8  -6780471.34446  23343391.235    23343401.3064
  21197785.666   -18409630.282 9 -14323587.53447  21197788.784    21197797.4174
  19981735.575   -25448584.930 9 -19801248.44748  19981738.357    19981745.4974
  21797627.607   -17098445.140 8 -13292449.43247  21797627.801    21797637.3724
  24227528.146    -2840448.916 7  -2172787.53645  24227522.302    24227535.9174
  22842662.910   -11511319.706 8  -8941990.79946  22842664.505    22842674.0594
 00  3 20  2 10 30.0000000  0  7 23 17 26 06 09 24 10
  23331517.107    -8826397.604 8  -6829095.06246  23331516.615    23331526.4344
  21184431.454   -18479807.462 9 -14378271.01047  21184434.470    21184443.3194
  19983317.351   -25440271.670 9 -19794770.55648  19983320.292    19983327.7054
  21810368.343   -17031471.664 8 -13240262.37247  21810372.760    21810381.7034
  24588283.633     -145868.59617
  24245255.298    -2747257.668 7  -2100171.16445  24245255.184    24245267.8914
  22856579.900   -11438207.851 8  -8885020.55046  22856577.600    22856586.6924
 00  3 20  2 11  0.0000000  0  7 23 17 26 06 09 24 10
  23319666.556    -8888663.045 8  -6877613.48446  23319667.603    23319677.6234
  21171128.246   -18549716.946 9 -14432745.90247  21171130.737    21171139.9794
  19985017.644   -25431335.398 9 -19787807.20848  19985020.706    19985028.0834
  21823199.956   -16964056.201 8 -13187730.87947  21823202.040    21823210.5094
  24568556.181     -249665.059 7
  24263017.994    -2653877.069 7  -2027407.23045  24263025.011    24263039.5714
  22870504.800   -11365015.695 8  -8827987.73946  22870505.543    22870514.7364
 00  3 20  2 11 30.0000000  0  7 23 17 26 06 09 24 10
  23307840.497    -8950801.193 8  -6926032.71446  23307842.342    23307853.2904
  21157885.434   -18619315.089 9 -14486978.19147  21157887.060    21157896.1754
  19986837.343   -25421778.041 9 -19780359.89448  19986839.404    19986846.5654
  21836112.016   -16896221.330 9 -13134872.59147  21836110.156    21836119.4224
  24548787.651     -353512.252 7   -264946.83154  24548783.843    24548800.6194
  24280833.925    -2560309.138 7  -1954497.31045  24280828.919    24280843.6824
  22884442.817   -11291758.106 8  -8770903.94446  22884445.515    22884455.2344
 00  3 20  2 12  0.0000000  0  7 23 17 26 06 09 24 10
  23296039.627    -9012814.743 8  -6974354.87846  23296042.679    23296053.0574
  21144701.705   -18688583.751 9 -14540953.72347  21144705.060    21144714.0844
  19988773.418   -25411594.942 9 -19772424.99048  19988776.953    19988784.3064
  21849088.905   -16827989.758 8 -13081705.20247  21849093.656    21849103.3784
  24529014.295     -457406.153 7   -345902.86244  24529015.927    24529030.1624
  24298672.056    -2466558.212 7  -1881444.81945  24298671.866    24298684.8374
  22898396.748   -11218445.023 8  -8713776.89346  22898396.672    22898406.4514
 00  3 20  2 12 30.0000000  0  7 23 17 26 06 09 24 10
  23284263.732    -9074707.787 8  -7022583.13946  23284265.310    23284274.2884
  21131586.378   -18757518.044 9 -14594668.72847  21131587.575    21131596.2334
  19990828.041   -25400810.614 9 -19764021.59648  19990829.277    19990836.5334
  21862149.979   -16759367.420 8 -13028233.31147  21862153.002    21862161.2004
  24509221.862     -561349.760 7   -426897.67144  24509236.966    24509248.8484
  24316530.852    -2372622.266 7  -1808248.15045  24316545.536    24316561.4694
  22912357.380   -11145078.166 8  -8656607.96646  22912358.150    22912367.4164
 00  3 20  2 13  0.0000000  0  7 23 17 26 06 09 24 10
  23272503.989    -9136495.098 8  -7070729.00846  23272506.681    23272516.6584
  21118529.940   -18826114.161 9 -14648120.20547  21118534.053    21118542.8264
  19992990.348   -25389438.270 9 -19755160.00748  19992993.075    19993000.6384
  21875283.722   -16690350.214 8 -12974453.71547  21875286.445    21875294.4134
  24489445.366     -665347.958 7   -507935.06944  24489444.364    24489458.6724
  24334429.845    -2278511.371 7  -1734915.23445  24334454.119    24334471.8814
  22926329.452   -11071651.418 8  -8599392.36446  22926329.902    22926339.5944
 00  3 20  2 13 30.0000000  0  7 23 17 26 06 09 24 10
  23260764.483    -9198179.628 8  -7118794.78146  23260768.354    23260778.5084
  21105539.482   -18894390.611 9 -14701322.60147  21105541.367    21105550.4574
  19995266.351   -25377482.981 9 -19745844.17948  19995268.466    19995275.7434
  21888492.182   -16620934.820 8 -12920363.83947  21888494.683    21888504.3014
  24469620.849     -769401.946 7   -589015.82444  24469642.151    24469659.1304
  24352398.853    -2184236.581 7  -1661454.54445  24352395.986    24352411.2064
  22940308.429   -10998161.341 8  -8542127.40446  22940314.456    22940324.8744
 00  3 20  2 14  0.0000000  0  7 23 17 26 06 09 24 10
  23249052.081    -9259760.618 8  -7166779.87646  23249049.894    23249060.1334
  21092598.713   -18962386.031 9 -14754306.00147  21092602.630    21092610.9474
  19997649.505   -25364955.832 9 -19736082.75548  19997652.249    19997659.3884
  21901777.843   -16551119.072 8 -12865962.00047  21901780.364    21901790.4484
  24449844.123     -873492.755 7   -670125.37045  24449836.988    24449849.5564
  24370373.909    -2089803.913 7  -1587870.80144  24370364.444    24370376.6214
  22954309.146   -10924592.357 8  -8484800.96646  22954314.472    22954324.6194
 00  3 20  2 14 30.0000000  0  7 23 17 26 06 09 24 10
  23237350.084    -9321239.450 8  -7214685.37846  23237350.823    23237361.7244
  21079709.198   -19030122.940 9 -14807087.97447  21079712.704    21079720.4784
  20000139.565   -25351863.796 9 -19725881.16348  20000143.246    20000150.8474
  21915144.296   -16480891.126 8 -12811238.98547  21915145.009    21915154.4694
  24430015.025     -977605.544 7   -751251.98845  24430024.848    24430038.7194
  24388358.386    -1995210.746 7  -1514162.10944  24388368.086    24388380.9784
  22968328.075   -10850939.776 8  -8427409.39646  22968330.910    22968340.2164
 00  3 20  2 15  0.0000000  0  7 23 17 26 06 09 24 10
  23225671.940    -9382611.311 8  -7262507.51246  23225670.855    23225681.9994
  21066870.119   -19097606.970 9 -14859672.88747  21066870.980    21066879.2164
  20002743.026   -25338189.545 9 -19715225.88048  20002745.137    20002753.3054
  21928587.187   -16410244.837 8 -12756189.98447  21928588.436    21928597.4354
  24410220.406    -1081731.800 7   -832389.14645  24410210.193    24410222.7954
  24406396.923    -1900466.805 7  -1440335.84145  24406395.217    24406409.5464
  22982356.792   -10777212.444 8  -8369959.57146  22982360.339    22982369.8044
 00  3 20  2 15 30.0000000  0  6 23 17 26 06 09 10
  23214008.675    -9443873.677 8  -7310244.33746  23214013.081    23214023.2674
  21054072.455   -19164845.935 9 -14912066.84447  21054075.760    21054083.9444
  20005457.093   -25323926.896 9 -19704112.11348  20005459.549    20005467.3614
  21942107.865   -16339185.807 8 -12700819.35747  21942110.796    21942119.4874
  24390396.801    -1185877.809 7   -913541.63745  24390391.289    24390405.8634
  22996402.075   -10703414.458 8  -8312454.69446  22996404.529    22996413.9394
 00  3 20  2 16  0.0000000  0  6 23 17 26 06 09 10
  23202374.940    -9505023.132 8  -7357893.19646  23202376.663    23202387.0294
  21041327.344   -19231826.194 9 -14964259.21747  21041330.039    21041338.0424
  20008283.038   -25309077.036 9 -19692540.77248  20008285.589    20008292.9294
  21955709.487   -16267714.551 8 -12645127.52047  21955711.378    21955720.4814
  24370551.447    -1290047.533 7   -994712.68645  24370567.053    24370580.7484
  23010462.244   -10629541.623 8  -8254891.49646  23010461.883    23010472.3334
 00  3 20  2 16 30.0000000  0  6 23 17 26 06 09 10
  23190762.189    -9566053.705 8  -7405449.37746  23190763.837    23190773.1244
  21028637.712   -19298523.133 9 -15016230.80947  21028637.799    21028646.0674
  20011221.429   -25293632.746 9 -19680506.25548  20011224.810    20011231.8544
  21969386.494   -16195833.067 8 -12589116.01047  21969389.617    21969399.2994
  24350731.816    -1394256.960 7  -1075914.60245  24350738.352    24350750.2034
  23024532.871   -10555609.636 8  -8197282.20546  23024530.735    23024540.5284
 00  3 20  2 17  0.0000000  0  6 23 17 26 06 09 10
  23179171.497    -9626959.053 8  -7452907.99746  23179174.674    23179183.4734
  21016002.985   -19364909.273 9 -15067960.22247  21016005.074    21016012.7164
  20014275.046   -25277585.761 9 -19668002.10248  20014278.399    20014285.2544
  21983140.777   -16123549.013 8 -12532790.83647  21983144.626    21983155.2854
  24330906.595    -1498519.421 7  -1157157.86145  24330896.829    24330909.3974
  23038603.476   -10481616.659 8  -8139625.39346  23038610.568    23038620.9834
 00  3 20  2 17 30.0000000  0  6 23 17 26 06 09 10
  23167603.045    -9687736.142 8  -7500266.68146  23167608.168    23167618.3924
  21003431.526   -19430971.169 9 -15119436.97547  21003433.829    21003441.6814
  20017443.006   -25260933.188 9 -19655026.05448  20017446.982    20017454.2994
  21996972.859   -16050876.263 8 -12476162.77347  21996974.633    21996985.0374
  24311038.888    -1602824.572 7  -1238434.35045  24311047.338    24311060.5594
  23052703.420   -10407553.645 8  -8081914.00446  23052704.469    23052714.3004
 00  3 20  2 18  0.0000000  0  6 23 17 26 06 09 10
  23156060.686    -9748382.261 8  -7547523.30646  23156067.251    23156077.0624
  20990924.104   -19496702.437 9 -15170656.09947  20990925.766    20990933.4964
  20020728.848   -25243673.303 9 -19641576.78048  20020731.387    20020738.9624
  22010876.706   -15977816.122 8 -12419232.84447  22010877.061    22010886.9864
  24291197.992    -1707146.420 7  -1319723.88345  24291196.564    24291209.4224
  23066806.033   -10333432.580 8  -8024157.37846  23066808.978    23066818.6104
 00  3 20  2 18 30.0000000  0  6 23 17 26 06 09 10
  23144552.393    -9808902.838 8  -7594682.07846  23144550.400    23144560.5634
  20978475.865   -19562107.664 9 -15221621.17048  20978479.104    20978488.0514
  20024129.865   -25225802.144 9 -19627651.18548  20024132.080    20024139.6594
  22024848.948   -15904374.481 8 -12362005.65647  22024852.723    22024862.2544
  24271337.846    -1811478.180 7  -1401021.18845  24271342.748    24271355.2114
  23080922.758   -10259258.851 8  -7966359.70446  23080924.266    23080933.2254
 00  3 20  2 19  0.0000000  0  6 23 17 26 06 09 10
  23133054.518    -9869300.433 8  -7641745.05646  23133056.709    23133067.2384
  20966091.251   -19627192.098 9 -15272336.26048  20966094.321    20966102.6144
  20027644.044   -25207333.049 9 -19613259.66548  20027646.758    20027654.0184
  22038896.535   -15830556.974 8 -12304485.56347  22038899.929    22038908.3444
  24251486.092    -1915805.893 7  -1482315.27245  24251488.441    24251501.9254
  23095049.191   -10185025.682 8  -7908515.69846  23095050.306    23095059.1244
 00  3 20  2 19 30.0000000  0  6 23 17 26 06 09 10
  23121580.911    -9929584.810 8  -7688719.77246  23121585.264    23121595.1864
  20953766.639   -19691971.060 9 -15322813.33248  20953767.322    20953774.9594
  20031267.483   -25188293.734 9 -19598423.81948  20031270.012    20031277.3204
  22053013.189   -15756368.216 8 -12246676.20347  22053017.143    22053027.0204
  24231626.655    -2020123.448 7  -1563601.47545  24231637.374    24231650.6314
  23109183.358   -10110745.292 8  -7850634.91646  23109186.006    23109194.1764
 00  3 20  2 20  0.0000000  0  6 23 17 26 06 09 10
  23110131.080    -9989757.433 8  -7735607.42446  23110135.075    23110144.8354
  20941493.136   -19756450.918 9 -15373057.32748  20941496.359    20941505.4504
  20034995.666   -25168707.258 9 -19583161.62048  20034997.023    20035004.0874
  22067208.700   -15681796.492 8 -12188568.40647  22067208.439    22067217.8314
  24211788.600    -2124447.893 7  -1644893.08045  24211785.383    24211797.9014
  23123320.526   -10036418.477 8  -7792717.96446  23123328.755    23123339.5564
 00  3 20  2 20 30.0000000  0  6 23 17 26 06 09 10
  23098704.297   -10049823.098 8  -7782411.74146  23098705.353    23098714.6424
  20929282.526   -19820625.984 9 -15423063.82748  20929284.621    20929293.1014
  20038821.748   -25148591.979 9 -19567487.36148  20038824.828    20038832.2164
  22081470.684   -15606837.330 8 -12130158.71647  22081472.851    22081482.0664
  24191923.672    -2228805.140 7  -1726210.22445  24191927.247    24191939.5734
  23137484.304    -9962031.396 8  -7734754.06546  23137484.890    23137494.4144
 00  3 20  2 21  0.0000000  0  6 23 17 26 06 09 10
  23087293.480   -10109790.170 8  -7829139.24146  23087293.963    23087303.1154
  20917128.159   -19884492.834 9 -15472830.16148  20917130.945    20917139.2924
  20042749.448   -25127955.143 9 -19551406.69648  20042751.994    20042759.4114
  22095805.547   -15531496.233 8 -12071451.40947  22095808.869    22095818.5854
  24172055.096    -2333194.868 7  -1807552.64445  24172061.666    24172074.0194
  23151647.119    -9887589.828 8  -7676747.67346  23151650.773    23151660.5504
 00  3 20  2 21 30.0000000  0  6 23 17 26 06 09 10
  23075896.579   -10169656.919 8  -7875788.55046  23075900.364    23075910.8384
  20905034.394   -19948044.720 9 -15522351.06348  20905037.619    20905045.8484
  20046779.928   -25106775.803 9 -19534903.29748  20046782.286    20046789.3204
  22110214.105   -15455765.818 8 -12012440.73946  22110219.637    22110228.8794
  24152187.637    -2437622.586 8  -1888924.67345  24152190.529    24152203.3884
  23165827.953    -9813100.101 8  -7618703.77746  23165825.657    23165835.3834
 00  3 20  2 22  0.0000000  0  6 23 17 26 06 09 10
  23064526.438   -10229421.217 8  -7922358.03946  23064528.097    23064537.7074
  20893005.162   -20011266.536 9 -15571614.77348  20893006.964    20893014.9434
  20050916.606   -25085032.243 9 -19517960.25348  20050920.093    20050927.1114
  22124704.181   -15379646.615 8 -11953127.13246  22124704.647    22124714.8034
  24132300.149    -2542076.024 8  -1970316.76545  24132314.020    24132325.2144
  23180012.187    -9738548.330 8  -7560611.54246  23180011.842    23180021.7054
 00  3 20  2 22 30.0000000  0  6 23 17 26 06 09 10
  23053171.907   -10289082.866 8  -7968847.52546  23053175.247    23053185.3284
  20881037.148   -20074148.307 9 -15620613.50748  20881040.713    20881048.8904
  20055164.508   -25062713.635 9 -19500569.11648  20055167.382    20055174.5794
  22139257.257   -15303161.279 8 -11893528.22947  22139260.174    22139269.2754
  24112444.564    -2646524.096 8  -2051704.66145  24112436.022    24112449.4044
  23194202.545    -9663938.646 8  -7502474.17746  23194210.159    23194218.8374
 00  3 20  2 23  0.0000000  0  6 23 17 26 06 09 10
  23041842.218   -10348632.984 8  -8015250.11346  23041842.966    23041852.6844
  20869138.559   -20136683.761 9 -15669342.38048  20869140.466    20869148.4904
  20059525.349   -25039796.097 9 -19482711.28048  20059527.960    20059535.2024
  22153877.248   -15226308.639 8 -11833643.10547  22153884.392    22153894.1334
  24092568.108    -2750933.501 8  -2133062.44145  24092568.968    24092580.5174
  23208417.069    -9589266.217 8  -7444287.89746  23208419.436    23208428.3994
 00  3 20  2 23 30.0000000  0  6 23 17 26 06 09 10
  23030533.795   -10408054.510 8  -8061552.51546  23030535.384    23030544.4344
  20857303.338   -20198866.415 9 -15717796.34948  20857307.166    20857315.6874
  20064001.616   -25016274.457 9 -19464382.71848  20064004.016    20064011.2284
  22168576.781   -15149075.718 8 -11773461.65847  22168580.820    22168591.4674
  24072712.889    -2855285.337 8  -2214375.38745  24072710.941    24072722.4204
  23222651.343    -9514514.949 8  -7386040.20846  23222644.035    23222653.5184
 00  3 20  2 24  0.0000000  0  6 23 17 26 06 09 10
  23019249.992   -10467349.257 8  -8107756.12646  23019251.984    23019261.1484
  20845538.743   -20260698.686 9 -15765977.30048  20845541.487    20845549.1994
  20068588.874   -24992162.556 9 -19445594.20548  20068592.401    20068599.5894
  22183347.955   -15071471.983 8 -11712991.26346  22183349.121    22183358.4824
  24052863.770    -2959564.820 8  -2295631.95445  24052867.286    24052878.9134
  23236877.656    -9439672.535 8  -7327721.49246  23236885.896    23236897.6674
 00  3 20  2 24 30.0000000  0  6 23 17 26 06 09 10
  23007991.476   -10526516.624 8  -8153860.47346  23007992.002    23008001.7384
  20833837.967   -20322186.045 9 -15813889.48348  20833840.047    20833848.7844
  20073289.868   -24967466.124 9 -19426350.22048  20073291.987    20073299.2194
  22198179.070   -14993502.531 8 -11652235.90946  22198185.442    22198195.7834
  24033034.440    -3063779.388 8  -2376837.91145  24033034.956    24033047.7764
  23251143.978    -9364750.375 8  -7269340.64046  23251143.986    23251154.0494
 00  3 20  2 25  0.0000000  0  6 23 17 26 06 09 10
  22996751.923   -10585565.646 8  -8199872.59946  22996755.570    22996764.5904
  20822202.204   -20383331.337 9 -15861535.11448  20822205.094    20822213.7814
  20078098.877   -24942183.262 9 -19406649.27048  20078103.226    20078110.5104
  22213093.012   -14915160.822 8 -11591190.48946  22213093.716    22213103.6374
  24013209.668    -3167952.716 8  -2458011.75845  24013210.974    24013224.8114
  23265409.767    -9289752.414 8  -7210900.72446  23265415.138    23265425.9504
 00  3 20  2 25 30.0000000  0  6 23 17 26 06 09 10
  22985539.488   -10644505.568 8  -8245799.73446  22985539.582    22985550.2704
  20810629.364   -20444149.955 9 -15908926.20948  20810631.636    20810639.8544
  20083018.293   -24916345.125 9 -19386515.64048  20083019.710    20083027.1384
  22228066.985   -14836476.841 8 -11529878.33847  22228067.471    22228076.9084
  23993391.475    -3272104.633 8  -2539168.89945  23993392.013    23993404.1304
  23279695.616    -9214698.631 8  -7152417.33646  23279696.930    23279708.5534
 00  3 20  2 26  0.0000000  0  6 23 17 26 06 09 10
  22974343.081   -10703354.095 8  -8291655.64946  22974342.114    22974350.3034
  20799119.051   -20504648.192 9 -15956067.66048  20799118.734    20799127.3804
  20088036.737   -24889969.930 9 -19365963.53348  20088039.039    20088046.4624
  22243099.616   -14757475.520 8 -11468318.92147  22243100.633    22243110.4284
  23973570.258    -3376249.074 8  -2620320.23546  23973573.972    23973586.6484
  23293983.629    -9139605.088 8  -7093902.95946  23293986.929    23293997.6574
 00  3 20  2 26 30.0000000  0  6 23 17 26 06 09 10
  22963155.595   -10762122.156 8  -8337448.87446  22963158.331    22963167.1314
  20787665.763   -20564825.509 9 -16002959.03948  20787667.427    20787676.2484
  20093156.952   -24863065.578 9 -19344999.08748  20093158.932    20093166.0164
  22258187.305   -14678164.457 8 -11406518.14647  22258192.918    22258203.0604
  23953758.053    -3480390.249 8  -2701469.00846  23953757.251    23953768.3224
  23308284.793    -9064476.287 8  -7035361.08546  23308284.605    23308295.1224
 00  3 20  2 27  0.0000000  0  6 23 17 26 06 09 10
  22951985.498   -10820805.955 8  -8383176.44046  22951990.804    22952000.1294
  20776275.702   -20624672.497 9 -16049593.02448  20776278.932    20776287.8474
  20098374.515   -24835639.025 9 -19323627.72748  20098377.923    20098385.0724
  22273340.843   -14598542.079 8 -11344474.79847  22273344.832    22273355.1924
  23933944.215    -3584520.924 8  -2782609.65046  23933940.943    23933953.6054
  23322588.443    -8989293.077 8  -6976776.82846  23322592.723    23322602.4954
 00  3 20  2 27 30.0000000  0  6 23 17 26 06 09 10
  22940839.562   -10879391.967 8  -8428827.79146  22940841.983    22940851.9694
  20764956.660   -20684175.556 9 -16095959.01048  20764956.264    20764964.5584
  20103693.183   -24807688.502 9 -19301848.09148  20103696.344    20103703.4084
  22288550.711   -14518610.777 8 -11282190.73846  22288554.726    22288565.4524
  23914120.219    -3688633.624 8  -2863736.27146  23914128.842    23914140.8494
  23336912.917    -8914043.821 8  -6918141.09446  23336910.701    23336921.3724
 00  3 20  2 28  0.0000000  0  6 23 17 26 06 09 10
  22929706.572   -10937874.564 8  -8474398.56346  22929712.364    22929722.9234
  20753701.575   -20743304.389 9 -16142033.39548  20753704.370    20753712.3774
  20109117.577   -24779189.635 9 -19279641.17048  20109119.579    20109126.8944
  22303822.330   -14438353.558 8 -11219652.70546  22303827.478    22303837.6684
  23894319.791    -3792722.941 8  -2944844.69345  23894321.086    23894333.5744
  23351245.448    -8838710.627 8  -6859439.97546  23351246.359    23351256.6244
 00  3 20  2 28 30.0000000  0  6 23 17 26 06 09 10
  22918607.287   -10996232.007 8  -8519871.83146  22918608.237    22918617.0204
  20742527.187   -20802039.399 9 -16187800.90548  20742528.006    20742535.2764
  20114646.532   -24750115.319 9 -19256985.84648  20114651.627    20114659.5824
  22319164.674   -14357758.137 8 -11156851.14946  22319164.778    22319173.7774
  23874513.133    -3896785.587 8  -3025932.33046  23874518.424    23874531.0934
  23365595.713    -8763280.436 8  -6800663.26246  23365599.620    23365610.4224
 00  3 20  2 29  0.0000000  0  6 23 17 26 06 09 10
  22907527.927   -11054449.904 8  -8565236.35646  22907529.030    22907538.2804
  20731425.673   -20860372.729 9 -16233255.41748  20731427.017    20731434.8274
  20120295.483   -24720456.494 9 -19233875.06248  20120296.121    20120303.4864
  22334566.217   -14276823.543 8 -11093785.30446  22334566.469    22334575.6524
  23854724.513    -4000820.959 7  -3106998.70645  23854720.414    23854732.4834
  23379971.417    -8687764.622 8  -6741819.85646  23379970.254    23379980.1454
 00  3 20  2 29 30.0000000  0  6 23 17 26 06 09 10
  22896476.397   -11112529.507 8  -8610493.12646  22896477.646    22896486.3574
  20720401.455   -20918308.648 9 -16278400.25748  20720402.362    20720410.3534
  20126048.153   -24690220.576 9 -19210314.60448  20126049.794    20126057.0274
  22350026.832   -14195559.909 8 -11030463.04446  22350030.393    22350038.9734
  23834930.531    -4104829.197 8  -3188043.94545  23834928.449    23834941.1664
  23394352.587    -8612181.183 8  -6682923.71146  23394354.160    23394363.2714
 00  3 20  2 30  0.0000000  0  6 23 17 26 06 09 10
  22885449.844   -11170482.325 8  -8655651.09146  22885449.878    22885458.4834
  20709449.850   -20975860.251 9 -16323245.62248  20709450.551    20709458.5414
  20131907.117   -24659433.021 9 -19186324.28848  20131908.446    20131915.3574
  22365555.580   -14113963.303 8 -10966881.32346  22365557.845    22365567.5334
  23815151.205    -4208791.767 8  -3269053.57645  23815145.921    23815157.1904
  23408749.100    -8536541.081 8  -6623983.43546  23408747.392    23408757.7344
 00  3 20  2 30 30.0000000  0  6 23 17 26 06 09 10
  22874442.724   -11228313.355 8  -8700714.15746  22874444.144    22874454.2534
  20698567.337   -21033040.370 9 -16367801.52548  20698569.768    20698577.5324
  20137865.990   -24628118.598 9 -19161923.43148  20137867.598    20137875.0154
  22381145.110   -14032039.741 8 -10903044.86046  22381147.410    22381157.3544
  23795374.604    -4312688.576 7  -3350012.00445  23795374.259    23795386.3184
  23423149.579    -8460856.947 8  -6565008.87646  23423149.958    23423160.6724
 00  3 20  2 31  0.0000000  0  6 23 17 26 06 09 10
  22863460.066   -11286034.261 8  -8745691.42946  22863460.396    22863469.6824
  20687751.553   -21089863.444 9 -16412079.21448  20687756.093    20687764.5034
  20143918.655   -24596306.563 9 -19137134.82648  20143920.947    20143928.1684
  22396792.737   -13949794.774 8 -10838957.93646  22396798.134    22396807.6624
  23775606.659    -4416505.016 7  -3430907.75245  23775619.642    23775631.0464
  23437563.240    -8385143.435 8  -6506011.39546  23437557.143    23437566.9154
 00  3 20  2 31 30.0000000  0  6 23 17 26 06 09 10
  22852491.124   -11343651.735 8  -8790588.09946  22852495.799    22852505.7094
  20677008.586   -21146326.234 9 -16456076.15748  20677011.357    20677019.6294
  20150066.367   -24564001.244 9 -19111961.83748  20150068.520    20150075.5494
  22412512.343   -13867222.983 8 -10774616.36346  22412510.759    22412520.9074
  23755873.398    -4520222.981 8  -3511726.78445  23755880.512    23755894.6674
  23451974.251    -8309388.689 8  -6446981.77645  23451973.188    23451982.2534
 00  3 20  2 32  0.0000000  0  6 23 17 26 06 09 10
  22841546.707   -11401170.516 8  -8835407.85146  22841550.444    22841559.8854
  20666334.901   -21202424.424 9 -16499789.00548  20666336.620    20666344.8014
  20156310.847   -24531186.624 9 -19086391.99348  20156313.219    20156320.1314
  22428282.192   -13784315.897 8 -10710013.51246  22428288.086    22428296.9044
  23736164.932    -4623824.253 8  -3592454.91445  23736166.999    23736179.0164
  23466394.423    -8233590.062 8  -6387918.00246  23466397.322    23466406.9384
 00  3 20  2 32 30.0000000  0  6 23 17 26 06 09 10
  22830622.534   -11458584.303 8  -8880145.79946  22830624.987    22830634.6304
  20655729.709   -21258149.916 9 -16543211.44348  20655732.058    20655740.4514
  20162658.080   -24497830.571 9 -19060400.24748  20162660.598    20162667.7794
  22444126.957   -13701090.464 8 -10645162.59146  22444125.173    22444134.6054
  23716467.708    -4727324.406 8  -3673104.21345  23716471.576    23716482.8014
  23480822.524    -8157739.816 8  -6328813.96746  23480830.526    23480841.6314
 00  3 20  2 33  0.0000000  0  6 23 17 26 06 09 10
  22819718.483   -11515892.994 8  -8924801.86447  22819719.722    22819729.2554
  20645196.630   -21313502.290 9 -16586343.15048  20645199.406    20645207.5094
  20169111.898   -24463914.679 9 -19033972.27148  20169114.251    20169121.5354
  22460019.621   -13617544.156 8 -10580061.63746  22460022.821    22460032.7874
  23696788.746    -4830745.021 8  -3753691.53345  23696790.712    23696802.6784
  23495272.952    -8081828.962 8  -6269662.74046  23495276.765    23495287.0184
 00  3 20  2 33 30.0000000  0  6 23 17 26 06 09 10
  22808830.562   -11573105.313 8  -8969382.83446  22808832.731    22808841.7894
  20634735.360   -21368473.396 9 -16629177.75648  20634738.305    20634746.3174
  20175673.181   -24429428.190 9 -19007099.67248  20175676.928    20175684.1254
  22475976.515   -13533687.293 8 -10514718.72646  22475980.915    22475991.2964
  23677121.301    -4934093.821 8  -3834222.87746  23677124.977    23677136.7864
  23509730.479    -8005849.372 8  -6210457.91846  23509735.039    23509745.0754
 00  3 20  2 34  0.0000000  0  6 23 17 26 06 09 10
  22797962.895   -11630221.193 8  -9013888.65647  22797963.331    22797973.9664
  20624346.852   -21423072.095 9 -16671722.17648  20624348.547    20624356.5544
  20182345.333   -24394373.986 9 -18979784.69448  20182347.436    20182354.5664
  22491992.726   -13449543.066 8 -10449151.85646  22491993.649    22492002.2484
  23657462.814    -5037395.711 8  -3914717.69046  23657466.577    23657478.5254
  23524200.318    -7929814.995 8  -6151210.44246  23524204.514    23524213.9784
 00  3 20  2 34 30.0000000  0  6 23 17 26 06 09 10
  22787111.453   -11687240.752 8  -9058319.39747  22787112.973    22787123.1014
  20614028.870   -21477290.703 9 -16713970.40948  20614031.131    20614039.3354
  20189120.664   -24358765.460 9 -18952037.78248  20189123.461    20189130.9324
  22508053.643   -13365130.005 8 -10383375.51346  22508057.194    22508065.8994
  23637812.167    -5140664.581 8  -3995186.76346  23637815.464    23637826.1154
  23538681.168    -7853727.173 8  -6091921.30046  23538683.657    23538693.1964
 00  3 20  2 35  0.0000000  0  6 23 17 26 06 09 10
  22776277.674   -11744169.161 8  -9102679.13147  22776279.865    22776288.5594
  20603784.684   -21531120.876 9 -16755915.97448  20603787.765    20603795.8214
  20195997.163   -24322633.192 9 -18923882.75448  20195998.899    20196006.0294
  22524170.247   -13280445.548 8 -10317387.67946  22524171.548    22524181.1594
  23618163.558    -5243882.673 8  -4075616.26346  23618172.618    23618184.2084
  23553172.231    -7777597.725 8  -6032599.71646  23553170.068    23553180.4534
 00  3 20  2 35 30.0000000  0  6 23 17 26 06 09 10
  22765463.841   -11800999.601 8  -9146962.52547  22765465.209    22765473.7594
  20593617.467   -21584549.137 9 -16797548.35948  20593620.516    20593628.6734
  20202969.983   -24285990.858 9 -18895330.28048  20202971.861    20202979.1044
  22540333.059   -13195506.984 8 -10251201.88146  22540334.197    22540345.5994
  23598542.965    -5347032.107 8  -4155992.26646  23598544.635    23598555.3094
  23567662.065    -7701435.452 8  -5973252.58245  23567662.836    23567673.6354
 00  3 20  2 36  0.0000000  0  6 23 17 26 06 09 10
  22754671.334   -11857721.333 8  -9191161.20247  22754672.195    22754680.3874
  20583529.001   -21637568.137 9 -16838861.83948  20583531.335    20583539.4204
  20210038.297   -24248842.924 9 -18866383.83448  20210041.375    20210048.3254
  22556548.597   -13110298.682 8 -10184805.89146  22556549.053    22556559.6664
  23578926.342    -5450099.446 8  -4236304.29346  23578931.652    23578942.6054
  23582164.353    -7625239.121 8  -5913878.88145  23582163.549    23582172.9894
 00  3 20  2 36 30.0000000  0  6 23 17 26 06 09 10
  22743899.071   -11914324.463 8  -9235267.48447  22743900.261    22743909.1274
  20573519.602   -21690166.699 9 -16879847.70948  20573522.322    20573530.0734
  20217202.800   -24211199.494 9 -18837051.28248  20217204.788    20217211.6064
  22572813.954   -13024807.566 8 -10118189.52646  22572817.886    22572827.9024
  23559336.728    -5553056.361 8  -4316530.30646  23559338.821    23559350.1624
  23596676.133    -7548991.044 8  -5854464.86545  23596672.796    23596683.5414
 00  3 20  2 37  0.0000000  0  6 23 17 26 06 09 10
  22733151.549   -11970800.523 8  -9279274.72947  22733153.568    22733162.0084
  20563588.820   -21742351.771 9 -16920511.37048  20563591.798    20563599.4024
  20224458.978   -24173068.002 9 -18807338.42948  20224460.744    20224467.7254
  22589141.237   -12939022.240 8 -10051343.87646  22589142.261    22589152.0864
  23539765.031    -5655896.088 8  -4396664.99646  23539768.958    23539779.9974
  23611186.815    -7472680.549 8  -5795002.22346  23611193.535    23611205.5554
 00  3 20  2 37 30.0000000  0  6 23 17 26 06 09 10
  22722433.687   -12027138.194 8  -9323174.15447  22722432.206    22722441.2814
  20553737.468   -21794131.926 9 -16960859.50148  20553738.578    20553745.7424
  20231810.017   -24134435.920 9 -18777235.50548  20231812.459    20231819.2634
  22605515.839   -12852935.752 8  -9984263.58246  22605523.067    22605534.3284
  23520213.854    -5758624.459 8  -4476712.92246  23520220.083    23520230.6694
  23625725.713    -7396298.491 8  -5735483.83845  23625728.170    23625740.0034
 00  3 20  2 38  0.0000000  0  6 23 17 26 06 09 10
  22711736.848   -12083340.187 8  -9366967.83847  22711736.916    22711746.7774
  20543956.970   -21845524.722 9 -17000905.80448  20543958.523    20543966.2364
  20239255.333   -24095304.207 9 -18746743.25848  20239258.640    20239265.6144
  22621962.972   -12766543.299 8  -9916944.88246  22621963.848    22621974.0594
  23500694.031    -5861243.003 8  -4556675.27146  23500691.237    23500703.0834
  23640272.556    -7319850.578 8  -5675914.11345  23640276.835    23640286.7264
 00  3 20  2 38 30.0000000  0  6 23 17 26 06 09 10
  22701062.353   -12139414.578 8  -9410662.09947  22701066.113    22701076.1854
  20534247.713   -21896530.540 9 -17040650.56748  20534252.061    20534260.0924
  20246797.241   -24055674.862 9 -18715863.24948  20246799.895    20246807.0444
  22638451.121   -12679864.868 8  -9849403.32746  22638458.978    22638468.5104
  23481179.907    -5963765.862 8  -4636563.07146  23481182.777    23481193.4574
  23654841.053    -7243339.957 8  -5616295.49046  23654836.984    23654846.8264
 00  3 20  2 39  0.0000000  0  6 23 17 26 06 09 10
  22690411.735   -12195377.132 8  -9454269.22547  22690417.061    22690426.1514
  20524618.367   -21947146.661 9 -17080091.67748  20524619.840    20524628.1994
  20254435.880   -24015536.735 9 -18684586.78848  20254437.909    20254445.2334
  22655007.913   -12592896.010 8  -9781635.45246  22655007.563    22655018.1774
  23461688.029    -6066204.080 8  -4716384.91546  23461689.602    23461700.4654
  23669403.646    -7166778.697 8  -5556637.45645  23669404.860    23669416.3604
 00  3 20  2 39 30.0000000  0  6 23 17 26 06 09 10
  22679784.286   -12251252.606 8  -9497808.47047  22679784.767    22679793.2004
  20515059.574   -21997370.683 9 -17119227.26248  20515063.169    20515070.9874
  20262173.122   -23974879.889 9 -18652906.12448  20262174.776    20262181.8764
  22671610.184   -12505652.614 8  -9713653.67146  22671610.314    22671619.7814
  23442216.399    -6168541.558 8  -4796128.23645  23442215.390    23442224.8934
  23683976.659    -7090182.713 8  -5496952.36445  23683980.987    23683991.2004
 00  3 20  2 40  0.0000000  0  6 23 17 26 06 09 10
  22669164.334   -12307054.280 8  -9541290.22847  22669166.140    22669173.7314
  20505581.915   -22047187.551 9 -17158045.57348  20505582.971    20505590.8944
  20270006.775   -23933716.203 9 -18620830.52548  20270007.712    20270014.9134
  22688261.040   -12418146.760 8  -9645467.36746  22688260.686    22688272.5414
  23422755.977    -6270761.970 8  -4875780.35545  23422762.031    23422772.9994
  23698558.225    -7013552.596 8  -5437240.66445  23698563.827    23698574.1604
 00  3 20  2 40 30.0000000  0  6 23 17 26 06 09 10
  22658558.344   -12362791.590 8  -9584721.82947  22658559.806    22658568.0254
  20496183.311   -22096579.629 9 -17196532.88148  20496184.231    20496191.6734
  20277935.372   -23892038.657 9 -18588354.51448  20277938.342    20277945.9144
  22704954.428   -12330381.602 8  -9577079.02146  22704962.708    22704973.2614
  23403333.878    -6372845.836 8  -4955326.04345  23403335.688    23403347.8814
  23713149.467    -6936871.492 8  -5377489.20146  23713156.473    23713166.6634
 00  3 20  2 41  0.0000000  0  6 23 17 26 06 09 10
  22647966.228   -12418457.167 8  -9628097.53647  22647966.580    22647974.1234
  20486861.462   -22145554.256 9 -17234694.90748  20486864.537    20486872.0804
  20285962.743   -23849853.970 9 -18555483.31748  20285966.099    20285973.6494
  22721712.938   -12242369.771 8  -9508498.46246  22721711.221    22721721.1314
  23383938.454    -6474767.772 8  -5034745.61846  23383942.270    23383952.3004
  23727760.422    -6860143.983 8  -5317701.60645  23727755.579    23727766.4754
 00  3 20  2 41 30.0000000  0  6 23 17 26 06 09 10
  22637387.167   -12474032.632 8  -9671403.01447  22637390.645    22637398.4654
  20477623.915   -22194108.777 9 -17272529.56948  20477624.929    20477632.4014
  20294084.939   -23807170.019 9 -18522223.09948  20294088.754    20294095.7464
  22738499.096   -12154134.429 8  -9439743.74446  22738502.092    22738512.0764
  23364576.596    -6576518.779 8  -5114031.96946  23364580.109    23364590.4924
  23742366.609    -6783371.537 8  -5257879.02445  23742364.842    23742374.7334
 00  3 20  2 42  0.0000000  0  6 23 17 26 06 09 10
  22626834.632   -12529492.875 8  -9714618.72047  22626837.235    22626845.7154
  20468465.534   -22242227.681 9 -17310024.78048  20468468.031    20468475.8654
  20302304.655   -23763985.522 9 -18488572.84348  20302306.443    20302313.3434
  22755334.827   -12065664.442 8  -9370806.18046  22755337.301    22755347.5414
  23345242.847    -6678118.253 8  -5193200.24246  23345245.596    23345255.8704
  23756981.678    -6706538.029 8  -5198008.81945  23756986.730    23756997.1574
 00  3 20  2 42 30.0000000  0  6 23 17 26 06 09 10
  22616303.864   -12584835.183 8  -9757742.52047  22616306.589    22616313.9754
  20459392.074   -22289916.717 9 -17347185.04448  20459393.047    20459400.6594
  20310619.295   -23720295.106 9 -18454528.35848  20310620.562    20310627.4354
  22772217.319   -11976959.886 8  -9301685.84246  22772216.577    22772227.8424
  23325929.734    -6779596.065 8  -5272273.72546  23325934.371    23325944.7334
  23771610.735    -6629651.079 8  -5138096.99045  23771617.476    23771628.4894
 00  3 20  2 43  0.0000000  0  6 23 17 26 06 09 10
  22605797.991   -12640048.880 8  -9800766.10247  22605799.377    22605807.6204
  20450397.636   -22337182.113 9 -17384015.19248  20450399.014    20450406.3154
  20319025.038   -23676109.177 9 -18420097.76048  20319028.326    20319035.9634
  22789135.488   -11888017.378 8  -9232380.04746  22789142.825    22789153.1064
  23306638.745    -6880975.491 8  -5351270.54346  23306642.825    23306653.2354
  23786255.028    -6552721.352 8  -5078151.88445  23786257.469    23786267.5624
 00  3 20  2 43 30.0000000  0  6 23 17 26 06 09 10
  22595312.916   -12695145.391 8  -9843698.36547  22595314.150    22595323.5194
  20441485.607   -22384011.909 9 -17420505.92448  20441487.462    20441495.2154
  20327530.538   -23631422.297 9 -18385276.80848  20327531.846    20327539.3534
  22806117.502   -11798812.820 8  -9162870.08346  22806117.085    22806127.9304
  23287368.574    -6982265.172 8  -5430197.41146  23287367.962    23287378.8704
  23800904.699    -6475733.132 8  -5018161.09745  23800908.171    23800918.4424
 00  3 20  2 44  0.0000000  0  6 23 17 26 06 09 10
  22584845.650   -12750137.761 8  -9886549.49647  22584849.586    22584857.9684
  20432652.728   -22430413.157 9 -17456662.70848  20432657.824    20432665.5984
  20336127.535   -23586240.150 9 -18350069.93548  20336129.693    20336137.1324
  22823138.986   -11709338.445 8  -9093149.87246  22823143.746    22823154.0934
  23268111.219    -7083461.981 8  -5509051.92346  23268110.521    23268121.7504
  23815572.114    -6398678.872 8  -4958118.85045  23815570.774    23815580.6484
 00  3 20  2 44 30.0000000  0  6 23 17 26 06 09 10
  22574406.930   -12805030.586 8  -9929323.05447  22574403.930    22574412.6414
  20423904.492   -22476400.216 9 -17492496.75048  20423906.349    20423914.4704
  20344815.150   -23540581.161 9 -18314491.49448  20344818.144    20344825.8864
  22840216.053   -11619614.062 8  -9023234.85646  22840217.932    22840228.1984
  23248881.171    -7184533.865 8  -5587809.10446  23248877.772    23248887.9614
  23830239.053    -6321567.327 8  -4898031.99445  23830244.784    23830256.5614
 00  3 20  2 45  0.0000000  0  6 23 17 26 06 09 10
  22563976.629   -12859815.542 8  -9972012.57847  22563978.059    22563987.7014
  20415231.706   -22521970.277 9 -17528005.86748  20415234.589    20415242.5524
  20353592.495   -23494455.191 9 -18278549.17748  20353596.068    20353603.2704
  22857333.514   -11529658.943 8  -8953140.03346  22857336.025    22857345.9804
  23229671.961    -7285436.672 8  -5666434.51546  23229675.873    23229686.5834
  23844927.105    -6244379.969 8  -4837886.09645  23844932.031    23844944.2444
 00  3 20  2 45 30.0000000  0  6 23 17 26 06 09 10
  22553573.271   -12914488.604 8 -10014614.90347  22553574.060    22553583.3084
  20406642.251   -22567112.017 9 -17563181.22348  20406644.436    20406652.4684
  20362459.709   -23447866.468 9 -18242246.27748  20362461.867    20362469.1674
  22874492.924   -11439495.252 8  -8882882.68146  22874494.145    22874503.8014
  23210502.929    -7386150.530 8  -5744912.72046  23210510.689    23210521.6964
  23859635.535    -6167116.370 8  -4777680.81645  23859635.347    23859647.0044
 00  3 20  2 46  0.0000000  0  6 23 17 26 06 09 10
  22543193.581   -12969033.274 8 -10057117.16147  22543194.421    22543203.6784
  20398132.722   -22611821.477 9 -17598019.73448  20398136.364    20398144.1744
  20371411.143   -23400821.062 9 -18205587.52148  20371414.010    20371421.2084
  22891689.190   -11349147.985 8  -8812482.28146  22891686.624    22891696.9994
  23191379.921    -7486674.421 8  -5823242.87646  23191381.622    23191392.5364
  23874351.405    -6089792.253 8  -4717428.32245  23874350.362    23874360.1494
 00  3 20  2 46 30.0000000  0  6 23 17 26 06 09 10
  22532837.719   -13023448.356 8 -10099518.45747  22532839.618    22532848.8974
  20389711.488   -22656085.473 9 -17632511.14248  20389713.343    20389721.3914
  20380452.769   -23353319.374 9 -18168573.23348  20380453.806    20380460.9004
  22908903.578   -11258621.670 8  -8741942.39346  22908912.619    22908922.8304
  23172286.441    -7587006.556 8  -5901423.63046  23172288.607    23172299.0974
  23889070.437    -6012414.968 8  -4657134.39545  23889075.520    23889085.1734
 00  3 20  2 47  0.0000000  0  6 23 17 26 06 09 10
  22522508.686   -13077737.319 8 -10141821.48947  22522509.094    22522517.9494
  20381372.431   -22699897.634 9 -17666650.46848  20381376.226    20381384.1144
  20389579.723   -23305348.628 9 -18131193.43548  20389581.990    20389589.4434
  22926175.814   -11167901.367 8  -8671251.33246  22926175.805    22926186.3014
  23153223.575    -7687164.789 8  -5979468.86646  23153228.845    23153239.7444
  23903805.538    -5934988.890 8  -4596802.47945  23903808.317    23903819.3714
 00  3 20  2 47 30.0000000  0  6 23 17 26 06 09 10
  22512195.713   -13131914.673 8 -10184037.54947  22512199.015    22512207.7934
  20373123.939   -22743250.529 9 -17700431.92748  20373126.610    20373134.3234
  20398799.883   -23256896.367 9 -18093438.43848  20398802.256    20398809.2634
  22943480.427   -11076961.671 8  -8600389.31046  22943481.715    22943491.3394
  23134201.857    -7787165.652 8  -6057391.48446  23134199.411    23134209.8114
  23918545.002    -5857539.093 8  -4536452.08345  23918545.658    23918557.8474
 00  3 20  2 48  0.0000000  0  6 23 17 26 06 09 10
  22501906.751   -13185997.791 8 -10226180.20147  22501907.421    22501915.8114
  20364961.474   -22786142.747 9 -17733854.41348  20364964.235    20364972.0444
  20408111.981   -23207962.878 9 -18055308.45548  20408114.226    20408121.2224
  22960829.136   -10985781.226 8  -8529339.70046  22960833.298    22960844.1464
  23115205.720    -7887003.821 8  -6135187.32346  23115200.819    23115211.4574
  23933285.749    -5780063.976 8  -4476082.00745  23933289.996    23933300.4644
 00  3 20  2 48 30.0000000  0  6 23 17 26 06 09 10
  22491628.550   -13239993.314 8 -10268254.57247  22491631.757    22491641.2124
  20356886.184   -22828573.797 9 -17766917.54748  20356889.737    20356897.6154
  20417514.180   -23158546.538 9 -18016802.21748  20417517.944    20417524.8974
  22978229.991   -10894350.056 8  -8458094.73246  22978231.601    22978242.6934
  23096231.245    -7986668.705 8  -6212848.14746  23096235.553    23096245.7364
  23948033.280    -5702562.933 8  -4415691.62245  23948037.736    23948046.5524
 00  3 20  2 49  0.0000000  0  6 23 17 26 06 09 10
  22481370.773   -13293902.814 8 -10310261.90747  22481373.442    22481383.0294
  20348901.874   -22870537.122 9 -17799616.23248  20348904.526    20348912.2324
  20427012.231   -23108643.747 9 -17977916.92248  20427013.618    20427021.1464
  22995674.170   -10802675.026 8  -8386659.72546  22995676.331    22995687.6784
  23077304.634    -8086166.322 8  -6290378.62346  23077301.778    23077311.6634
  23962792.480    -5625029.230 8  -4355275.78745  23962791.698    23962802.0204
 00  3 20  2 49 30.0000000  0  6 23 17 26 06 09 10
  22471132.609   -13347722.043 9 -10352198.92247  22471133.019    22471140.6784
  20341009.891   -22912020.707 9 -17831941.09648  20341010.666    20341018.6064
  20436599.043   -23058265.960 9 -17938661.50448  20436600.542    20436607.7384
  23013170.005   -10710766.078 8  -8315042.44946  23013166.852    23013177.2104
  23058397.394    -8185486.196 8  -6367770.61546  23058400.748    23058411.5164
  23977546.720    -5547453.245 7  -4294827.07245  23977552.189    23977566.6524
 00  3 20  2 50  0.0000000  0  6 23 17 26 06 09 10
  22460910.289   -13401430.931 9 -10394049.95847  22460912.097    22460919.3394
  20333203.302   -22953029.617 9 -17863896.07548  20333206.673    20333214.7424
  20446273.074   -23007427.313 9 -17899046.98748  20446275.091    20446281.9504
  23030690.148   -10618641.277 8  -8243256.95846  23030696.405    23030707.8054
  23039527.029    -8284625.356 8  -6445021.76346  23039535.505    23039545.5064
  23992318.912    -5469823.627 7  -4234336.59445  23992325.456    23992338.8084
 00  3 20  2 50 30.0000000  0  6 23 17 26 06 09 10
  22450714.306   -13455015.439 9 -10435804.06847  22450715.155    22450723.0034
  20325489.895   -22993566.354 9 -17895483.12448  20325492.798    20325500.5984
  20456033.364   -22956122.054 9 -17859068.86548  20456038.033    20456044.8804
  23048267.030   -10526326.664 8  -8171323.57946  23048264.148    23048275.3554
  23020710.799    -8383587.076 8  -6522134.65446  23020703.708    23020713.6874
  24007110.141    -5392138.157 8  -4173802.56545  24007110.109    24007119.8594
 00  3 20  2 51  0.0000000  0  6 23 17 26 06 09 10
  22440539.879   -13508478.310 8 -10477463.40547  22440541.157    22440549.2534
  20317866.006   -23033634.140 9 -17926704.76248  20317868.432    20317875.6684
  20465886.051   -22904361.233 9 -17818735.75648  20465887.532    20465894.8524
  23065856.029   -10433828.787 8  -8099247.41746  23065865.173    23065876.3084
  23001904.186    -8482375.828 8  -6599112.75846  23001904.536    23001914.8984
  24021909.471    -5314385.900 8  -4113216.40945  24021905.926    24021915.7194
 00  3 20  2 51 30.0000000  0  6 23 17 26 06 09 10
  22430388.055   -13561809.671 8 -10519020.25747  22430392.457    22430400.8024
  20310327.725   -23073247.272 9 -17957572.11148  20310330.357    20310337.4754
  20475820.646   -22852155.690 9 -17778056.12448  20475822.131    20475828.9164
  23083502.162   -10341149.219 8  -8027029.67446  23083500.988    23083512.8084
  22983135.025    -8580979.234 8  -6675946.45646  22983140.471    22983150.8584
  24036717.254    -5236572.016 8  -4052582.33945  24036712.558    24036724.5804
 00  3 20  2 52  0.0000000  0  6 23 17 26 06 09 10
  22420263.105   -13615020.005 8 -10560482.80947  22420266.362    22420274.9934
  20302874.788   -23112414.571 9 -17988092.07448  20302876.643    20302884.3414
  20485837.331   -22799510.509 9 -17737033.90748  20485840.017    20485847.5594
  23101165.438   -10248299.632 8  -7954679.45246  23101172.346    23101181.7644
  22964406.173    -8679405.102 8  -6752641.82546  22964410.929    22964421.3664
  24051517.346    -5158707.321 8  -3991908.66845  24051531.672    24051542.8344
 00  3 20  2 52 30.0000000  0  6 23 17 26 06 09 10
  22410160.363   -13668123.554 8 -10601862.16047  22410161.241    22410169.7704
  20295505.494   -23151132.758 9 -18018262.06548  20295508.899    20295516.6754
  20495938.396   -22746424.834 9 -17695668.44948  20495941.483    20495948.8634
  23118872.802   -10155286.890 8  -7882202.06746  23118871.348    23118881.1264
  22945712.629    -8777646.917 8  -6829193.75446  22945715.521    22945726.3254
  24066352.297    -5080792.593 8  -3931195.98845  24066356.324    24066369.3504
 00  3 20  2 53  0.0000000  0  6 23 17 26 06 09 10
  22400073.273   -13721131.554 8 -10643167.04547  22400074.425    22400083.1854
  20288225.694   -23189397.389 9 -18048078.63948  20288227.425    20288235.0784
  20506122.776   -22692915.611 9 -17653972.94848  20506124.400    20506131.5654
  23136600.424   -10062098.395 8  -7809587.73746  23136604.888    23136614.4244
  22927055.662    -8875698.625 8  -6905597.51646  22927056.175    22927067.2214
  24081191.813    -5002832.904 8  -3870448.24945  24081192.172    24081203.5164
 00  3 20  2 53 30.0000000  0  6 23 17 26 06 09 10
  22390003.629   -13774048.286 8 -10684400.81047  22390004.370    22390013.3604
  20281030.663   -23227199.335 9 -18077534.68348  20281033.960    20281041.4764
  20516384.225   -22638979.709 9 -17611944.97448  20516387.976    20516395.3944
  23154369.415    -9968746.555 8  -7736846.15146  23154368.389    23154378.5604
  22908439.026    -8973546.360 8  -6981842.37846  22908437.685    22908447.7384
  24096022.952    -4924841.941 7  -3809676.15445  24096032.252    24096043.4144
 00  3 20  2 54  0.0000000  0  6 23 17 26 06 09 10
  22379948.870   -13826887.997 9 -10725574.57447  22379949.702    22379958.1844
  20273930.054   -23264525.047 9 -18106619.62848  20273931.020    20273938.5544
  20526729.520   -22584614.864 9 -17569582.75648  20526733.237    20526740.6884
  23172164.357    -9875233.655 8  -7663979.06846  23172163.517    23172174.3254
  22889854.084    -9071180.906 8  -7057921.09946  22889858.386    22889868.4864
  24110879.699    -4846818.206 8  -3748878.54945  24110881.831    24110892.2694
 00  3 20  2 54 30.0000000  0  6 23 17 26 06 09 10
  22369906.858   -13879646.688 9 -10766685.19447  22369910.363    22369917.9274
  20266918.084   -23301363.602 9 -18135324.97148  20266920.875    20266928.7944
  20537161.294   -22529817.716 9 -17526883.67948  20537160.474    20537168.3434
  23189992.458    -9781555.133 8  -7590982.92546  23189990.471    23190000.5684
  22871317.726    -9168588.389 8  -7133822.91546  22871322.809    22871332.1424
  24125737.429    -4768750.231 8  -3688046.44345  24125737.328    24125748.9944
 00  3 20  2 55  0.0000000  0  6 23 17 26 06 09 10
  22359884.255   -13932325.678 8 -10807733.72147  22359885.731    22359893.1184
  20260004.796   -23337703.390 9 -18163641.66148  20260005.938    20260013.5224
  20547668.754   -22474592.746 9 -17483851.24248  20547669.909    20547677.0774
  23207845.089    -9687703.103 8  -7517851.57246  23207850.543    23207860.8084
  22852829.043    -9265773.734 8  -7209551.63346  22852827.922    22852837.4894
  24140604.251    -4690643.588 8  -3627184.26345  24140600.889    24140610.8864
 00  3 20  2 55 30.0000000  0  6 23 17 26 06 09 10
  22349874.488   -13984914.231 9 -10848711.76347  22349878.293    22349886.1024
  20253183.151   -23373545.451 9 -18191570.51448  20253185.291    20253192.6504
  20558256.576   -22418935.148 9 -17440481.68748  20558261.094    20558268.3964
  23225735.258    -9593679.442 8  -7444586.48146  23225742.389    23225752.5784
  22834373.873    -9362737.566 8  -7285107.75646  22834376.311    22834386.2044
  24155473.546    -4612493.569 7  -3566288.21745  24155471.063    24155482.2254
 00  3 20  2 56  0.0000000  0  6 23 17 26 06 09 10
  22339888.692   -14037406.029 9 -10889614.40947  22339889.327    22339897.2094
  20246455.107   -23408895.955 9 -18219116.33948  20246457.891    20246465.8894
  20568930.753   -22362852.827 9 -17396781.18148  20568932.883    20568939.9394
  23243664.197    -9499475.231 8  -7371180.69546  23243668.406    23243680.4814
  22815965.799    -9459479.779 8  -7360491.17946  22815968.200    22815976.6434
  24170352.949    -4534289.829 8  -3505350.32445  24170353.120    24170364.3304
 00  3 20  2 56 30.0000000  0  6 23 17 26 06 09 10
  22329919.263   -14089793.093 8 -10930435.45147  22329920.370    22329928.6234
  20239821.096   -23443760.367 9 -18246283.40548  20239823.399    20239831.1164
  20579681.143   -22306347.567 9 -17352751.11048  20579685.637    20579693.0664
  23261631.808    -9405091.893 8  -7297635.36046  23261629.364    23261640.3694
  22797597.909    -9556001.777 8  -7435702.98746  22797600.017    22797609.5054
  24185246.023    -4456025.840 8  -3444365.43645  24185247.388    24185256.9734
 00  3 20  2 57  0.0000000  0  6 23 17 26 06 09 10
  22319968.686   -14142075.720 9 -10971175.10747  22319971.401    22319979.4444
  20233277.696   -23478150.486 9 -18273080.88748  20233279.654    20233287.0444
  20590517.142   -22249415.960 9 -17308388.83148  20590519.758    20590526.7144
  23279618.756    -9310540.907 8  -7223959.35646  23279621.621    23279632.3614
  22779275.043    -9652304.698 8  -7510744.11146  22779273.753    22779283.2564
  24200158.918    -4377707.400 8  -3383338.17845  24200151.098    24200163.6344
 00  3 20  2 57 30.0000000  0  6 23 17 26 06 09 10
  22310043.616   -14194245.582 9 -11011826.90447  22310044.234    22310051.5924
  20226820.029   -23512081.168 9 -18299520.36048  20226822.370    20226830.2654
  20601429.689   -22192059.481 9 -17263695.48548  20601433.798    20601441.0834
  23297644.109    -9215836.031 8  -7150163.48046  23297644.206    23297653.7934
  22760989.254    -9748376.203 8  -7585604.92246  22760991.565    22761002.0284
  24215060.620    -4299328.094 7  -3322263.46845  24215064.465    24215077.2784
 00  3 20  2 58  0.0000000  0  6 23 17 26 06 09 10
  22300136.125   -14246302.782 9 -11052390.89647  22300137.740    22300145.7864
  20220453.453   -23545541.240 9 -18325593.13748  20220455.223    20220463.1684
  20612428.821   -22134267.609 9 -17218662.85348  20612431.256    20612438.6134
  23315687.376    -9120992.618 8  -7076259.64146  23315691.932    23315701.3874
  22742750.628    -9844208.535 8  -7660279.32646  22742754.807    22742764.5354
  24229989.583    -4220892.066 7  -3261144.61745  24229991.285    24230003.1054
 00  3 20  2 58 30.0000000  0  6 23 17 26 06 09 10
  22290248.833   -14298245.529 8 -11092865.69647  22290252.539    22290261.4624
  20214178.262   -23578509.472 9 -18351282.65548  20214181.524    20214189.2414
  20623512.564   -22076035.433 9 -17173287.13648  20623512.839    20623519.5494
  23333761.227    -9026017.297 8  -7002253.01646  23333764.553    23333775.6574
  22724566.381    -9939799.880 8  -7734765.99146  22724564.891    22724574.3454
  24244924.287    -4142412.848 8  -3199992.05245  24244926.002    24244934.9454
 00  3 20  2 59  0.0000000  0  6 23 17 26 06 09 10
  22280388.798   -14350066.296 9 -11133245.45747  22280392.324    22280399.6124
  20208002.213   -23610969.466 9 -18376576.13948  20208004.628    20208012.3004
  20634673.892   -22017375.371 9 -17127578.00548  20634676.182    20634682.4644
  23351858.036    -8930914.136 8  -6928146.76646  23351863.054    23351873.7324
  22706423.928   -10035140.384 8  -7809057.21946  22706422.040    22706432.0314
  24259862.552    -4063899.678 8  -3138812.98745  24259866.784    24259876.8004
 00  3 20  2 59 30.0000000  0  6 23 17 26 06 09 10
  22270552.978   -14401758.919 8 -11173525.37547  22270554.048    22270563.2214
  20201924.349   -23642904.135 9 -18401460.27748  20201927.822    20201935.5464
  20645914.681   -21958299.933 9 -17081545.19648  20645917.506    20645924.2484
  23369984.795    -8835679.071 8  -6853937.74646  23369986.073    23369996.2054
  22688320.134   -10130215.901 8  -7883141.90146  22688329.435    22688339.7024
  24274815.573    -3985350.109 7  -3077605.57745  24274813.560    24274826.1064
 00  3 20  3  0  0.0000000  0  6 23 17 26 06 09 10
  22260735.201   -14453331.226 8 -11213711.50647  22260740.265    22260749.9684
  20195949.687   -23674306.902 9 -18425929.93948  20195951.909    20195959.7724
  20657233.777   -21898814.957 9 -17035193.28048  20657236.060    20657243.7874
  23388138.832    -8740301.401 8  -6779617.58546  23388136.841    23388145.4384
  22670289.817   -10225023.899 8  -7957018.16046  22670287.603    22670297.8934
  24289761.090    -3906767.734 8  -3016372.72345  24289767.912    24289779.4344
 00  3 20  3  0 30.0000000  0  6 23 17 26 06 09 10
  22250948.540   -14504792.550 9 -11253811.18647  22250949.282    22250957.4974
  20190071.505   -23705194.972 9 -18449998.54048  20190074.087    20190082.0104
  20668625.730   -21838945.753 9 -16988541.95248  20668628.641    20668636.2634
  23406310.879    -8644770.753 8  -6705178.19746  23406314.719    23406324.7134
  22652295.569   -10319567.560 8  -8030688.43146  22652295.572    22652307.2304
  24304713.179    -3828144.023 7  -2955107.62745  24304728.817    24304742.0274
 00  3 20  3  1  0.0000000  0  6 23 17 26 06 09 10
  22241174.475   -14556142.710 8 -11293824.24347  22241176.071    22241185.0174
  20184289.494   -23735589.414 9 -18473682.50748  20184290.417    20184297.9804
  20680091.880   -21778694.201 9 -16941592.69848  20680095.066    20680101.8714
  23424521.559    -8549086.722 8  -6630619.32046  23424522.592    23424533.7774
  22634350.267   -10413857.073 8  -8104160.64146  22634354.054    22634363.9644
  24319705.203    -3749466.245 8  -2893800.37545  24319701.281    24319713.3824
 00  3 20  3  1 30.0000000  0  6 23 17 26 06 09 10
  22231423.960   -14607391.848 9 -11333758.57647  22231423.833    22231432.2234
  20178594.579   -23765501.363 9 -18496990.51048  20178598.098    20178606.0334
  20691634.311   -21718049.082 9 -16894336.76448  20691635.776    20691642.6434
  23442750.589    -8453244.548 8  -6555937.24346  23442760.625    23442772.2384
  22616453.455   -10507902.498 8  -8177442.71846  22616458.813    22616467.5224
  24334680.511    -3670731.950 7  -2832449.07845  24334683.010    24334694.4034
 00  3 20  3  2  0.0000000  0  6 23 17 26 06 09 10
  22221685.857   -14658550.615 9 -11373622.49247  22221688.828    22221697.0044
  20172995.249   -23794939.905 9 -18519929.62648  20172996.046    20173003.9314
  20703248.476   -21657004.775 9 -16846769.77748  20703251.444    20703259.1074
  23461030.370    -8357244.166 8  -6481131.87846  23461029.597    23461039.5204
  22598603.148   -10601711.901 8  -8250540.86646  22598606.095    22598615.2534
  24349674.412    -3591943.391 7  -2771055.45545  24349676.232    24349686.8024
 00  3 20  3  2 30.0000000  0  6 23 17 26 06 09 10
  22211969.523   -14709614.707 9 -11413412.64747  22211971.734    22211980.4894
  20167485.342   -23823886.442 9 -18542485.35248  20167487.750    20167495.2664
  20714940.338   -21595557.731 9 -16798888.95948  20714944.222    20714951.9844
  23479320.030    -8261109.729 8  -6406222.02646  23479322.963    23479333.9424
  22580804.458   -10695276.435 8  -8323448.17946  22580801.454    22580811.4344
  24364681.091    -3513102.342 8  -2709621.00245  24364681.944    24364691.8614
 00  3 20  3  3  0.0000000  0  6 23 17 26 06 09 10
  22202271.364   -14760588.800 9 -11453132.66147  22202272.227    22202280.2704
  20162073.740   -23852327.437 9 -18564647.14448  20162075.684    20162083.5334
  20726715.884   -21533692.727 9 -16750682.45948  20726717.392    20726724.3064
  23497634.779    -8164859.552 8  -6331221.98246  23497638.805    23497649.8434
  22563045.081   -10788577.923 8  -8396150.53947  22563046.792    22563056.9064
  24379694.234    -3434217.708 7  -2648152.55945  24379691.203    24379703.1574
 00  3 20  3  3 30.0000000  0  6 23 17 26 06 09 10
  22192583.380   -14811489.277 9 -11492795.31547  22192585.564    22192594.1184
  20156758.762   -23880249.285 9 -18586404.41548  20156761.801    20156769.9024
  20738567.968   -21471418.276 9 -16702156.92548  20738568.389    20738574.8804
  23515973.067    -8068502.281 8  -6256138.51646  23515974.640    23515987.8314
  22545346.450   -10881600.288 8  -8468635.36747  22545345.462    22545355.1674
  24394707.992    -3355293.976 7  -2586653.64745  24394710.307    24394722.3124
 00  3 20  3  4  0.0000000  0  6 23 17 26 06 09 10
  22182912.874   -14862313.932 9 -11532398.89647  22182913.714    22182922.2994
  20151546.968   -23907641.108 9 -18607748.68148  20151549.767    20151557.4714
  20750490.100   -21408748.483 9 -16653323.33148  20750493.602    20750500.3614
  23534326.974    -7972057.005 8  -6180986.49646  23534327.738    23534339.0344
  22527698.502   -10974339.170 8  -8540899.33447  22527698.706    22527706.6484
  24409733.885    -3276329.482 7  -2525123.00445  24409736.386    24409748.8874
 00  3 20  3  4 30.0000000  0  6 23 17 26 06 09 10
  22173257.169   -14913045.932 9 -11571930.27347  22173260.197    22173267.7404
  20146438.595   -23934489.808 9 -18628669.74048  20146440.784    20146448.0174
  20762489.685   -21345698.690 9 -16604193.62248  20762491.308    20762498.4874
  23552687.996    -7875536.929 8  -6105776.16045  23552695.184    23552705.6664
  22510096.779   -11066789.681 8  -8612938.62146  22510104.900    22510113.8104
  24424769.960    -3197327.382 7  -2463563.02945  24424770.911    24424782.3624
 00  3 20  3  5  0.0000000  0  6 23 17 26 06 09 10
  22163622.149   -14963676.314 9 -11611382.48147  22163625.344    22163632.9484
  20141429.991   -23960804.446 9 -18649174.64148  20141433.329    20141440.6784
  20774556.058   -21282276.322 9 -16554773.58748  20774559.215    20774567.1004
  23571070.931    -7778932.880 8  -6030500.36546  23571080.117    23571088.6804
  22492569.486   -11158956.066 8  -8684756.44046  22492565.619    22492574.8824
  24439799.560    -3118291.335 7  -2401976.59345  24439810.396    24439823.1254
 00  3 20  3  5 30.0000000  0  6 23 17 26 06 09 10
  22154012.180   -15014183.857 9 -11650738.96447  22154014.118    22154022.7724
  20136526.191   -23986580.549 9 -18669259.91848  20136527.876    20136535.7894
  20786694.559   -21218498.902 9 -16505076.90148  20786696.465    20786703.8574
  23589481.750    -7682235.723 8  -5955152.03246  23589479.563    23589491.3804
  22475073.866   -11250848.996 8  -8756361.22746  22475079.511    22475088.3314
  24454852.672    -3039221.555 8  -2340363.90045  24454857.638    24454867.9114
 00  3 20  3  6  0.0000000  0  6 23 17 26 06 09 10
  22144429.679   -15064546.100 9 -11689982.22947  22144430.063    22144438.9674
  20131722.561   -24011816.913 9 -18688924.60648  20131725.674    20131733.0804
  20798898.672   -21154365.610 9 -16455102.91747  20798900.602    20798907.7424
  23607897.035    -7585446.313 8  -5879731.85345  23607897.877    23607909.9344
  22457644.835   -11342455.693 8  -8827742.96346  22457647.849    22457657.1424
  24469895.504    -2960119.221 7  -2278725.81345  24469910.123    24469920.4734
 00  3 20  3  6 30.0000000  0  6 23 17 26 06 09 10
  22134871.578   -15114755.348 9 -11729106.27747  22134875.756    22134884.1164
  20127022.709   -24036524.885 9 -18708177.55648  20127023.943    20127031.3264
  20811168.734   -21089868.723 9 -16404845.61247  20811173.843    20811180.5944
  23626338.153    -7488556.167 8  -5804233.13746  23626336.679    23626347.5534
  22440272.648   -11433761.940 8  -8898890.60746  22440272.429    22440280.5834
  24484962.368    -2880982.313 7  -2217060.75945  24484970.275    24484980.8024
 00  3 20  3  7  0.0000000  0  6 23 17 26 06 09 10
  22125345.113   -15164826.898 9 -11768123.03447  22125347.556    22125355.4094
  20122418.239   -24060713.882 9 -18727026.11548  20122420.923    20122428.4224
  20823516.477   -21025000.696 9 -16354299.10047  20823518.290    20823525.0894
  23644801.570    -7391551.549 8  -5728645.23846  23644795.111    23644807.2004
  22422957.106   -11524756.712 8  -8969795.52246  22422956.192    22422964.7374
  24500034.659    -2801804.687 7  -2155363.99845  24500036.542    24500046.7164
 00  3 20  3  7 30.0000000  0  6 23 17 26 06 09 10
  22115841.770   -15214775.287 9 -11807043.82547  22115842.723    22115850.8744
  20117915.622   -24084377.839 9 -18745465.54548  20117918.042    20117925.2334
  20835929.356   -20959759.495 9 -16303461.80047  20835933.273    20835939.9714
  23663273.092    -7294429.276 8  -5652965.67345  23663275.979    23663287.6884
  22405692.349   -11615443.054 8  -9040460.11446  22405698.920    22405708.2184
  24515104.829    -2722567.498 7  -2093620.88145  24515112.910    24515127.0714
 00  3 20  3  8  0.0000000  0  6 23 17 26 06 09 10
  22106358.007   -15264614.236 9 -11845879.33747  22106358.643    22106367.0254
  20113510.979   -24107523.711 9 -18763501.27648  20113513.442    20113520.9124
  20848419.474   -20894132.194 9 -16252323.65447  20848421.498    20848428.3914
  23681776.817    -7197196.158 8  -5577199.71345  23681778.995    23681792.1064
  22388501.470   -11705812.031 8  -9110877.39846  22388502.280    22388511.8734
  24530192.667    -2643265.469 7  -2031827.15745  24530204.065    24530218.5384
 00  3 20  3  8 30.0000000  0  6 23 17 26 06 09 10
  22096889.071   -15314362.913 9 -11884644.49847  22096891.363    22096900.1934
  20109203.434   -24130150.880 9 -18781132.82348  20109207.453    20109214.9334
  20860980.711   -20828117.619 9 -16200883.73947  20860983.578    20860990.7514
  23700301.079    -7099859.788 8  -5501353.29345  23700302.398    23700313.6684
  22371363.791   -11795866.644 8  -9181049.72746  22371365.040    22371374.9204
  24545312.051    -2563891.780 7  -1969977.69145  24545309.101    24545324.0304
 00  3 20  3  9  0.0000000  0  6 23 17 26 06 09 10
  22087435.794   -15364036.145 9 -11923350.86547  22087438.772    22087447.8314
  20105001.789   -24152240.528 9 -18798345.51848  20105004.141    20105011.3794
  20873614.818   -20761722.797 9 -16149147.52347  20873618.068    20873624.9874
  23718839.902    -7002426.887 8  -5425431.67945  23718842.911    23718854.3584
  22354284.843   -11885614.797 8  -9250983.26346  22354287.143    22354296.5674
  24560416.348    -2484455.837 7  -1908079.69145  24560425.801    24560437.5744
 00  3 20  3  9 30.0000000  0  6 23 17 26 06 09 10
  22078000.284   -15413628.698 9 -11961994.38447  22078001.618    22078010.2404
  20100901.075   -24173791.422 9 -18815138.40948  20100903.158    20100910.3834
  20886324.823   -20694949.606 9 -16097116.46647  20886324.968    20886331.4624
  23737395.304    -6904921.928 8  -5349453.91045  23737397.665    23737409.4714
  22337259.201   -11975070.133 8  -9320688.60946  22337263.749    22337273.4034
  24575548.758    -2404952.446 7  -1846129.10345  24575555.175    24575567.2004
 00  3 20  3 10  0.0000000  0  6 23 17 26 06 09 10
  22068578.896   -15463126.432 9 -12000564.02347  22068582.071    22068590.4004
  20096898.989   -24194812.242 9 -18831518.25448  20096902.733    20096910.2454
  20899100.278   -20627797.563 9 -16044790.20847  20899103.583    20899110.1124
  23755962.360    -6807372.293 8  -5273441.33145  23755959.870    23755971.8984
  22320298.016   -12064215.887 8  -9390152.72147  22320299.683    22320309.8444
  24590692.311    -2325403.504 7  -1784142.94444  24590691.384    24590701.7444
 00  3 20  3 10 30.0000000  0  6 23 17 26 06 09 10
  22059183.066   -15512516.452 9 -12039049.71447  22059183.414    22059192.3314
  20093005.496   -24215287.530 9 -18847473.01048  20093006.633    20093014.0824
  20911947.194   -20560285.986 9 -15992183.78547  20911950.151    20911957.2274
  23774528.129    -6709783.878 8  -5197398.52245  23774532.179    23774543.4084
  22303393.423   -12153047.810 8  -9459372.29447  22303395.946    22303405.1204
  24605835.501    -2245824.446 7  -1722133.42444  24605835.805    24605846.2444
 00  3 20  3 11  0.0000000  0  6 23 17 26 06 09 10
  22049808.636   -15561780.245 9 -12077437.05447  22049809.344    22049817.9884
  20089211.944   -24235218.611 9 -18863003.70748  20089213.836    20089221.3094
  20924862.354   -20492424.670 9 -15939304.84347  20924863.976    20924871.1484
  23793102.962    -6612155.645 8  -5121324.69145  23793110.605    23793121.2504
  22286546.905   -12241576.836 8  -9528355.86146  22286549.015    22286557.6064
  24620993.902    -2166219.020 7  -1660103.35045  24620985.340    24620997.9664
 00  3 20  3 11 30.0000000  0  6 23 17 26 06 09 10
  22040460.517   -15610912.714 9 -12115722.05947  22040460.261    22040467.6214
  20085520.748   -24254607.569 9 -18878111.97348  20085524.091    20085531.7824
  20937843.413   -20424210.075 9 -15886150.61747  20937844.402    20937851.4874
  23811695.467    -6514486.485 8  -5045218.94845  23811696.225    23811706.9394
  22269757.506   -12329797.228 8  -9597098.92846  22269760.780    22269770.2714
  24636148.072    -2086579.404 7  -1598046.60245  24636140.388    24636152.6484
 00  3 20  3 12  0.0000000  0  6 23 17 26 06 09 10
  22031132.519   -15659916.478 9 -12153906.78147  22031134.881    22031142.2894
  20081939.612   -24273438.803 9 -18892785.65248  20081941.063    20081948.4634
  20950884.871   -20355655.946 9 -15832731.81847  20950889.795    20950897.2894
  23830284.797    -6416757.396 8  -4969066.52545  23830292.238    23830305.4514
  22253032.441   -12417692.263 8  -9665588.46547  22253035.428    22253044.4444
  24651316.612    -2006920.671 7  -1535974.98544  24651299.556    24651311.1404
 00  3 20  3 12 30.0000000  0  6 23 17 26 06 09 10
  22021827.535   -15708812.612 9 -12192007.63547  22021830.203    22021837.4534
  20078463.066   -24291704.554 9 -18907018.69048  20078464.997    20078472.4614
  20963996.535   -20286771.014 9 -15779055.25847  20963998.218    20964005.5774
  23848896.740    -6318941.961 8  -4892846.83045  23848906.547    23848917.7314
  22236368.701   -12505277.022 8  -9733836.24546  22236368.817    22236377.3984
  24666457.769    -1927223.039 7  -1473873.06644  24666464.465    24666476.0324
 00  3 20  3 13  0.0000000  0  6 23 17 26 06 09 10
  22012540.751   -15757615.331 9 -12230035.70247  22012543.118    22012550.6614
  20075092.130   -24309414.201 9 -18920818.40548  20075094.918    20075102.2974
  20977168.158   -20217543.815 9 -15725112.00047  20977171.826    20977178.8094
  23867538.743    -6221035.003 8  -4816555.78145  23867537.555    23867550.2014
  22219757.465   -12592554.230 8  -9801844.36146  22219760.389    22219769.3194
  24681642.748    -1847467.246 7  -1411725.81444  24681642.869    24681652.2644
 00  3 20  3 13 30.0000000  0  6 23 17 26 06 09 10
  22003268.766   -15806333.956 9 -12267998.23347  22003272.051    22003279.8384
  20071829.909   -24326564.124 9 -18934181.97748  20071831.540    20071838.8644
  20990409.670   -20147969.896 9 -15670898.56547  20990411.941    20990418.6084
  23886182.900    -6123040.872 8  -4740196.86145  23886184.592    23886196.3754
  22203213.097   -12679507.574 8  -9869600.11846  22203213.207    22203221.8164
  24696829.135    -1767661.445 7  -1349539.54545  24696828.411    24696839.4024
 00  3 20  3 14  0.0000000  0  6 23 17 26 06 09 10
  21994021.102   -15854952.297 9 -12305882.62447  21994020.592    21994027.9934
  20068669.830   -24343165.479 9 -18947118.08448  20068672.122    20068679.5534
  21003712.937   -20078063.313 9 -15616425.90947  21003714.087    21003721.6024
  23904841.104    -6024961.637 7  -4663771.59645  23904848.795    23904861.8244
  22186722.271   -12766122.800 8  -9937092.40746  22186731.123    22186739.3254
  24712016.246    -1687811.721 7  -1287319.09945  24712023.786    24712035.9254
 00  3 20  3 14 30.0000000  0  6 23 17 26 06 09 10
  21984781.292   -15903467.680 9 -12343686.78447  21984787.744    21984795.7214
  20065610.980   -24359234.795 9 -18959639.62048  20065614.170    20065621.7964
  21017079.544   -20007819.578 9 -15561690.52947  21017081.583    21017087.9864
  23923525.161    -5926806.953 8  -4587287.58845  23923528.647    23923539.6384
  22170315.855   -12852388.872 8 -10004312.64547  22170314.918    22170323.9834
  24727232.872    -1607917.052 7  -1225063.65845  24727226.754    24727238.7734
 00  3 20  3 15  0.0000000  0  6 23 17 26 06 09 10
  21975573.349   -15951871.643 9 -12381404.11547  21975576.226    21975585.2854
  20062654.293   -24374770.220 9 -18971745.12648  20062657.754    20062665.4314
  21030508.954   -19937235.111 9 -15506689.63847  21030512.689    21030519.7354
  23942217.450    -5828596.996 8  -4510760.45145  23942217.456    23942228.7714
  22153968.799   -12938284.503 8 -10071244.20847  22153968.906    22153978.1444
  24742431.573    -1527991.362 7  -1162784.01245  24742434.850    24742449.1514
 00  3 20  3 15 30.0000000  0  6 23 17 26 06 09 10
  21966387.927   -16000160.127 9 -12419031.47047  21966388.209    21966396.4954
  20059802.900   -24389764.172 9 -18983428.71448  20059804.634    20059812.4294
  21044004.183   -19866327.113 9 -15451436.65947  21044006.287    21044013.5284
  23960910.211    -5730341.851 8  -4434198.11645  23960914.707    23960927.1164
  22137688.779   -13023808.628 8 -10137886.28647  22137694.904    22137703.6684
  24757651.085    -1448043.068 7  -1100486.78645  24757648.633    24757663.5674
 00  3 20  3 16  0.0000000  0  6 23 17 26 06 09 10
  21957217.749   -16048339.502 9 -12456573.80547  21957220.454    21957228.1964
  20057054.920   -24404209.554 9 -18994684.84348  20057055.934    20057063.3564
  21057556.169   -19795098.523 9 -15395933.87747  21057560.272    21057567.6314
  23979624.259    -5632044.918 8  -4357603.19245  23979618.579    23979630.5884
  22121488.480   -13108954.292 8 -10204233.45147  22121491.783    22121501.1454
  24772867.899    -1368058.773 7  -1038161.47945  24772869.961    24772883.7804
 00  3 20  3 16 30.0000000  0  6 23 17 26 06 09 10
  21948067.140   -16096433.191 9 -12494049.36847  21948068.423    21948076.4354
  20054412.204   -24418097.110 9 -19005506.30148  20054413.224    20054420.5654
  21071174.932   -19723546.561 9 -15340179.10647  21071176.577    21071183.5924
  23998329.486    -5533721.022 7  -4280987.28745  23998328.781    23998342.8514
  22105354.128   -13193734.302 9 -10270295.68947  22105359.362    22105368.4794
  24788099.454    -1288021.461 7   -975794.84144  24788101.964    24788116.3584
 00  3 20  3 17  0.0000000  0  6 03 23 17 26 06 09
  24640106.320    -1212622.67918   -933424.59655  24640110.070    24640117.9984
  21938932.561   -16144435.301 9 -12531453.58047  21938933.604    21938941.6834
  20051877.762   -24431409.609 9 -19015879.67248  20051879.842    20051887.3784
  21084850.328   -19651668.390 9 -15284170.15947  21084854.493    21084862.1124
  24017036.780    -5435383.403 7  -4204360.70545  24017042.369    24017056.2544
  22089293.967   -13278167.409 8 -10336087.64347  22089292.120    22089301.1524
 00  3 20  3 17 30.0000000  0  6 03 23 17 26 06 09
  24632375.265    -1253242.760 7   -965076.53445  24632377.874    24632386.5274
  21929817.152   -16192333.698 9 -12568776.96247  21929818.277    21929826.5814
  20049453.797   -24444149.411 9 -19025806.79148  20049455.691    20049463.1144
  21098589.538   -19579471.961 9 -15227913.21747  21098593.176    21098599.7904
  24035762.581    -5337027.872 7  -4127720.12045  24035759.095    24035771.7684
  22073288.597   -13362250.400 8 -10401606.76147  22073291.550    22073300.4854
 00  3 20  3 18  0.0000000  0  6 03 23 17 26 06 09
  24624738.138    -1293343.938 7   -996324.16845  24624746.558    24624755.6804
  21920723.724   -16240120.451 9 -12606013.34447  21920725.193    21920732.5794
  20047134.554   -24456328.729 9 -19035297.17448  20047137.887    20047145.6234
  21112391.303   -19506950.547 9 -15171403.03947  21112393.223    21112400.3484
  24054487.239    -5238659.207 8  -4051069.37745  24054478.763    24054491.1274
  22057361.386   -13445972.847 9 -10466844.95947  22057359.555    22057368.7964
 00  3 20  3 18 30.0000000  0  6 03 23 17 26 06 09
  24617221.191    -1332929.258 7  -1027169.77245  24617212.367    24617223.0294
  21911654.039   -16287781.721 9 -12643151.95747  21911655.526    21911662.3954
  20044923.336   -24467954.984 9 -19044356.59548  20044925.453    20044933.0204
  21126250.572   -19434107.309 9 -15114642.07447  21126254.489    21126261.9974
  24073183.936    -5140286.028 7  -3974415.05945  24073198.478    24073210.2224
  22041494.501   -13529339.739 8 -10531806.08647  22041495.540    22041503.9894
 00  3 20  3 19  0.0000000  0  7 03 23 17 26 06 09 21
  24609775.029    -1371985.272 7  -1057602.94745  24609781.287    24609792.5254
  21902611.268   -16335304.460 9 -12680182.62347  21902612.661    21902619.8444
  20042816.968   -24479018.477 9 -19052977.49948  20042819.949    20042827.5094
  21140173.901   -19360936.797 9 -15057626.11047  21140178.358    21140186.0984
  24091915.818    -5041906.093 7  -3897755.48045  24091919.760    24091931.5164
  22025699.800   -13612333.966 8 -10596476.82947  22025702.066    22025710.6994
  25012773.340     -206389.11717   -149055.61555  25012777.330    25012788.2864
 00  3 20  3 19 30.0000000  0  7 03 23 17 26 06 09 21
  24602447.203    -1410521.660 7  -1087631.27945  24602448.353    24602457.7994
  21893591.508   -16382697.041 9 -12717111.87647  21893593.829    21893601.1924
  20040819.176   -24489520.981 9 -19061161.26748  20040821.564    20040829.0334
  21154162.699   -19287446.932 9 -15000361.29147  21154163.099    21154170.4584
  24110642.816    -4943520.025 8  -3821091.17045  24110643.273    24110655.0064
  22009980.179   -13694941.423 8 -10660846.19447  22009981.264    22009990.8174
  24998074.250     -283685.074 7   -209286.19045  24998071.185    24998078.8534
 00  3 20  3 20  0.0000000  0  7 03 23 17 26 06 09 21
  24595219.864    -1448539.073 7  -1117255.18945  24595215.344    24595225.0454
  21884596.191   -16429977.398 9 -12753953.66747  21884596.668    21884603.8284
  20038929.597   -24499446.155 9 -19068895.16148  20038932.658    20038940.4084
  21168207.371   -19213639.876 9 -14942849.31847  21168208.719    21168215.4864
  24129356.916    -4845136.040 7  -3744428.41645  24129363.575    24129376.4974
  21994333.316   -13777168.743 8 -10724919.35147  21994334.985    21994343.7484
  24983349.828     -361012.210 7   -269541.05745  24983355.079    24983363.6714
 00  3 20  3 20 30.0000000  0  7 03 23 17 26 06 09 21
  24588071.121    -1486039.911 7  -1146476.58745  24588078.271    24588087.5794
  21875618.089   -16477156.308 9 -12790716.40647  21875618.916    21875626.4554
  20037155.091   -24508770.306 9 -19076160.72048  20037158.410    20037166.2494
  21182309.269   -19139522.069 9 -14885095.19347  21182312.956    21182319.7964
  24148085.787    -4746747.557 7  -3667762.21445  24148085.818    24148098.7944
  21978758.837   -13859016.635 8 -10788696.84147  21978759.669    21978768.5024
  24968640.461     -438374.588 7   -329823.37945  24968635.057    24968642.5164
 00  3 20  3 21  0.0000000  0  7 03 23 17 26 06 09 21
  24581035.821    -1523034.387 7  -1175303.44045  24581039.313    24581047.5364
  21866655.952   -16524240.358 9 -12827405.23647  21866658.580    21866666.2014
  20035497.130   -24517490.133 9 -19082955.37648  20035499.113    20035506.7554
  21196472.600   -19065097.117 9 -14827101.74347  21196476.009    21196482.6834
  24166808.267    -4648346.128 7  -3591085.91645  24166811.495    24166825.9684
  21963252.475   -13940492.794 8 -10852184.67247  21963254.695    21963263.9744
  24953902.720     -515771.695 7   -390132.78045  24953904.220    24953915.3564
 00  3 20  3 21 30.0000000  0  7 03 23 17 26 06 09 21
  24574087.066    -1559543.722 7  -1203752.22845  24574090.327    24574100.5504
  21857715.801   -16571230.391 9 -12864020.80847  21857716.959    21857724.3334
  20033949.022   -24525622.240 9 -19089292.09148  20033951.634    20033959.3764
  21210687.033   -18990384.907 9 -14768884.44847  21210692.821    21210699.6334
  24185533.528    -4549921.867 8  -3514391.79045  24185542.126    24185552.2124
  21947816.430   -14021604.966 8 -10915388.86647  21947819.153    21947828.8634
  24939165.623     -593207.113 7   -450471.98245  24939169.137    24939178.1934
 00  3 20  3 22  0.0000000  0  7 03 23 17 26 06 09 21
  24567231.844    -1595579.853 7  -1231832.32045  24567232.568    24567243.0324
  21848794.007   -16618118.219 9 -12900556.74047  21848794.853    21848801.8174
  20032509.127   -24533180.891 9 -19095181.94448  20032513.169    20032520.8994
  21224961.340   -18915383.794 9 -14710442.04247  21224964.829    21224971.9114
  24204261.706    -4451478.041 7  -3437682.41845  24204274.803    24204287.3614
  21932454.028   -14102348.354 8 -10978305.74547  21932454.405    21932463.4274
  24924425.083     -670678.838 7   -510839.50345  24924425.802    24924436.9274
 00  3 20  3 22 30.0000000  0  7 03 23 17 26 06 09 21
  24560457.179    -1631151.501 7  -1259550.52345  24560463.773    24560472.1694
  21839892.125   -16664888.203 9 -12937000.84547  21839894.367    21839902.2934
  20031177.799   -24540188.580 9 -19100642.48548  20031179.771    20031187.2504
  21239290.667   -18840084.817 9 -14651767.52047  21239293.291    21239300.8924
  24223008.993    -4353018.361 7  -3360960.75445  24223011.082    24223022.7494
  21917160.879   -14182712.078 8 -11040926.72547  21917161.712    21917170.7294
  24909675.830     -748191.681 7   -571239.08345  24909675.881    24909687.7144
 00  3 20  3 23  0.0000000  0  7 03 23 17 26 06 09 21
  24553786.037    -1666261.436 7  -1286908.89745  24553782.882    24553792.6644
  21831018.823   -16711521.749 9 -12973338.63447  21831020.700    21831028.1124
  20029946.850   -24546658.463 9 -19105683.94848  20029948.509    20029955.9944
  21253676.839   -18764484.407 9 -14592858.12547  21253679.639    21253687.6574
  24241743.324    -4254551.620 7  -3284233.57245  24241748.314    24241761.4644
  21901944.975   -14262681.231 8 -11103240.27147  21901943.505    21901952.3844
  24894916.489     -825733.810 7   -631661.41445  24894920.461    24894930.9454
 00  3 20  3 23 30.0000000  0  7 03 23 17 26 06 09 21
  24547184.118    -1700895.933 7  -1313896.79245  24547192.560    24547202.7574
  21822172.051   -16758013.830 9 -13009566.19747  21822173.297    21822180.7944
  20028816.908   -24552589.047 9 -19110305.18548  20028819.999    20028827.4544
  21268120.584   -18688581.669 9 -14533713.15647  21268123.307    21268131.1424
  24260463.737    -4156088.220 7  -3207508.97345  24260486.940    24260499.1704
  21886801.096   -14342237.128 8 -11165231.81547  21886804.245    21886813.9164
  24880153.283     -903298.338 7   -692101.25845  24880161.334    24880171.3434
 00  3 20  3 24  0.0000000  0  7 03 23 17 26 06 09 21
  24540701.766    -1735033.483 7  -1340497.48445  24540696.902    24540704.5724
  21813346.721   -16804369.832 9 -13045687.72747  21813351.615    21813359.2844
  20027795.739   -24557961.850 9 -19114491.78448  20027797.648    20027805.0504
  21282625.304   -18612365.648 9 -14474324.06047  21282627.588    21282634.3624
  24279201.230    -4057644.286 7  -3130799.51845  24279219.521    24279232.4064
  21871744.821   -14421358.830 8 -11226885.01847  21871748.936    21871757.9234
  24865393.218     -980882.711 7   -752556.54745  24865396.334    24865405.5794
 00  3 20  3 24 30.0000000  0  7 03 23 17 26 06 09 21
  24534294.893    -1768648.575 7  -1366691.08745  24534300.053    24534308.5484
  21804553.198   -16850592.786 9 -13081705.58747  21804555.433    21804563.8124
  20026881.195   -24562760.962 9 -19118231.34548  20026884.318    20026891.9764
  21297185.451   -18535853.699 9 -14414704.36847  21297186.878    21297194.6614
  24297949.256    -3959208.103 7  -3054096.16945  24297951.943    24297964.3394
  21856771.511   -14500044.544 8 -11288198.47447  21856775.550    21856784.7814
  24850628.594    -1058486.682 7   -813027.07845  24850629.392    24850638.6114
 00  3 20  3 25  0.0000000  0  7 03 23 17 26 06 09 21
  24528000.807    -1801724.784 7  -1392464.76845  24528005.641    24528013.4324
  21795782.529   -16896691.105 9 -13117626.32047  21795783.387    21795791.2004
  20026080.138   -24566975.008 9 -19121515.01048  20026082.669    20026090.1134
  21311798.198   -18459070.047 9 -14354872.97647  21311799.093    21311806.0504
  24316689.848    -3860779.587 7  -2977398.73145  24316682.376    24316693.9024
  21841880.519   -14578299.681 9 -11349176.43247  21841883.713    21841892.4034
  24835852.237    -1136107.184 7   -873510.46345  24835857.125    24835865.7664
 00  3 20  3 25 30.0000000  0  7 03 23 17 26 06 09 21
  24521815.007    -1834257.686 7  -1417815.05645  24521815.238    24521822.8684
  21787029.175   -16942688.327 9 -13153468.27447  21787030.710    21787038.5844
  20025392.494   -24570591.510 9 -19124333.05148  20025394.216    20025401.7224
  21326460.485   -18382023.179 9 -14294836.46247  21326460.355    21326467.0724
  24335424.792    -3762353.789 7  -2900703.43945  24335412.160    24335423.7174
  21827068.650   -14656136.632 9 -11409828.52047  21827072.127    21827080.8054
  24821085.450    -1213759.566 7   -934018.78445  24821080.306    24821089.5764
 00  3 20  3 26  0.0000000  0  8 03 23 17 26 06 09 21 29
  24515717.930    -1866256.746 7  -1442749.37345  24515724.068    24515733.9784
  21778292.912   -16988594.258 9 -13189239.10047  21778294.796    21778302.1914
  20024818.676   -24573602.652 9 -19126679.38848  20024821.097    20024828.6214
  21341166.555   -18304729.260 9 -14234607.44847  21341169.013    21341176.0914
  24354148.414    -3663929.862 7  -2824009.57645  24354141.662    24354152.2604
  21812338.566   -14733559.045 8 -11470157.61047  21812338.750    21812347.3574
  24806298.728    -1291444.985 7   -994552.77045  24806297.406    24806308.0704
  24565272.910    -1516761.42317  -1168337.10055  24565266.820    24565276.4454
 00  3 20  3 26 30.0000000  0  8 03 23 17 26 06 09 21 29
  24509727.828    -1897750.107 8  -1467289.63045  24509732.128    24509741.3564
  21769577.296   -17034399.060 9 -13224931.14147  21769578.763    21769585.5714
  20024358.688   -24576018.078 9 -19128561.52648  20024361.476    20024369.2594
  21355919.951   -18227193.315 9 -14174189.85347  21355922.976    21355931.1834
  24372877.596    -3565513.655 7  -2747321.74245  24372869.228    24372881.6984
  21797674.706   -14810586.414 8 -11530178.86147  21797680.289    21797689.7384
  24791498.853    -1369159.430 7  -1055109.36245  24791509.586    24791518.0484
  24547279.760    -1611264.617 7  -1241975.88245  24547282.996    24547294.4164
 00  3 20  3 27  0.0000000  0  8 03 23 17 26 06 09 21 29
  24503833.106    -1928765.420 7  -1491457.41445  24503830.096    24503839.8314
  21760876.684   -17080109.345 9 -13260549.52147  21760879.795    21760887.5374
  20024013.835   -24577833.328 9 -19129976.00148  20024015.855    20024024.0114
  21370725.883   -18149394.738 9 -14113567.60747  21370727.956    21370735.1064
  24391608.083    -3467121.748 7  -2670652.87345  24391592.700    24391605.6394
  21783097.235   -14887215.538 8 -11589889.79947  21783098.289    21783107.4054
  24776715.883    -1446904.612 7  -1115689.96145  24776716.511    24776722.5854
  24529332.191    -1705618.272 7  -1315498.08645  24529327.708    24529339.7874
 00  3 20  3 27 30.0000000  0  8 03 23 17 26 06 09 21 29
  24498014.230    -1959304.339 7  -1515253.95345  24498018.303    24498030.0324
  21752196.722   -17125726.538 9 -13296095.35647  21752199.116    21752207.4584
  20023781.161   -24579055.438 9 -19130928.30248  20023783.385    20023791.3164
  21385579.064   -18071319.583 9 -14052729.83847  21385584.881    21385593.3624
  24410299.224    -3368757.646 7  -2594005.66045  24410309.134    24410323.6024
  21768589.495   -14963435.255 8 -11649281.71347  21768594.720    21768602.9804
  24761917.400    -1524674.287 7  -1176289.60745  24761917.066    24761924.0494
  24511403.663    -1799823.988 7  -1388905.02745  24511400.657    24511412.7934
 00  3 20  3 28  0.0000000  0  8 03 23 17 26 06 09 21 29
  24492291.260    -1989360.154 7  -1538674.13645  24492299.747    24492306.7044
  21743536.781   -17171237.198 9 -13331558.18047  21743539.079    21743546.7694
  20023656.558   -24579705.432 9 -19131434.79348  20023659.779    20023667.3974
  21400492.312   -17992975.422 9 -13991682.46247  21400493.710    21400501.2064
  24429006.511    -3270435.280 7  -2517390.97245  24429021.808    24429033.7884
  21754170.806   -15039231.208 9 -11708343.43847  21754170.951    21754179.6874
  24747116.445    -1602462.878 7  -1236904.02845  24747112.360    24747122.2644
  24493498.513    -1893876.063 7  -1462192.28345  24493503.962    24493514.6664
 00  3 20  3 28 30.0000000  0  8 03 23 17 26 06 09 21 29
  24486675.303    -2018917.519 7  -1561705.81745  24486675.333    24486685.2834
  21734898.380   -17216631.306 9 -13366930.19047  21734901.148    21734908.5304
  20023644.761   -24579782.802 9 -19131495.08448  20023644.925    20023652.5484
  21415452.782   -17914351.988 9 -13930417.44647  21415454.746    21415462.8934
  24447712.347    -3172152.657 7  -2440807.20745  24447724.266    24447736.6744
  21739828.198   -15114596.004 8 -11767069.18247  21739829.373    21739838.3674
  24732298.480    -1680282.007 7  -1297542.19145  24732303.557    24732313.9064
  24475640.148    -1987773.027 7  -1535358.65645  24475636.305    24475646.6164
 00  3 20  3 29  0.0000000  0  8 03 23 17 26 06 09 21 29
  24481150.633    -2047939.708 7  -1584320.49945  24481151.667    24481160.5944
  21726280.681   -17261914.565 9 -13402215.82947  21726283.723    21726291.0004
  20023738.376   -24579279.701 9 -19131103.05648  20023740.523    20023748.3824
  21430467.410   -17835449.633 9 -13868935.12247  21430469.423    21430477.8754
  24466423.072    -3073894.301 8  -2364242.36345  24466423.394    24466434.0894
  21725568.114   -15189515.828 8 -11825448.20547  21725572.866    21725581.8064
  24717480.549    -1758137.911 7  -1358209.03145  24717488.840    24717499.4414
  24457782.584    -2081518.449 7  -1608406.92845  24457795.418    24457807.1064
 00  3 20  3 29 30.0000000  0  8 03 23 17 26 06 09 21 29
  24475735.763    -2076410.320 7  -1606505.39645  24475733.942    24475742.6194
  21717691.481   -17307072.372 9 -13437403.70747  21717690.765    21717698.1264
  20023944.042   -24578198.875 9 -19130260.85248  20023946.401    20023953.9924
  21445530.346   -17756297.295 9 -13807257.98047  21445531.675    21445539.6904
  24485117.186    -2975655.951 7  -2287693.09045  24485115.957    24485127.9624
  21711401.829   -15263987.120 9 -11883477.70847  21711401.732    21711409.8884
  24702665.408    -1836028.790 7  -1418903.10645  24702666.130    24702676.4754
  24439992.798    -2175115.680 7  -1681339.73245  24439984.732    24439995.0554
 00  3 20  3 30  0.0000000  0  8 03 23 17 26 06 09 21 29
  24470423.088    -2104330.010 7  -1628260.99845  24470420.443    24470431.3264
  21709120.044   -17352097.210 9 -13472487.96847  21709122.336    21709130.2474
  20024262.711   -24576523.115 9 -19128955.07148  20024265.234    20024273.0444
  21460640.446   -17676895.958 9 -13745386.83047  21460641.058    21460649.4464
  24503807.134    -2877442.442 7  -2211163.23545  24503805.139    24503817.6704
  21697313.938   -15338012.332 9 -11941159.61947  21697314.831    21697323.2544
  24687837.817    -1913962.768 7  -1479630.84045  24687835.409    24687846.5314
  24422198.752    -2268561.211 7  -1754154.28445  24422200.984    24422215.0954
 00  3 20  3 30 30.0000000  0  8 03 23 17 26 06 09 21 29
  24465203.762    -2131704.461 7  -1649591.74845  24465210.496    24465219.9964
  21700578.780   -17396986.740 9 -13507466.81047  21700580.916    21700588.3314
  20024698.039   -24574236.896 9 -19127173.60548  20024700.306    20024708.0334
  21475797.121   -17597233.541 9 -13683312.25047  21475801.095    21475808.4944
  24522492.989    -2779256.653 7  -2134654.94145  24522489.433    24522504.7014
  21683308.773   -15411598.064 9 -11998499.07247  21683311.698    21683320.3084
  24672996.699    -1991938.080 7  -1540390.69845  24673000.208    24673008.9774
  24404448.485    -2361860.706 7  -1826855.11945  24404446.784    24404459.1984
 00  3 20  3 31  0.0000000  0  7 03 23 17 26 09 21 29
  24460101.327    -2158545.712 7  -1670506.99945  24460103.395    24460112.6264
  21692060.849   -17441748.012 9 -13542345.70847  21692062.377    21692070.5614
  20025246.320   -24571357.045 9 -19124929.55248  20025248.572    20025255.9614
  21491007.857   -17517313.609 9 -13621036.99647  21491009.160    21491016.4074
  21669395.344   -15484734.140 9 -12055488.16547  21669394.656    21669403.3704
  24658154.364    -2069942.543 7  -1601173.34445  24658154.054    24658165.0494
  24386726.068    -2455013.964 7  -1899441.96845  24386722.424    24386733.0224
 00  3 20  3 31 30.0000000  0  7 03 23 17 26 09 21 29
  24455092.868    -2184869.478 7  -1691019.03945  24455096.338    24455104.4944
  21683566.584   -17486378.666 9 -13577122.82047  21683569.313    21683577.4834
  20025907.839   -24567885.216 9 -19122224.22648  20025909.198    20025916.7364
  21506265.137   -17437136.823 9 -13558561.60247  21506266.742    21506273.2274
  21655558.999   -15557414.434 9 -12112122.09547  21655563.698    21655572.5694
  24643308.792    -2147967.652 7  -1661972.06545  24643305.980    24643316.5054
  24369023.696    -2548014.202 8  -1971909.58945  24369025.400    24369036.7344
 00  3 20  3 32  0.0000000  0  7 03 23 17 26 09 21 29
  24450181.253    -2210680.038 7  -1711131.08845  24450183.025    24450191.8174
  21675098.347   -17530883.948 9 -13611802.23647  21675099.998    21675108.3944
  20026682.042   -24563814.442 9 -19119052.19448  20026683.614    20026691.3154
  21521570.591   -17356687.608 9 -13495873.90947  21521575.456    21521582.4774
  21641819.997   -15629640.934 9 -12168402.42747  21641819.601    21641827.7604
  24628444.276    -2226014.516 7  -1722787.73745  24628453.165    24628463.6624
  24351355.909    -2640849.817 8  -2044248.89645  24351358.477    24351369.1054
 00  3 20  3 32 30.0000000  0  7 03 23 17 26 09 21 29
  24445364.230    -2235983.462 7  -1730848.02245  24445368.664    24445378.3524
  21666653.552   -17575265.220 9 -13646385.03247  21666655.212    21666662.8694
  20027567.112   -24559151.804 9 -19115418.97748  20027570.781    20027578.6794
  21536932.706   -17275976.459 9 -13432982.12747  21536934.153    21536941.4384
  21628160.217   -15701408.372 9 -12224325.04247  21628162.767    21628170.7324
  24613595.930    -2304082.754 7  -1783620.08545  24613599.017    24613608.4174
  24333726.387    -2733516.578 7  -2116456.67645  24333725.594    24333734.3644
 00  3 20  3 33  0.0000000  0  7 03 23 17 26 09 21 29
  24440647.160    -2260779.365 7  -1750169.46445  24440649.156    24440659.0374
  21658230.045   -17619527.827 9 -13680875.35247  21658231.962    21658239.6974
  20028569.837   -24553893.438 9 -19111321.55448  20028571.407    20028579.4264
  21552336.329   -17195020.808 9 -13369899.81747  21552339.476    21552346.1594
  21614592.322   -15772709.979 9 -12279884.67547  21614594.386    21614602.6944
  24598740.751    -2382171.131 7  -1844468.06945  24598738.537    24598749.5164
  24316115.253    -2826006.206 8  -2188526.44245  24316125.922    24316133.5804
 00  3 20  3 33 30.0000000  0  7 03 23 17 26 09 21 29
  24436027.121    -2285068.626 7  -1769096.14045  24436026.787    24436037.3024
  21649827.626   -17663676.124 9 -13715276.59947  21649830.702    21649838.5634
  20029687.277   -24548019.182 9 -19106744.21948  20029689.237    20029697.4144
  21567785.771   -17113829.347 9 -13306633.76747  21567789.161    21567795.9694
  21601107.951   -15843562.641 9 -12335094.48047  21601110.941    21601119.5324
  24583875.814    -2460288.315 7  -1905338.55245  24583873.371    24583884.0874
  24298560.350    -2918316.405 8  -2260456.32645  24298559.132    24298568.3934
 00  3 20  3 34  0.0000000  0  7 03 23 17 26 09 21 29
  24431496.149    -2308854.276 7  -1787630.37545  24431501.781    24431512.0074
  21641446.296   -17707725.027 9 -13749600.39747  21641449.005    21641456.7454
  20030920.161   -24541539.937 9 -19101695.45548  20030922.378    20030930.5304
  21583277.676   -17032413.883 9 -13243193.16747  21583282.726    21583289.2194
  21587709.258   -15913972.991 9 -12389959.62747  21587712.684    21587720.5574
  24569006.358    -2538442.221 8  -1966237.62745  24569002.393    24569010.8384
  24281018.770    -3010456.908 7  -2332254.02445  24281024.835    24281034.8194
 00  3 20  3 34 30.0000000  0  7 03 23 17 26 09 21 29
  24427067.885    -2332138.396 8  -1805773.82745  24427070.774    24427081.5454
  21633080.093   -17751685.283 9 -13783855.12247  21633083.398    21633090.8744
  20032266.388   -24534467.682 9 -19096184.61148  20032268.449    20032276.0824
  21598818.344   -16950777.815 9 -13179580.66947  21598818.532    21598824.1224
  21574398.327   -15983932.808 9 -12444473.69647  21574400.182    21574408.3204
  24554111.358    -2616624.360 7  -2027158.69345  24554121.809    24554133.3784
  24263522.345    -3102450.429 7  -2403937.14945  24263517.997    24263528.6414
 00  3 20  3 35  0.0000000  0  7 03 23 17 26 09 21 29
  24422732.939    -2354921.854 8  -1823527.12345  24422734.514    24422746.3874
  21624734.225   -17795563.562 9 -13818045.97747  21624733.384    21624740.9444
  20033725.255   -24526794.810 9 -19090205.75148  20033728.203    20033736.0774
  21614392.513   -16868916.041 9 -13115792.27747  21614396.209    21614402.1554
  21561170.813   -16053444.756 9 -12498638.79147  21561171.909    21561180.2054
  24539238.237    -2694835.042 7  -2088102.05145  24539239.606    24539249.7694
  24246036.281    -3194301.828 7  -2475509.52245  24246039.257    24246050.2524
 00  3 20  3 35 30.0000000  0  7 03 23 17 26 09 21 29
  24418499.044    -2377196.940 8  -1840884.25145  24418497.284    24418504.3714
  21616397.081   -17839355.779 9 -13852169.76447  21616399.943    21616407.2704
  20035296.563   -24518530.813 9 -19083766.27748  20035300.491    20035308.9034
  21630014.417   -16786817.291 9 -13051819.23947  21630017.952    21630024.2494
  21548024.520   -16122509.461 9 -12552455.39047  21548029.493    21548038.4324
  24524352.435    -2773074.943 8  -2149068.19545  24524352.213    24524362.1484
  24228586.841    -3286017.447 7  -2546976.05645  24228585.864    24228597.6324
 00  3 20  3 36  0.0000000  0  7 03 23 17 26 09 21 29
  24414354.130    -2398946.152 8  -1857831.63845  24414357.802    24414367.2834
  21608085.844   -17883038.740 9 -13886208.42447  21608087.719    21608095.2444
  20036983.313   -24509680.040 9 -19076869.57648  20036985.251    20036993.0744
  21645685.233   -16704478.977 9 -12987659.53547  21645686.230    21645693.7524
  21534971.846   -16191114.539 9 -12605913.82947  21534973.838    21534982.4824
  24509456.885    -2851332.564 7  -2210048.06645  24509459.295    24509468.4564
  24211156.587    -3377609.453 7  -2618346.30745  24211157.252    24211167.8064
 00  3 20  3 36 30.0000000  0  7 03 23 17 26 09 21 29
  24410317.325    -2420162.081 8  -1874363.50145  24410318.742    24410328.2634
  21599798.200   -17926584.699 9 -13920140.31847  21599800.701    21599808.4814
  20038781.601   -24500220.440 9 -19069498.46448  20038785.253    20038793.2144
  21661398.256   -16621898.645 9 -12923311.26047  21661400.991    21661408.1084
  21522006.505   -16259243.625 9 -12659001.36847  21522009.644    21522018.0684
  24494559.673    -2929607.478 7  -2271041.42745  24494564.796    24494574.3674
  24193743.570    -3469062.050 7  -2689607.95945  24193755.135    24193763.8634
 00  3 20  3 37  0.0000000  0  7 03 23 17 26 09 21 29
  24406382.843    -2440833.323 7  -1890470.93445  24406385.528    24406395.1284
  21591541.163   -17969977.852 9 -13953953.14547  21591543.617    21591551.3444
  20040696.062   -24490162.330 9 -19061660.97948  20040699.321    20040707.2324
  21677160.332   -16539085.393 9 -12858781.46747  21677160.217    21677166.9904
  21509133.497   -16326900.113 9 -12711720.65647  21509135.474    21509143.4924
  24479662.014    -3007913.659 7  -2332059.16345  24479662.236    24479674.8254
  24176381.734    -3560353.820 8  -2760744.20645  24176381.077    24176391.8724
 00  3 20  3 37 30.0000000  0  7 03 23 17 26 09 21 29
  24402559.768    -2460947.772 7  -1906144.46645  24402558.863    24402568.2164
  21583316.699   -18013205.443 9 -13987636.96247  21583317.481    21583324.9514
  20042723.467   -24479513.633 9 -19053363.30148  20042725.845    20042733.4614
  21692958.078   -16456051.480 8 -12794079.74547  21692960.496    21692968.1754
  21496350.374   -16394066.772 9 -12764058.26447  21496353.984    21496361.4734
  24464760.343    -3086241.939 7  -2393094.12545  24464758.266    24464766.4724
  24159032.671    -3651481.926 7  -2831752.95845  24159040.181    24159050.8504
 00  3 20  3 38  0.0000000  0  7 03 23 17 26 09 21 29
  24398833.800    -2480522.993 7  -1921397.85745  24398834.571    24398843.1294
  21575121.375   -18056270.492 9 -14021194.12347  21575122.188    21575129.7264
  20044865.718   -24468258.630 9 -19044593.17648  20044867.815    20044875.4544
  21708802.699   -16372802.883 9 -12729210.72047  21708803.209    21708809.8324
  21483666.197   -16460729.682 9 -12816003.32547  21483667.656    21483676.2884
  24449845.651    -3164596.669 7  -2454149.65845  24449847.024    24449856.5774
  24141736.873    -3742431.867 8  -2902622.85745  24141733.066    24141742.9374
 00  3 20  3 38 30.0000000  0  7 03 23 17 26 09 21 29
  24395204.592    -2499575.942 7  -1936244.26145  24395208.082    24395216.7684
  21566953.672   -18099198.214 9 -14054644.28447  21566953.642    21566960.9154
  20047124.519   -24456394.920 9 -19035348.73648  20047125.260    20047133.0074
  21724683.994   -16289339.627 9 -12664174.42847  21724684.771    21724692.5944
  21471074.006   -16526886.364 9 -12867553.91947  21471078.318    21471087.3884
  24434925.936    -3242993.789 7  -2515238.27245  24434928.553    24434938.2394
  24124463.280    -3833179.995 8  -2973335.54945  24124465.269    24124473.9384
 00  3 20  3 39  0.0000000  0  7 03 23 17 26 09 21 29
  24391677.243    -2518107.669 7  -1950684.53445  24391682.609    24391690.2914
  21558804.795   -18142009.044 9 -14088003.35747  21558807.047    21558814.7584
  20049495.942   -24443932.726 9 -19025637.93848  20049496.869    20049504.4824
  21740607.036   -16205665.064 8 -12598973.49547  21740607.184    21740615.5804
  21458583.400   -16592542.025 9 -12918714.11447  21458585.049    21458592.7644
  24420006.233    -3321425.936 8  -2576354.17345  24420004.915    24420011.6604
  24107224.174    -3923733.751 8  -3043896.77745  24107233.183    24107241.7784
 00  3 20  3 39 30.0000000  0  7 03 23 17 26 09 21 29
  24388250.459    -2536124.709 7  -1964723.73745  24388253.789    24388261.8574
  21550680.102   -18184709.313 9 -14121276.26547  21550681.145    21550688.6414
  20051983.298   -24430847.178 9 -19015441.41148  20051986.926    20051994.6894
  21756570.108   -16121771.242 8 -12533601.71647  21756571.598    21756579.7924
  21446186.426   -16657685.615 9 -12969475.29247  21446188.298    21446196.4784
  24405073.209    -3399879.395 8  -2637486.69345  24405074.652    24405083.1004
  24090043.172    -4014093.494 8  -3114306.78545  24090037.920    24090047.5524
 00  3 20  3 40  0.0000000  0  7 03 23 17 26 09 21 29
  24384919.525    -2553635.749 7  -1978368.68845  24384922.330    24384929.7864
  21542573.329   -18227303.768 9 -14154466.72547  21542575.873    21542583.3374
  20054594.594   -24417136.576 9 -19004757.83148  20054595.841    20054603.5244
  21772577.427   -16037651.049 8 -12468053.54847  21772579.607    21772586.6574
  21433882.094   -16722331.814 9 -13019848.89347  21433886.079    21433894.6514
  24390138.731    -3478360.422 8  -2698640.66645  24390140.227    24390149.6534
  24072875.471    -4104254.638 8  -3184562.02945  24072880.589    24072890.6354
 00  3 20  3 40 30.0000000  0  7 03 23 17 26 09 21 29
  24381687.521    -2570622.490 7  -1991605.05245  24381688.885    24381696.9454
  21534490.565   -18269780.249 9 -14187565.25447  21534492.720    21534499.8964
  20057317.082   -24402825.071 9 -18993606.00748  20057319.274    20057326.7504
  21788625.026   -15953314.034 9 -12402336.40847  21788628.834    21788635.1264
  21421677.661   -16786489.319 9 -13069841.69647  21421678.230    21421686.1044
  24375193.739    -3556851.921 7  -2759802.77145  24375203.211    24375212.6744
  24055766.818    -4194220.655 7  -3254665.26445  24055759.870    24055770.5814
 00  3 20  3 41  0.0000000  0  7 03 23 17 26 09 21 29
  24378549.089    -2587078.874 7  -2004428.22945  24378556.508    24378566.3464
  21526434.521   -18312125.012 9 -14220561.14947  21526435.341    21526442.1894
  20060151.394   -24387924.398 9 -18981995.10248  20060154.748    20060162.3944
  21804716.317   -15868763.004 9 -12336452.49147  21804718.746    21804725.5824
  21409560.262   -16850160.000 9 -13119455.16247  21409561.691    21409570.2984
  24360269.430    -3635338.375 8  -2820960.96245  24360267.150    24360277.1524
  24038669.622    -4284001.531 8  -3324624.18145  24038675.573    24038684.5084
 00  3 20  3 41 30.0000000  0  7 03 23 17 26 09 21 29
  24375520.651    -2603006.841 7  -2016839.60945  24375525.937    24375536.8734
  21518401.156   -18354327.271 9 -14253445.99147  21518404.208    21518411.2734
  20063100.647   -24372432.098 9 -18969923.18848  20063102.939    20063110.5544
  21820847.307   -15784000.725 9 -12270403.97347  21820848.086    21820855.3454
  21397538.494   -16913343.019 9 -13168688.62347  21397538.263    21397546.1744
  24345329.737    -3713822.683 8  -2882117.50145  24345333.189    24345341.9734
  24021623.448    -4373592.514 7  -3394435.20345  24021625.684    24021637.4214
 00  3 20  3 42  0.0000000  0  7 03 23 17 26 09 21 29
  24372593.425    -2618410.609 7  -2028842.50845  24372594.234    24372603.8704
  21510400.385   -18396387.695 9 -14286220.30447  21510400.580    21510407.5444
  20066159.797   -24356357.912 9 -18957397.86048  20066161.658    20066169.1964
  21837011.403   -15699042.560 8 -12204202.82147  21837014.561    21837022.0914
  21385605.733   -16976042.938 9 -13217545.66147  21385606.809    21385614.4494
  24330397.069    -3792311.448 8  -2943277.53545  24330396.346    24330406.2754
  24004611.943    -4463002.722 8  -3464105.32045  24004611.759    24004622.7994
 00  3 20  3 42 30.0000000  0  7 03 23 17 26 09 21 29
  24369762.704    -2633294.705 8  -2040440.48245  24369764.203    24369770.6694
  21502423.023   -18438309.191 9 -14318886.36347  21502423.390    21502429.6284
  20069328.705   -24339699.977 9 -18944417.65848  20069331.156    20069339.0414
  21853214.652   -15613896.665 8 -12137855.39947  21853217.424    21853225.0424
  21373765.415   -17038256.210 9 -13266023.47547  21373767.750    21373776.0154
  24315451.103    -3870807.965 7  -3004443.59745  24315459.334    24315469.0344
  23987628.904    -4552240.430 8  -3533641.04745  23987630.911    23987639.3384
 00  3 20  3 43  0.0000000  0  7 03 23 17 26 09 21 29
  24367025.064    -2647669.075 8  -2051641.24445  24367028.261    24367036.2734
  21494468.404   -18480106.247 9 -14351455.47647  21494469.432    21494475.9514
  20072613.909   -24322435.242 9 -18930964.62648  20072616.712    20072624.3304
  21869455.286   -15528560.462 8 -12071359.66947  21869456.142    21869463.8144
  21362022.422   -17099971.449 9 -13314113.21447  21362023.688    21362032.2614
  24300513.777    -3949340.530 7  -3065637.70945  24300514.911    24300525.4664
  23970680.733    -4641322.137 8  -3603055.22845  23970679.310    23970688.9984
 00  3 20  3 43 30.0000000  0  7 03 23 17 26 09 21 29
  24364389.549    -2661538.609 7  -2062448.65145  24364387.151    24364398.1844
  21486537.135   -18521780.146 9 -14383928.61547  21486538.552    21486546.0054
  20076017.851   -24304551.593 9 -18917029.32248  20076020.134    20076027.6514
  21885729.025   -15443043.986 9 -12004723.48847  21885729.741    21885737.3594
  21350376.450   -17161172.489 9 -13361802.27047  21350377.357    21350386.1384
  24285558.089    -4027912.845 8  -3126862.81045  24285562.729    24285573.6474
  23953750.677    -4730249.150 8  -3672348.86545  23953755.598    23953766.6104
 00  3 20  3 44  0.0000000  0  7 03 23 17 26 09 21 29
  24361830.492    -2674907.868 7  -2072866.20745  24361842.830    24361852.3824
  21478627.853   -18563338.644 9 -14416311.84147  21478630.287    21478637.8174
  20079537.825   -24286053.065 9 -18902614.88948  20079540.051    20079547.8564
  21902033.196   -15357347.610 9 -11937947.09947  21902037.698    21902044.8034
  21338828.129   -17221852.040 9 -13409084.99047  21338830.714    21338838.6064
  24270599.256    -4106533.609 8  -3188125.69545  24270603.297    24270612.5144
  23936862.129    -4819026.071 7  -3741525.54145  23936862.416    23936873.4914
 00  3 20  3 44 30.0000000  0  7 03 23 17 26 09 21 29
  24359397.969    -2687767.558 7  -2082886.73145  24359395.658    24359406.6824
  21470742.790   -18604785.754 9 -14448608.26847  21470743.600    21470750.6464
  20083174.074   -24266944.830 9 -18887725.36248  20083176.223    20083183.7294
  21918382.009   -15271462.533 8 -11871023.67447  21918380.869    21918387.4184
  21327379.295   -17282000.808 9 -13455954.10447  21327384.460    21327392.3544
  24255632.725    -4185206.186 8  -3249428.96245  24255631.384    24255640.8594
  23919993.313    -4907645.016 7  -3810579.10445  23919997.599    23920009.6204
 00  3 20  3 45  0.0000000  0  7 03 23 17 26 09 21 29
  24357042.978    -2700110.249 7  -2092504.38345  24357047.029    24357057.6454
  21462877.228   -18646117.396 9 -14480814.70747  21462878.596    21462885.3244
  20086926.702   -24247226.801 9 -18872360.66648  20086928.605    20086936.1864
  21934755.914   -15185390.627 8 -11803954.66247  21934759.879    21934766.6804
  21316039.280   -17341602.280 9 -13502396.76447  21316042.463    21316050.9694
  24240656.597    -4263920.938 8  -3310765.09845  24240651.977    24240662.6784
  23903165.758    -4996086.742 8  -3879494.61445  23903169.257    23903178.7414
 00  3 20  3 45 30.0000000  0  7 03 23 17 26 09 21 29
  24354795.067    -2711936.581 7  -2101719.68445  24354796.556    24354806.3934
  21455037.002   -18687319.297 9 -14512920.05147  21455037.850    21455044.4334
  20090793.201   -24226910.535 9 -18856529.82348  20090794.766    20090802.4264
  21951171.456   -15099139.298 8 -11736745.85647  21951173.019    21951180.4384
  21304803.039   -17400658.866 9 -13548414.81547  21304804.471    21304813.2194
  24225661.542    -4342652.646 7  -3372114.40745  24225668.679    24225680.3954
  23886373.032    -5084334.814 8  -3948259.20745  23886375.580    23886385.5434
 00  3 20  3 46  0.0000000  0  7 03 23 17 26 09 21 29
  24352644.477    -2723239.265 7  -2110526.88945  24352645.091    24352655.7274
  21447221.052   -18728387.245 9 -14544921.02347  21447222.711    21447229.7344
  20094772.295   -24205994.216 9 -18840231.39948  20094774.858    20094782.4784
  21967616.540   -15012701.532 8 -11669391.78447  21967621.357    21967629.1614
  21293667.704   -17459177.723 9 -13594013.86447  21293668.539    21293677.3764
  24210682.995    -4421409.576 7  -3433483.35445  24210681.328    24210693.8224
  23869620.291    -5172385.547 8  -4016870.06245  23869621.773    23869629.8634
 00  3 20  3 46 30.0000000  0  7 03 23 17 26 09 21 29
  24350589.889    -2734007.066 7  -2118917.37145  24350596.574    24350606.0144
  21439432.953   -18769308.373 9 -14576807.59348  21439435.866    21439443.2094
  20098868.536   -24184471.071 9 -18823460.12448  20098870.507    20098877.9894
  21984103.071   -14926081.474 8 -11601895.64647  21984104.859    21984111.9294
  21282634.453   -17517164.251 9 -13639198.11947  21282633.948    21282642.4174
  24195696.640    -4500176.305 8  -3494860.00445  24195695.057    24195705.2324
  23852899.448    -5260232.701 7  -4085322.26845  23852902.860    23852913.7144
 00  3 20  3 47  0.0000000  0  7 03 23 17 26 09 21 29
  24348643.647    -2744236.539 7  -2126888.36145  24348649.229    24348659.2664
  21431677.820   -18810068.114 9 -14608568.40348  21431679.538    21431686.5874
  20103079.452   -24162336.383 9 -18806212.32648  20103082.629    20103090.1384
  22000616.951   -14839290.401 8 -11534266.26147  22000620.827    22000628.3754
  21271695.342   -17574618.145 9 -13683967.33247  21271701.113    21271709.2164
  24180703.330    -4578947.285 8  -3556239.94345  24180704.877    24180714.5054
  23836222.591    -5347876.895 7  -4153616.31145  23836224.661    23836234.2604
 00  3 20  3 47 30.0000000  0  7 03 23 17 26 09 21 29
  24346810.527    -2753923.320 7  -2134436.48345  24346807.304    24346815.5574
  21423951.469   -18850670.737 9 -14640206.78548  21423952.906    21423960.2284
  20107411.415   -24139582.545 9 -18788482.07648  20107412.530    20107420.3534
  22017166.415   -14752324.554 8 -11466500.68947  22017169.881    22017177.0674
  21260863.250   -17631548.694 9 -13728328.73647  21260866.924    21260875.1244
  24165713.456    -4657732.876 8  -3617631.28045  24165712.173    24165721.7334
  23819580.706    -5435328.082 8  -4221759.96345  23819582.960    23819592.8134
 00  3 20  3 48  0.0000000  0  7 03 23 17 26 09 21 29
  24345065.420    -2763060.524 7  -2141556.33745  24345067.542    24345077.3294
  21416251.962   -18891123.128 9 -14671728.12347  21416254.615    21416262.2234
  20111859.314   -24116205.712 9 -18770266.37848  20111861.090    20111868.8004
  22033746.770   -14665176.196 8 -11398592.89947  22033753.014    22033760.8484
  21250132.118   -17687962.025 9 -13772287.12347  21250132.455    21250140.5724
  24150719.373    -4736542.021 8  -3679040.92745  24150716.459    24150724.8264
  23802966.737    -5522586.288 8  -4289753.25145  23802978.484    23802988.3274
 00  3 20  3 48 30.0000000  0  7 03 23 17 26 09 21 29
  24343425.143    -2771658.874 7  -2148256.30145  24343430.641    24343440.7184
  21408586.020   -18931423.911 9 -14703131.30848  21408586.117    21408593.7524
  20116424.349   -24092201.516 9 -18751561.82148  20116428.952    20116436.7114
  22050368.106   -14577841.745 8 -11330540.11547  22050371.712    22050379.8164
  21239494.308   -17743854.698 9 -13815839.80747  21239496.836    21239504.6814
  24135715.367    -4815358.772 8  -3740456.52745  24135717.197    24135726.2214
  23786412.680    -5609651.378 8  -4357596.06945  23786411.069    23786419.2994
 00  3 20  3 49  0.0000000  0  7 03 23 17 26 09 21 29
  24341892.361    -2779738.260 7  -2154551.87945  24341894.019    24341902.2044
  21400945.381   -18971575.181 9 -14734417.96948  21400946.061    21400952.9824
  20121114.869   -24067567.010 9 -18732366.11948  20121116.652    20121124.5384
  22067022.850   -14490324.261 8 -11262344.70547  22067025.955    22067033.6214
  21228959.768   -17799215.872 9 -13858978.32447  21228961.613    21228969.6774
  24120712.471    -4894194.562 8  -3801886.98745  24120715.823    24120723.5454
  23769877.169    -5696524.536 8  -4425289.35045  23769879.901    23769888.9544
 00  3 20  3 49 30.0000000  0  7 03 23 17 26 09 21 29
  24340446.484    -2787309.754 7  -2160451.72045  24340451.519    24340461.0024
  21393328.830   -19011595.795 9 -14765602.83348  21393330.167    21393337.4844
  20125923.024   -24042303.060 9 -18712679.93648  20125924.450    20125932.0694
  22083718.076   -14402613.680 8 -11193998.81847  22083717.102    22083724.8634
  21218524.582   -17854042.563 9 -13901700.36247  21218527.985    21218536.7794
  24105705.484    -4973050.546 8  -3863333.15545  24105708.698    24105718.0974
  23753383.026    -5783206.814 8  -4492833.83745  23753384.600    23753393.8674
 00  3 20  3 50  0.0000000  0  7 03 23 17 26 09 21 29
  24339108.726    -2794384.594 7  -2165964.55345  24339107.588    24339117.2584
  21385736.123   -19051485.801 9 -14796685.91248  21385739.058    21385746.1044
  20130846.396   -24016424.161 9 -18692514.56048  20130848.688    20130856.4164
  22100434.241   -14314719.715 8 -11125510.03147  22100443.045    22100450.8594
  21208196.356   -17908326.740 9 -13943999.66047  21208198.338    21208206.6784
  24090698.346    -5051923.211 8  -3924792.35945  24090698.587    24090709.5524
  23736925.329    -5869704.997 8  -4560234.90645  23736923.937    23736933.3704
 00  3 20  3 50 30.0000000  0  7 03 23 17 26 09 21 29
  24337851.975    -2800965.083 7  -2171092.20645  24337855.078    24337863.8624
  21378168.761   -19091255.451 9 -14827675.22147  21378170.937    21378178.1864
  20135886.112   -23989943.639 9 -18671880.40148  20135888.263    20135895.7844
  22117197.682   -14226666.134 8 -11056896.87847  22117199.271    22117206.7624
  21197971.550   -17962056.652 9 -13985867.07147  21197973.828    21197982.0054
  24075683.502    -5130820.156 8  -3986270.42645  24075686.428    24075696.0134
  23720492.751    -5956023.728 8  -4627496.11145  23720497.873    23720507.9124
 00  3 20  3 51  0.0000000  0  7 03 23 17 26 09 21 29
  24336703.091    -2807038.149 7  -2175824.40845  24336700.959    24336709.8374
  21370621.174   -19130922.124 9 -14858584.29248  21370622.613    21370629.9774
  20141033.263   -23962889.151 9 -18650799.00348  20141036.675    20141044.2264
  22133979.490   -14138474.616 8 -10988176.23747  22133981.518    22133988.9384
  21187850.038   -18015234.899 9 -14027304.61547  21187854.466    21187862.3294
  24060667.626    -5209754.138 8  -4047777.36745  24060665.523    24060675.2024
  23704105.106    -6042159.082 8  -4694614.46345  23704106.589    23704115.0844
 00  3 20  3 51 30.0000000  0  7 03 23 17 26 09 21 29
  24335637.095    -2812588.829 7  -2180149.57745  24335642.130    24335650.8314
  21363091.240   -19170484.517 9 -14889412.13347  21363094.290    21363101.3424
  20146290.279   -23935270.243 9 -18629277.78648  20146292.092    20146299.6854
  22150788.843   -14050139.812 8 -10919343.94547  22150790.935    22150798.9924
  21177838.500   -18067868.368 9 -14068317.65747  21177838.817    21177846.3774
  24045639.030    -5288722.468 8  -4109311.06445  24045638.537    24045647.7364
  23687746.316    -6128120.676 8  -4761597.41445  23687748.801    23687758.2254
 00  3 20  3 52  0.0000000  0  7 03 23 17 26 09 21 29
  24334682.673    -2817620.851 7  -2184070.60445  24334685.787    24334696.0414
  21355587.930   -19209924.033 9 -14920144.21048  21355589.216    21355596.6544
  20151654.565   -23907078.243 9 -18607310.00848  20151656.911    20151664.4014
  22167622.091   -13961681.469 8 -10850415.41447  22167624.598    22167631.6894
  21167923.534   -18119962.326 9 -14108910.30847  21167925.121    21167933.1534
  24030601.756    -5367721.452 8  -4170868.66445  24030606.582    24030615.3414
  23671419.026    -6213906.628 8  -4828443.48045  23671424.268    23671433.0904
 00  3 20  3 52 30.0000000  0  7 03 23 17 26 09 21 29
  24333821.565    -2822132.430 7  -2187586.07945  24333825.307    24333835.5554
  21348106.235   -19249230.933 9 -14950772.94748  21348109.247    21348117.1084
  20157130.586   -23878305.150 9 -18584889.43548  20157132.300    20157139.9964
  22184479.875   -13873091.354 8 -10781384.19047  22184482.515    22184490.2904
  21158110.818   -18171518.273 9 -14149083.71947  21158114.626    21158122.0304
  24015571.532    -5446744.269 8  -4232444.84845  24015569.459    24015577.1394
  23655133.268    -6299502.406 8  -4895141.38046  23655136.705    23655145.6774
 00  3 20  3 53  0.0000000  0  7 03 23 17 26 09 21 29
  24333059.812    -2826128.609 7  -2190699.97345  24333065.840    24333076.4994
  21340659.595   -19288383.739 9 -14981281.60148  21340658.964    21340666.1414
  20162718.845   -23848937.402 9 -18562005.48148  20162720.779    20162728.1434
  22201365.370   -13784336.057 8 -10712224.22047  22201371.563    22201379.3614
  21148403.117   -18222532.602 9 -14188835.09147  21148406.784    21148414.7794
  24000523.865    -5525778.144 8  -4294029.66945  24000528.197    24000536.6704
  23638885.798    -6384900.312 8  -4961685.08446  23638885.653    23638895.3964
 00  3 20  3 53 30.0000000  0  7 03 23 17 26 09 21 29
  24332398.171    -2829624.442 7  -2193423.99545  24332399.936    24332410.6734
  21333238.390   -19327362.967 9 -15011654.99648  21333241.065    21333248.4844
  20168424.409   -23818949.085 9 -18538637.96848  20168427.308    20168434.8754
  22218293.699   -13695404.824 8 -10642927.17747  22218294.797    22218302.6704
  21138803.480   -18272993.490 9 -14228155.21647  21138804.104    21138811.8244
  23985483.806    -5604815.014 8  -4355616.80245  23985488.929    23985497.0874
  23622667.539    -6470097.741 8  -5028072.59146  23622673.041    23622682.3104
 00  3 20  3 54  0.0000000  0  7 03 23 17 26 09 21 29
  24331829.491    -2832622.339 7  -2195759.98745  24331831.042    24331839.5574
  21325853.196   -19366181.709 9 -15041903.35948  21325854.376    21325861.4074
  20174248.499   -23788341.794 9 -18514788.16048  20174251.480    20174259.5974
  22235246.911   -13606300.409 8 -10573495.18247  22235250.699    22235258.6284
  21129309.407   -18322887.860 9 -14267033.89347  21129309.647    21129317.6714
  23970445.126    -5683850.081 8  -4417202.51345  23970448.314    23970457.7954
  23606498.127    -6555075.691 8  -5094289.05446  23606500.617    23606512.3404
 00  3 20  3 54 30.0000000  0  7 03 23 17 26 09 21 29
  24331358.513    -2835110.070 7  -2197698.44645  24331357.510    24331365.9054
  21318494.134   -19404848.786 9 -15072033.54348  21318495.833    21318503.2664
  20180190.744   -23757125.409 9 -18490463.72348  20180191.868    20180199.7394
  22252239.542   -13517011.921 8 -10503919.77446  22252241.736    22252250.3074
  21119922.104   -18372208.181 9 -14305465.26047  21119924.709    21119932.4714
  23955406.145    -5762883.848 8  -4478787.21546  23955408.876    23955418.0644
  23590373.907    -6639834.422 8  -5160334.68445  23590372.538    23590382.1574
 00  3 20  3 55  0.0000000  0  7 03 23 17 26 09 21 29
  24330982.179    -2837076.534 7  -2199230.71745  24330984.143    24330991.0554
  21311162.211   -19443374.530 9 -15102053.57948  21311164.851    21311172.2184
  20186247.153   -23725291.626 9 -18465658.18548  20186249.506    20186257.3184
  22269261.389   -13427555.776 8 -10434213.71347  22269265.214    22269273.1824
  21110646.524   -18420955.038 9 -14343449.78747  21110648.827    21110656.5654
  23940370.443    -5841920.088 8  -4540373.88946  23940369.950    23940377.7334
  23574278.993    -6724382.919 8  -5226216.51245  23574284.126    23574292.0064
 00  3 20  3 55 30.0000000  0  7 03 23 17 26 09 21 29
  24330692.204    -2838516.390 7  -2200352.70445  24330706.728    24330716.5214
  21303855.273   -19481778.795 9 -15131978.95748  21303856.445    21303864.1524
  20192423.110   -23692840.037 9 -18440371.25348  20192425.475    20192432.6014
  22286311.503   -13337956.619 8 -10364396.22247  22286314.862    22286323.6144
  21101478.242   -18469132.176 9 -14380990.37147  21101480.628    21101488.0724
  23925332.113    -5920961.433 8  -4601964.48445  23925328.560    23925336.5594
  23558227.346    -6808727.931 8  -5291939.78345  23558233.641    23558241.8114
 00  3 20  3 56  0.0000000  0  7 03 23 17 26 09 21 29
  24330537.972    -2839417.516 7  -2201054.84845  24330536.711    24330546.3054
  21296569.301   -19520062.744 9 -15161810.59248  21296571.306    21296578.5104
  20198714.821   -23659775.927 9 -18414607.02248  20198717.242    20198724.4024
  22303388.643   -13248228.281 8 -10294478.07147  22303390.173    22303398.0114
  21092418.519   -18516745.339 9 -14418091.50047  21092419.253    21092427.6304
  23910280.580    -5999998.618 8  -4663551.84845  23910286.908    23910297.1624
  23542221.937    -6892872.088 8  -5357506.53745  23542220.891    23542229.3694
 00  3 20  3 56 30.0000000  0  7 03 23 17 26 09 21 29
  24330461.984    -2839782.229 7  -2201339.04645  24330466.905    24330475.2964
  21289311.015   -19558204.010 9 -15191531.03648  21289313.499    21289320.6574
  20205124.466   -23626093.582 9 -18388361.05448  20205126.408    20205134.1094
  22320484.090   -13158382.613 8 -10224468.47846  22320486.710    22320494.2594
  21083465.385   -18563801.234 9 -14454758.38447  21083465.317    21083473.1044
  23895248.380    -6079039.105 8  -4725141.79445  23895245.752    23895256.2314
  23526241.787    -6976826.768 8  -5422925.62845  23526244.251    23526252.8944
 00  3 20  3 57  0.0000000  0  7 03 23 17 26 09 21 29
  24330494.247    -2839621.267 7  -2201213.62345  24330497.322    24330507.3954
  21282085.221   -19596188.205 9 -15221129.09248  21282084.991    21282092.5584
  20211651.042   -23591801.962 9 -18361640.32848  20211652.013    20211660.0314
  22337608.444   -13068422.920 8 -10154370.03046  22337605.459    22337612.7004
  21074615.262   -18610300.372 9 -14490991.43047  21074616.919    21074624.3194
  23880204.983    -6158093.489 8  -4786742.56445  23880202.304    23880212.3214
  23510301.454    -7060598.135 8  -5488201.91945  23510303.573    23510311.4254
 00  3 20  3 57 30.0000000  0  7 03 23 17 26 09 21 29
  24330627.195    -2838951.955 7  -2200692.03945  24330625.343    24330634.5274
  21274885.804   -19634000.269 9 -15250593.02447  21274889.622    21274896.8844
  20218289.533   -23556910.585 9 -18334452.26448  20218291.914    20218299.5234
  22354743.239   -12978348.081 8 -10084181.85346  22354746.634    22354753.2894
  21065872.511   -18656229.628 9 -14526780.42147  21065876.623    21065884.5914
  23865148.668    -6237166.236 8  -4848357.65445  23865155.307    23865164.5614
  23494393.885    -7144184.430 8  -5553333.97545  23494397.047    23494405.7654
 00  3 20  3 58  0.0000000  0  7 03 23 17 26 09 21 29
  24330852.855    -2837780.174 7  -2199778.98545  24330847.638    24330856.8744
  21267728.588   -19671625.275 9 -15279911.20048  21267730.054    21267737.2744
  20225043.374   -23521423.970 9 -18306800.38148  20225044.710    20225052.0774
  22371907.263   -12888161.239 8 -10013906.41746  22371908.577    22371916.3664
  21057246.434   -18701582.483 9 -14562120.26247  21057246.626    21057254.2984
  23850101.730    -6316270.918 8  -4909997.61345  23850101.871    23850111.3224
  23478527.062    -7227585.003 8  -5618321.36545  23478526.774    23478535.8374
 00  3 20  3 58 30.0000000  0  7 03 23 17 26 09 21 29
  24331168.378    -2836107.374 7  -2198475.50245  24331168.267    24331175.8114
  21260603.538   -19709069.388 9 -15309088.40748  21260604.597    21260611.9764
  20231908.143   -23485346.775 9 -18278688.29048  20231909.870    20231917.1764
  22389090.620   -12797853.818 8  -9943537.01646  22389093.172    22389100.7514
  21048726.005   -18746350.940 9 -14597004.72647  21048727.496    21048734.6984
  23835034.590    -6395426.263 8  -4971677.04745  23835039.018    23835048.3664
  23462685.830    -7310802.031 8  -5683165.66045  23462690.944    23462699.9674
 00  3 20  3 59  0.0000000  0  7 03 23 17 26 09 21 29
  24331577.238    -2833934.239 7  -2196782.13145  24331580.934    24331590.4424
  21253508.155   -19746356.278 9 -15338143.10448  21253509.043    21253516.4854
  20238883.727   -23448680.769 9 -18250117.39348  20238887.066    20238894.6864
  22406295.428   -12707430.447 8  -9873077.27146  22406300.334    22406307.9834
  21040319.743   -18790516.387 9 -14631419.31847  21040322.036    21040330.3934
  23819963.910    -6474622.766 8  -5033388.56245  23819968.534    23819977.5494
  23446889.044    -7393826.404 8  -5747859.84746  23446891.763    23446901.0884
 00  3 20  3 59 30.0000000  0  7 03 23 17 26 09 21 29
  24332090.145    -2831252.140 7  -2194692.15845  24332091.828    24332099.0104
  21246437.040   -19783506.962 9 -15367091.64548  21246439.636    21246446.7724
  20245978.029   -23411408.063 9 -18221073.74748  20245979.996    20245987.6774
  22423526.773   -12616898.384 8  -9802532.82246  22423527.464    22423535.5464
  21032032.528   -18834071.023 9 -14665357.94847  21032034.606    21032041.9424
  23804891.441    -6553841.095 8  -5095117.11745  23804894.841    23804901.5414
  23431132.073    -7476644.329 8  -5812393.17445  23431131.608    23431140.4484
 00  3 20  4  0  0.0000000  0  7 03 23 17 26 09 21 29
  24332699.006    -2828047.010 7  -2192194.63245  24332700.414    24332708.4764
  21239389.370   -19820534.903 9 -15395944.56348  21239393.015    21239400.5284
  20253186.712   -23373525.131 9 -18191554.59648  20253189.110    20253196.5464
  22440775.138   -12526252.291 8  -9731899.52246  22440776.992    22440785.2474
  21023859.573   -18877018.102 9 -14698823.15548  21023862.428    21023869.7354
  23789815.731    -6633073.539 8  -5156856.65845  23789816.258    23789825.2384
  23415409.698    -7559248.634 8  -5876760.05945  23415413.424    23415421.0024
 00  3 20  4  0 30.0000000  0  7 03 23 17 26 09 21 29
  24333409.267    -2824316.279 7  -2189287.50245  24333410.505    24333419.8014
  21232367.352   -19857444.514 9 -15424705.27948  21232369.490    21232376.9624
  20260511.906   -23335031.835 9 -18161559.83548  20260513.785    20260521.5234
  22458048.562   -12435482.570 8  -9661169.90646  22458049.645    22458057.0274
  21015801.945   -18919361.512 9 -14731817.97548  21015804.592    21015812.2304
  23774736.717    -6712295.482 8  -5218587.98245  23774741.020    23774750.3004
  23399733.350    -7641632.934 8  -5940955.51845  23399736.091    23399743.9834
 00  3 20  4  1  0.0000000  0  7 03 23 17 26 09 21 29
  24334217.931    -2820063.593 7  -2185973.72645  24334221.379    24334228.6294
  21225366.508   -19894234.410 9 -15453372.71648  21225369.119    21225375.6734
  20267953.878   -23295927.726 9 -18131089.11848  20267955.283    20267962.9564
  22475342.709   -12344584.721 8  -9590340.41746  22475347.054    22475354.7324
  21007856.862   -18961113.027 9 -14764351.57147  21007859.068    21007866.6214
  23759666.100    -6791495.060 8  -5280301.90645  23759669.418    23759679.0804
  23384097.028    -7723795.986 8  -6004978.57646  23384100.134    23384108.3504
 00  3 20  4  1 30.0000000  0  7 03 23 17 26 09 21 29
  24335127.702    -2815292.260 7  -2182255.81345  24335129.442    24335136.1614
  21218392.273   -19930888.845 9 -15481934.59648  21218393.899    21218400.5924
  20275510.479   -23256210.195 9 -18100140.41148  20275513.002    20275520.8264
  22492672.727   -12253542.666 8  -9519398.56846  22492672.825    22492679.9614
  21000021.194   -19002289.931 9 -14796437.43447  21000023.636    21000030.8694
  23744603.550    -6870675.457 8  -5342000.86846  23744603.036    23744611.1904
  23368501.059    -7805744.866 8  -6068834.72646  23368506.059    23368514.8424
 00  3 20  4  2  0.0000000  0  7 03 23 17 26 09 21 29
  24336132.565    -2810014.652 7  -2178143.39345  24336133.576    24336139.1714
  21211444.948   -19967393.507 9 -15510379.74348  21211447.216    21211453.9924
  20283183.847   -23215888.082 9 -18068720.60448  20283186.008    20283194.1734
  22510021.679   -12162352.080 8  -9448341.00046  22510025.401    22510033.3424
  20992298.413   -19042892.790 9 -14828075.98247  20992297.228    20992304.2654
  23729535.662    -6949844.428 8  -5403690.94446  23729537.891    23729545.3504
  23352948.513    -7887475.114 8  -6132520.52946  23352953.234    23352961.5304
 00  3 20  4  2 30.0000000  0  7 03 23 17 26 09 21 29
  24337230.240    -2804239.345 7  -2173643.09545  24337232.323    24337238.3374
  21204529.995   -20003735.126 9 -15538697.86648  21204531.726    21204538.6684
  20290970.610   -23174973.032 9 -18036838.77548  20290971.872    20290980.2384
  22527400.950   -12071019.319 8  -9377172.63946  22527405.845    22527413.3854
  20984674.811   -19082927.504 9 -14859271.82147  20984678.700    20984686.0084
  23714471.879    -7029007.291 8  -5465376.25246  23714472.204    23714481.3734
  23337438.553    -7968982.780 8  -6196032.88946  23337443.812    23337452.2484
 00  3 20  4  3  0.0000000  0  7 03 23 17 26 09 21 29
  24338419.369    -2797974.126 7  -2168761.10845  24338425.664    24338431.9244
  21197647.164   -20039907.920 9 -15566884.45548  21197648.624    21197655.3294
  20298867.282   -23133462.563 9 -18004492.97848  20298870.977    20298879.3544
  22544810.923   -11979556.461 8  -9305902.89546  22544810.436    22544818.5054
  20977165.805   -19122384.758 9 -14890017.68947  20977170.184    20977177.6424
  23699407.480    -7108177.344 8  -5527067.14046  23699407.503    23699414.3564
  23321978.631    -8050260.390 8  -6259366.00146  23321976.196    23321985.2264
 00  3 20  4  3 30.0000000  0  7 03 23 17 26 09 21 29
  24339713.067    -2791222.308 7  -2163499.94145  24339709.608    24339716.2454
  21190797.777   -20075895.638 9 -15594926.84248  21190799.911    21190807.4464
  20306879.662   -23091361.926 9 -17971687.31148  20306882.428    20306890.9824
  22562229.560   -11887975.030 8  -9234540.76146  22562237.107    22562245.7014
  20969772.802   -19161252.458 9 -14920304.15948  20969773.914    20969781.4554
  23684335.240    -7187363.071 8  -5588770.27746  23684338.703    23684346.3494
  23306549.409    -8131293.885 8  -6322508.85646  23306555.479    23306564.8964
 00  3 20  4  4  0.0000000  0  7 03 23 17 26 09 21 29
  24341082.845    -2783976.166 7  -2157853.58145  24341087.894    24341094.7584
  21183986.753   -20111693.760 9 -15622821.46448  21183987.853    21183995.2304
  20315003.029   -23048679.631 9 -17938428.41648  20315004.975    20315012.7144
  22579678.592   -11796294.181 8  -9163101.17846  22579684.238    22579691.9914
  20962489.913   -19199524.395 9 -14950126.40748  20962491.242    20962498.6844
  23669265.160    -7266574.529 8  -5650493.45246  23669267.027    23669274.4074
  23291181.622    -8212079.699 8  -6385458.73746  23291182.219    23291191.8534
 00  3 20  4  4 30.0000000  0  7 03 23 17 26 09 21 29
  24342567.127    -2776225.803 7  -2151814.29845  24342561.508    24342571.0214
  21177207.865   -20147309.736 9 -15650574.14548  21177210.265    21177217.2524
  20323235.476   -23005419.565 9 -17904719.29548  20323237.487    20323244.3184
  22597146.602   -11704514.732 8  -9091584.75346  22597149.345    22597157.0914
  20955319.089   -19237197.629 9 -14979482.13448  20955321.470    20955329.4524
  23654189.817    -7345809.603 8  -5712235.03946  23654188.746    23654196.2964
  23275852.498    -8292642.544 8  -6448234.88946  23275852.436    23275861.6264
 00  3 20  4  5  0.0000000  0  7 03 23 17 26 09 21 29
  24344128.418    -2767972.573 7  -2145383.19845  24344132.865    24344139.1234
  21170464.328   -20182753.946 9 -15678193.00248  21170465.932    21170472.4914
  20331580.259   -22961567.922 9 -17870549.19548  20331582.141    20331589.5154
  22614629.480   -11612636.059 8  -9019990.99546  22614633.492    22614641.0734
  20948267.203   -19274258.207 9 -15008360.46147  20948269.329    20948276.8874
  23639103.484    -7425062.589 8  -5773990.57646  23639106.096    23639113.6184
  23260555.233    -8373006.099 8  -6510855.73146  23260559.549    23260567.8524
 00  3 20  4  5 30.0000000  0  7 03 23 17 26 09 21 29
  24345801.204    -2759209.678 7  -2138554.95945  24345802.232    24345808.7734
  21163751.802   -20218028.756 9 -15705679.84248  21163753.122    21163760.0974
  20340034.096   -22917129.749 9 -17835922.06248  20340038.268    20340046.0134
  22632135.268   -11520663.818 8  -8948324.33146  22632135.302    22632143.5734
  20941330.044   -19310704.098 9 -15036759.80747  20941333.855    20941340.9464
  23624016.624    -7504335.316 8  -5835761.48846  23624020.572    23624028.2974
  23245299.271    -8453189.796 8  -6573336.44446  23245299.204    23245309.1644
 00  3 20  4  6  0.0000000  0  7 03 23 17 26 09 21 29
  24347559.600    -2749943.578 7  -2131334.57745  24347564.623    24347570.9314
  21157065.081   -20253152.343 9 -15733048.84548  21157068.941    21157076.1344
  20348604.542   -22872098.791 9 -17800833.02148  20348607.302    20348615.2004
  22649651.548   -11428607.345 8  -8876592.04946  22649653.308    22649660.9154
  20934511.208   -19346530.292 9 -15064676.27847  20934515.959    20934523.4444
  23608931.419    -7583604.558 8  -5897529.69346  23608936.416    23608944.4614
  23230067.167    -8533216.624 8  -6635694.90246  23230071.951    23230080.5294
 00  3 20  4  6 30.0000000  0  7 03 23 17 26 09 21 29
  24349421.211    -2740186.146 7  -2123731.35445  24349419.179    24349429.9174
  21150410.637   -20288136.648 9 -15760309.32248  21150411.273    21150418.8974
  20357286.079   -22826475.540 9 -17765282.45948  20357289.052    20357296.8164
  22667184.041   -11336464.900 8  -8804792.76146  22667186.987    22667195.4394
  20927815.715   -19381732.797 9 -15092106.76647  20927817.512    20927824.8554
  23593853.159    -7662856.724 8  -5959284.58946  23593855.641    23593863.5874
  23214873.326    -8613085.220 8  -6697930.03946  23214874.108    23214881.5974
 00  3 20  4  7  0.0000000  0  7 03 23 17 26 09 21 29
  24351359.636    -2729944.247 7  -2115750.60445  24351369.203    24351380.2014
  21143780.645   -20322969.256 9 -15787451.59148  21143782.750    21143790.2604
  20366080.626   -22780263.332 9 -17729272.97148  20366082.820    20366090.7874
  22684728.641   -11244251.377 8  -8732938.08746  22684734.157    22684742.8634
  20921237.606   -19416321.205 9 -15119058.73247  20921235.643    20921243.1224
  23578779.653    -7742094.646 8  -6021028.37046  23578776.761    23578784.8414
  23199707.500    -8692767.430 8  -6760019.99646  23199709.853    23199717.8344
 00  3 20  4  7 30.0000000  0  7 03 23 17 26 09 21 29
  24353399.892    -2719216.155 7  -2107391.07745  24353408.299    24353419.3444
  21137182.844   -20357645.232 9 -15814471.81448  21137184.019    21137191.6014
  20374984.615   -22733469.126 9 -17692809.97848  20374987.720    20374995.5284
  22702291.719   -11151972.539 8  -8661032.54346  22702294.436    22702302.7564
  20914764.889   -19450307.044 9 -15145541.15947  20914768.096    20914775.9394
  23563698.518    -7821313.260 8  -6082757.08646  23563701.734    23563710.1644
  23184589.382    -8772235.639 8  -6821943.16246  23184587.201    23184597.0304
 00  3 20  4  8  0.0000000  0  7 03 23 17 26 09 21 29
  24355538.844    -2708007.849 7  -2098657.36545  24355543.969    24355551.3354
  21130610.255   -20392173.889 9 -15841377.25048  21130613.358    21130621.5224
  20384001.717   -22686092.239 9 -17655892.93848  20384003.487    20384011.1774
  22719869.391   -11059610.600 8  -8589062.22646  22719870.012    22719878.3994
  20908408.861   -19483703.688 9 -15171564.47448  20908412.613    20908420.4064
  23548627.640    -7900509.754 8  -6144468.59946  23548630.926    23548640.3854
  23169510.061    -8851474.075 8  -6883687.29746  23169509.138    23169517.5114
 00  3 20  4  8 30.0000000  0  7 03 23 17 26 09 21 29
  24357770.245    -2696312.416 7  -2089544.09545  24357770.965    24357778.2864
  21124071.064   -20426543.745 9 -15868158.94648  21124073.349    21124081.1864
  20393126.450   -22638129.183 9 -17618519.14648  20393129.972    20393138.3144
  22737462.368   -10967144.644 8  -8517010.85346  22737465.911    22737473.0514
  20902164.811   -19516520.128 9 -15197135.68848  20902168.089    20902175.0854
  23533549.051    -7979713.121 8  -6206185.44846  23533558.479    23533567.1014
  23154473.421    -8930473.309 8  -6945245.00946  23154475.851    23154485.2694
 00  3 20  4  9  0.0000000  0  7 03 23 17 26 09 21 29
  24360085.832    -2684128.880 7  -2080050.39745  24360089.748    24360096.2684
  21117563.869   -20460738.389 9 -15894804.11748  21117566.788    21117573.8944
  20402367.863   -22589567.751 9 -17580679.09748  20402371.022    20402379.1944
  22755083.396   -10874570.219 8  -8444874.94946  22755081.711    22755090.3714
  20896029.823   -19548750.753 9 -15222250.42047  20896034.506    20896042.0514
  23518481.823    -8058928.018 8  -6267911.29546  23518485.350    23518493.7454
  23139485.011    -9009230.920 8  -7006614.48446  23139488.423    23139497.7554
 00  3 20  4  9 30.0000000  0  7 03 23 17 26 09 21 29
  24362499.392    -2671460.317 7  -2070178.78045  24362497.639    24362506.4004
  21111088.649   -20494765.889 9 -15921319.04348  21111091.524    21111098.4024
  20411724.857   -22540404.531 9 -17542370.11748  20411726.874    20411734.6064
  22772723.284   -10781870.685 8  -8372641.59846  22772722.165    22772730.0844
  20890015.529   -19580379.714 9 -15246896.31847  20890015.891    20890023.2354
  23503403.079    -8138160.968 8  -6329651.19246  23503408.078    23503415.5834
  23124544.781    -9087761.076 8  -7067806.70646  23124545.209    23124553.7144
 00  3 20  4 10  0.0000000  0  7 03 23 17 26 09 21 29
  24364998.455    -2658312.052 7  -2059933.38045  24365001.360    24365010.5624
  21104647.039   -20528622.501 9 -15947700.80248  21104648.381    21104655.9694
  20421193.721   -22490640.788 9 -17503593.19848  20421196.622    20421204.2394
  22790380.796   -10689046.072 8  -8300310.76346  22790385.819    22790394.1984
  20884114.393   -19611381.644 9 -15271053.62548  20884116.614    20884123.9664
  23488316.816    -8217424.481 8  -6391414.90046  23488323.158    23488333.4804
  23109643.141    -9166076.837 8  -7128831.82946  23109641.388    23109650.0204
 00  3 20  4 10 30.0000000  0  7 03 23 17 26 09 21 29
  24367597.096    -2644681.189 7  -2049311.93745  24367593.479    24367604.8224
  21098239.025   -20562297.728 9 -15973941.21248  21098240.595    21098247.8704
  20430780.366   -22440270.907 9 -17464343.97048  20430781.575    20430789.3884
  22808070.576   -10596110.322 8  -8227893.33246  22808071.786    22808078.7834
  20878338.985   -19641733.046 9 -15294704.02448  20878340.924    20878348.5534
  23473231.963    -8296711.393 8  -6453196.83146  23473234.350    23473245.6844
  23094771.110    -9244174.868 8  -7189687.33246  23094779.238    23094789.0104
